[[{"header":{"parameterUnit":"m.s-1","parameterCategory":1,"la1":31.0,"la2":29.5877,"lo1":-88.7671,"lo2":-86.6584,"dy":0.0162,"dx":0.0185,"nx":115,"ny":88,"refTime":"2023-09-01T06:00:00:Z","depth":0,"parameterNumber":2,"parameterNumberName":"U-component_of_WINDS"},"data":[0.0,0.0,0.0,0.0,0.0,0.0,0.0,0.0,0.0,0.0,0.0,0.0,0.0,0.0,0.0,0.0,0.0,0.0,0.0,0.0,0.0,0.0,0.0,0.0,0.0,0.0,0.0,0.0,0.0,0.0,0.0,0.0,0.0,0.0,0.0,0.0,0.0,0.0,0.0,0.0,0.0,0.0,0.0,0.0,0.0,0.0,0.0,0.0,0.0,0.0,0.0,0.0,0.0,0.0,0.0,0.0,0.0,0.0,0.0,0.0,0.0,0.0,0.0,0.0,0.0,0.0,0.0,0.0,0.0,0.0,0.0,0.0,0.0,0.0,0.0,0.0,0.0,0.0,0.0,0.0,0.0,0.0,0.0,0.0,0.0,0.0,0.0,0.0,0.0,0.0,0.0,0.0,0.0,0.0,0.0,0.0,0.0,0.0,0.0,0.0,0.0,0.0,0.0,0.0,0.0,0.0,0.0,0.0,0.0,0.0,0.0,0.0,0.0,0.0,0.0,0.0,0.0,0.0,0.0,0.0,0.0,0.0,0.0,0.0,0.0,0.0,0.0,0.0,0.0,0.0,0.0,0.0,0.0,0.0,0.0,0.0,0.0,0.0,0.0,0.0,0.0,0.0,0.0,0.0,0.0,0.0,0.0,0.0,0.0,0.0,0.0,0.0,0.0,0.0,0.0,0.0,0.0,0.0,0.0,0.0,0.0,0.0,0.0,0.0,0.0,0.0,0.0,0.0,0.0,0.0,0.0,0.0,0.0,0.0,0.0,0.0,0.0,0.0,0.0,0.0,0.0,0.0,0.0,0.0,0.0,0.0,0.0,0.0,0.0,0.0,0.0,0.0,0.0,0.0,0.0,0.0,0.0,0.0,0.0,0.0,0.0,0.0,0.0,0.0,0.0,0.0,0.0,0.0,0.0,0.0,0.0,0.0,0.0,0.0,0.0,0.0,0.0,0.0,0.0,0.0,0.0,0.0,0.0,0.0,0.0,0.0,0.0,0.0,0.0,0.0,0.0,0.0,0.0,0.0,0.0,0.0,0.0,0.0,0.0,0.0,0.0,0.0,0.0,0.0,0.0,0.0,0.0,0.0,0.0,0.0,0.0,0.0,0.0,0.0,0.0,0.0,0.0,0.0,0.0,0.0,0.0,0.0,0.0,0.0,0.0,0.0,0.0,0.0,0.0,0.0,0.0,0.0,0.0,0.0,0.0,0.0,0.0,0.0,0.0,0.0,0.0,0.0,0.0,0.0,0.0,0.0,0.0,0.0,0.0,0.0,0.0,0.0,0.0,0.0,0.0,0.0,0.0,0.0,0.0,0.0,0.0,0.0,0.0,0.0,0.0,0.0,0.0,0.0,0.0,0.0,0.0,0.0,0.0,0.0,0.0,0.0,0.0,0.0,0.0,0.0,0.0,0.0,0.0,0.0,0.0,0.0,0.0,0.0,0.0,0.0,0.0,0.0,0.0,0.0,0.0,0.0,0.0,0.0,0.0,0.0,0.0,0.0,0.0,0.0,0.0,0.0,0.0,0.0,0.0,0.0,0.0,0.0,0.0,0.0,0.0,0.0,0.0,0.0,0.0,0.0,0.0,0.0,0.0,0.0,0.0,0.0,0.0,0.0,0.0,0.0,0.0,0.0,0.0,0.0,0.0,0.0,0.0,0.0,0.0,0.0,0.0,0.0,0.0,0.0,0.0,0.0,0.0,0.0,0.0,0.0,0.0,0.0,0.0,0.0,0.0,0.0,0.0,0.0,0.0,0.0,0.0,0.0,0.0,0.0,0.0,0.0,0.0,0.0,0.0,0.0,0.0,0.0,0.0,0.0,0.0,0.0,0.0,0.0,0.0,0.0,0.0,0.0,0.0,0.0,0.0,0.0,0.0,0.0,0.0,0.0,0.0,0.0,0.0,0.0,0.0,0.0,0.0,0.0,0.0,0.0,0.0,0.0,0.0,0.0,0.0,0.0,0.0,0.0,0.0,0.0,0.0,0.0,0.0,0.0,0.0,0.0,0.0,0.0,0.0,0.0,0.0,0.0,0.0,0.0,0.0,0.0,0.0,0.0,0.0,0.0,0.0,0.0,0.0,0.0,0.0,0.0,0.0,0.0,0.0,0.0,0.0,0.0,0.0,0.0,0.0,0.0,0.0,0.0,0.0,0.0,0.0,0.0,0.0,0.0,0.0,0.0,0.0,0.0,0.0,0.0,0.0,0.0,0.0,0.0,0.0,0.0,0.0,0.0,0.0,0.0,0.0,0.0,0.0,0.0,0.0,0.0,0.0,0.0,0.0,0.0,0.0,0.0,0.0,0.0,0.0,0.0,0.0,0.0,0.0,0.0,0.0,0.0,0.0,0.0,0.0,0.0,0.0,0.0,0.0,0.0,0.0,0.0,0.0,0.0,0.0,0.0,0.0,0.0,0.0,0.0,0.0,0.0,0.0,0.0,0.0,0.0,0.0,0.0,0.0,0.0,0.0,0.0,0.0,0.0,0.0,0.0,0.0,0.0,0.0,0.0,0.0,0.0,0.0,0.0,0.0,0.0,0.0,0.0,0.0,0.0,0.0,0.0,0.0,0.0,0.0,0.0,0.0,0.0,0.0,0.0,0.0,0.0,0.0,0.0,0.0,0.0,0.0,0.0,0.0,0.0,0.0,0.0,0.0,0.0,0.0,0.0,0.0,0.0,0.0,0.0,0.0,0.0,0.0,0.0,0.0,0.0,0.0,0.0,0.0,0.0,0.0,0.0,0.0,0.0,0.0,0.0,0.0,0.0,0.0,0.0,0.0,0.0,0.0,0.0,0.0,0.0,0.0,0.0,0.0,0.0,0.0,0.0,0.0,0.0,0.0,0.0,0.0,0.0,0.0,0.0,0.0,0.0,0.0,0.0,0.0,0.0,0.0,0.0,0.0,0.0,0.0,0.0,0.0,0.0,0.0,0.0,0.0,0.0,0.0,0.0,0.0,0.0,0.0,0.0,0.0,0.0,0.0,0.0,0.0,0.0,0.0,0.0,0.0,0.0,0.0,0.0,0.0,0.0,0.0,0.0,0.0,0.0,0.0,0.0,0.0,0.0,0.0,0.0,0.0,0.0,0.0,0.0,0.0,0.0,0.0,0.0,0.0,0.0,0.0,0.0,0.0,0.0,0.0,0.0,0.0,0.0,0.0,0.0,0.0,0.0,0.0,0.0,0.0,0.0,0.0,0.0,0.0,0.0,0.0,0.0,0.0,0.0,0.0,0.0,0.0,0.0,0.0,0.0,0.0,0.0,0.0,0.0,0.0,0.0,0.0,0.0,0.0,0.0,0.0,0.0,0.0,0.0,0.0,0.0,0.0,0.0,0.0,0.0,0.0,0.0,0.0,0.0,0.0,0.0,0.0,0.0,0.0,0.0,0.0,0.0,0.0,0.0,0.0,0.0,0.0,0.0,0.0,0.0,0.0,0.0,0.0,0.0,0.0,0.0,0.0,0.0,0.0,0.0,0.0,0.0,0.0,0.0,0.0,0.0,0.0,0.0,0.0,0.0,0.0,0.0,0.0,0.0,0.0,0.0,0.0,0.0,0.0,0.0,0.0,0.0,0.0,0.0,0.0,0.0,0.0,0.0,0.0,0.0,0.0,0.0,0.0,0.0,0.0,0.0,0.0,0.0,0.0,0.0,0.0,0.0,0.0,0.0,0.0,0.0,0.0,0.0,0.0,0.0,0.0,0.0,0.0,0.0,0.0,0.0,0.0,0.0,0.0,0.0,0.0,0.0,0.0,0.0,0.0,0.0,0.0,0.0,0.0,0.0,0.0,0.0,0.0,0.0,0.0,0.0,0.0,0.0,0.0,0.0,0.0,0.0,0.0,0.0,0.0,0.0,0.0,0.0,0.0,0.0,0.0,0.0,0.0,0.0,0.0,0.0,0.0,0.0,0.0,0.0,0.0,0.0,0.0,0.0,0.0,0.0,0.0,0.0,0.0,0.0,0.0,0.0,0.0,0.0,0.0,0.0,0.0,0.0,0.0,0.0,0.0,0.0,0.0,0.0,0.0,0.0,0.0,0.0,0.0,0.0,0.0,0.0,0.0,0.0,0.0,0.0,0.0,0.0,0.0,0.0,0.0,0.0,0.0,0.0,0.0,0.0,0.0,0.0,0.0,0.0,0.0,0.0,0.0,0.0,0.0,0.0,0.0,0.0,0.0,0.0,0.0,0.0,0.0,0.0,0.0,0.0,0.0,0.0,0.0,0.0,0.0,0.0,0.0,0.0,0.0,0.0,0.0,0.0,0.616,0.0,0.0,0.0,0.0,0.0,0.0,0.0,0.0,0.0,0.0,0.0,0.0,0.0,0.0,0.0,0.0,0.0,0.0,0.0,0.0,0.0,0.0,0.0,0.0,0.0,0.0,0.0,0.0,0.0,0.0,0.0,0.0,0.0,0.0,0.0,0.0,0.0,0.0,0.0,0.0,0.0,0.0,0.0,0.0,0.0,0.0,0.0,0.0,0.0,0.0,0.0,0.0,0.0,0.0,0.0,0.0,0.0,0.0,0.0,0.0,0.0,0.0,0.0,0.0,0.0,0.0,0.0,0.0,0.0,0.0,0.0,0.0,0.0,0.0,0.0,0.0,0.0,0.0,0.0,0.0,0.0,0.0,0.0,0.0,0.0,0.0,0.0,0.0,0.0,0.0,0.0,0.0,0.0,0.0,0.0,0.0,0.0,0.0,0.0,0.0,0.0,0.0,0.0,0.0,0.0,0.0,0.0,0.0,0.0,0.0,0.6626,0.6241,0.7034,0.7088,0.6252,0.0,0.0,0.0,0.0,0.0,0.0,0.0,0.0,0.0,0.0,0.0,0.0,0.0,0.0,0.0,0.0,0.0,0.0,0.0,0.0,0.0,0.0,0.0,0.0,0.0,0.0,0.0,0.0,0.0,0.0,0.0,0.0,0.0,0.0,0.0,0.0,0.0,0.0,0.0,0.0,0.0,0.0,0.0,0.0,0.0,0.0,0.0,0.0,0.0,0.0,0.0,0.0,0.0,0.0,0.0,0.0,0.0,0.0,0.0,0.0,0.0,0.0,0.0,0.0,0.0,0.0,0.0,0.0,0.0,0.0,0.0,0.0,0.0,0.0,0.0,0.0,0.0,0.0,0.0,0.0,0.0,0.0,0.0,0.0,0.0,0.0,0.0,0.0,0.0,0.0,0.0,0.0,0.0,0.0,0.0,0.0,0.0,0.0,0.0,0.0,0.0,0.0,0.0,0.0,0.0,0.0,0.0,0.0,0.0,0.0,0.0,0.0,0.7341,0.7413,0.6555,0.0,0.0,0.0,0.0,0.0,0.0,0.0,0.0,0.0,0.0,0.0,0.0,0.0,0.0,0.0,0.0,0.0,0.0,0.0,0.0,0.0,0.0,0.0,0.0,0.0,0.0,0.0,0.0,0.0,0.0,0.0,0.0,0.0,0.0,0.0,0.0,0.0,0.0,0.0,0.0,0.0,0.0,0.0,0.0,0.0,0.0,0.0,0.0,0.0,0.0,0.0,0.0,0.0,0.0,0.0,0.0,0.0,0.0,0.0,0.0,0.0,0.0,0.0,0.0,0.0,0.0,0.0,0.0,0.0,0.0,0.0,0.0,0.0,0.0,0.0,0.0,0.0,0.0,0.0,0.0,0.0,0.0,0.0,0.0,0.0,0.0,0.0,0.0,0.0,0.0,0.0,0.0,0.0,0.0,0.0,0.0,0.0,0.0,0.0,0.0,0.0,0.0,0.0,0.0,0.0,0.0,0.0,0.0,0.0,0.0,0.711,0.7374,0.7482,0.0,0.7368,0.0,0.0,0.0,0.0,0.0,0.0,0.0,0.0,0.0,0.0,0.0,0.0,0.0,0.0,0.0,0.0,0.0,0.0,0.0,0.0,0.0,0.0,0.0,0.0,0.0,0.0,0.0,0.0,0.0,0.0,0.0,0.0,0.0,0.0,0.0,0.0,0.0,0.0,0.0,0.0,0.0,0.0,0.0,0.0,0.0,0.0,0.0,0.0,0.0,0.0,0.0,0.0,0.0,0.0,0.0,0.0,0.0,0.0,0.0,0.0,0.0,0.0,0.0,0.0,0.0,0.0,0.0,0.0,0.0,0.0,0.0,0.0,0.0,0.0,0.0,0.0,0.0,0.0,0.0,0.0,0.0,0.0,0.0,0.0,0.0,0.0,0.0,0.0,0.0,0.0,0.0,0.0,0.0,0.0,0.0,0.0,0.0,0.0,0.0,0.0,0.0,0.0,0.0,0.0,0.0,0.0,0.0,0.0,0.0,0.0,0.7161,0.7495,0.7502,0.7404,0.0,0.0,0.0,0.0,0.0,0.0,0.0,0.0,0.0,0.0,0.0,0.0,0.0,0.0,0.0,0.0,0.0,0.0,0.0,0.0,0.0,0.0,0.0,0.0,0.0,0.0,0.0,0.0,0.0,0.0,0.0,0.0,0.0,0.0,0.0,0.0,0.0,0.0,0.0,0.0,0.0,0.0,0.0,0.0,0.0,0.0,0.0,0.0,0.0,0.0,0.0,0.0,0.0,0.0,0.0,0.0,0.0,0.0,0.0,0.0,0.0,0.0,0.0,0.0,0.0,0.0,0.0,0.0,0.0,0.0,0.0,0.0,0.0,0.0,0.0,0.0,0.0,0.0,0.0,0.0,0.0,0.0,0.0,0.0,0.0,0.0,0.0,0.0,0.0,0.0,0.0,0.0,0.0,0.0,0.0,0.0,0.0,0.0,0.0,0.0,0.0,0.0,0.0,0.0,0.0,0.0,0.0,0.0,0.0,0.0,0.7293,0.7455,0.7826,0.7611,0.743,0.7259,0.0,0.0,0.0,0.0,0.0,0.0,0.0,0.0,0.0,0.0,0.0,0.0,0.0,0.0,0.0,0.0,0.0,0.0,0.0,0.0,0.0,0.0,0.0,0.0,0.0,0.0,0.0,0.0,0.0,0.0,0.0,0.0,0.0,0.0,0.0,0.0,0.0,0.0,0.0,0.0,0.0,0.0,0.0,0.0,0.0,0.0,0.0,0.0,0.0,0.0,0.0,0.0,0.0,0.0,0.0,0.0,0.0,0.0,0.0,0.0,0.0,0.0,0.0,0.0,0.0,0.0,0.0,0.0,0.0,0.0,0.0,0.0,0.0,0.0,0.0,0.0,0.0,0.0,0.0,0.0,0.0,0.0,0.0,0.0,0.0,0.0,0.0,0.0,0.0,0.0,0.0,0.0,0.0,0.0,0.0,0.0,0.0,0.0,0.0,0.0,0.0,0.0,0.0,0.0,0.0,0.0,0.0,0.0,0.8269,0.8017,0.8151,0.8671,0.7928,0.7613,0.0,0.0,0.0,0.0,0.0,0.0,0.0,0.0,0.0,0.0,0.0,0.0,0.0,0.0,0.0,0.0,0.0,0.0,0.0,0.0,0.0,0.0,0.0,0.0,0.0,0.0,0.0,0.0,0.0,0.0,0.0,0.0,0.0,0.0,0.0,0.0,0.0,0.0,0.0,0.0,0.0,0.0,0.0,0.0,0.0,0.0,0.0,0.0,0.0,0.0,0.0,0.0,0.0,0.0,0.0,0.0,0.0,0.0,0.0,0.0,0.0,0.0,0.0,0.0,0.0,0.0,0.0,0.0,0.0,0.0,0.0,0.0,0.0,0.0,0.0,0.0,0.0,0.0,0.0,0.0,0.0,0.0,0.0,0.0,0.0,0.0,0.0,0.0,0.0,0.0,0.0,0.0,0.0,0.0,0.0,0.0,0.0,0.0,0.0,0.0,0.0,0.0,0.0,0.0,0.0,0.0,0.0,0.0,0.0,0.8071,0.8325,0.8491,0.8537,0.8403,0.8309,0.0,0.0,0.0,0.0,0.0,0.0,0.0,0.0,0.0,0.0,0.0,0.0,0.0,0.0,0.0,0.0,0.0,0.0,0.0,0.0,0.0,0.0,0.0,0.0,0.0,0.0,0.0,0.0,0.0,0.0,0.0,0.0,0.0,0.0,0.0,0.0,0.0,0.0,0.0,0.0,0.0,0.0,0.0,0.0,0.0,0.0,0.0,0.0,0.0,0.0,0.0,0.0,0.0,0.0,0.0,0.0,0.0,0.0,0.0,0.0,0.0,0.0,0.0,0.0,0.0,0.0,0.0,0.0,0.0,0.0,0.0,0.0,0.0,0.0,0.0,0.0,0.0,0.0,0.0,0.0,0.0,0.0,0.0,0.0,0.0,0.0,0.0,0.0,0.0,0.0,0.0,0.0,0.0,0.0,0.0,0.0,0.0,0.0,0.0,0.0,0.0,0.0,0.0,0.0,0.0,0.0,0.0,0.0,0.0,0.8319,0.0,0.9138,0.8951,0.8851,0.8717,0.0,0.0,0.0,0.0,0.0,0.0,0.0,0.0,0.0,0.0,0.0,0.0,0.0,0.0,0.0,0.0,0.0,0.0,0.0,0.0,0.0,0.0,0.0,0.0,0.0,0.0,0.0,0.0,0.0,0.0,0.0,0.0,0.0,0.0,0.0,0.0,0.0,0.0,0.0,0.0,0.0,0.0,0.0,0.0,0.0,0.0,0.0,0.0,0.0,0.0,0.0,0.0,0.0,0.0,0.0,0.0,0.0,0.0,0.0,0.0,0.0,0.0,0.0,0.0,0.0,0.0,0.0,0.0,0.0,0.0,0.0,0.0,0.0,0.0,0.0,0.0,0.0,0.0,0.0,0.0,0.0,0.0,0.0,0.0,0.0,0.0,0.0,0.0,0.0,0.0,0.0,0.0,0.0,0.0,0.0,0.0,0.0,0.0,0.0,0.0,0.0,0.0,0.0,0.0,0.0,0.0,0.0,0.0,0.8352,0.9171,0.975,1.0038,1.0087,0.9258,0.8811,0.0,0.0,0.0,0.0,0.0,0.0,0.0,0.0,0.0,0.0,0.0,0.0,0.0,0.0,0.0,0.0,0.0,0.0,0.0,0.0,0.0,0.0,0.0,0.0,0.0,0.0,0.0,0.0,0.0,0.0,0.0,0.0,0.0,0.0,0.0,0.0,0.0,0.0,0.0,0.0,0.0,0.0,0.0,0.0,0.0,0.0,0.0,0.0,0.0,0.0,0.0,0.0,0.0,0.0,0.0,0.0,0.0,0.0,0.0,0.0,0.0,0.0,0.0,0.0,0.0,0.0,0.0,0.0,0.0,0.0,0.0,0.0,0.0,0.0,0.0,0.0,0.0,0.0,0.0,0.0,0.0,0.0,0.0,0.0,0.0,0.0,0.0,0.0,0.0,0.0,0.0,0.0,0.0,0.0,0.0,0.0,0.0,0.0,0.0,0.0,0.0,0.0,0.0,0.0,0.0,0.0,0.0,0.0,0.0,0.9217,0.9784,1.0105,1.0085,0.9659,0.9426,0.0,0.0,0.0,0.0,0.0,0.0,0.0,0.0,0.0,0.0,0.0,0.0,0.0,0.0,0.0,0.0,0.0,0.0,0.0,0.0,0.0,0.0,0.0,0.0,0.0,0.0,0.0,0.0,0.0,0.0,0.0,0.0,0.0,0.0,0.0,0.0,0.0,0.0,0.0,0.0,0.0,0.0,0.0,0.0,0.0,0.0,0.0,0.0,0.0,0.0,0.0,0.0,0.0,0.0,0.0,0.0,0.0,0.0,0.0,0.0,0.0,0.0,0.0,0.0,0.0,0.0,0.0,0.0,0.0,0.0,0.0,0.0,0.0,0.0,0.0,0.0,0.0,0.0,0.0,0.0,0.0,0.0,0.0,0.0,0.0,0.0,0.0,0.0,0.0,0.0,0.0,0.0,0.0,0.0,0.0,0.0,0.0,0.0,0.0,0.0,0.0,0.0,0.0,0.0,0.0,0.0,0.0,0.0,0.0,0.9557,1.0018,1.0296,1.0281,0.9908,0.9701,0.9687,0.0,0.0,0.0,0.0,0.0,0.0,0.0,0.0,0.0,0.0,0.0,0.0,0.0,0.0,0.0,0.0,0.0,0.0,0.0,0.0,0.0,0.0,0.0,0.0,0.0,0.0,0.0,0.0,0.0,0.0,0.0,0.0,0.0,0.0,0.0,0.0,0.0,0.0,0.0,0.0,0.0,0.0,0.0,0.0,0.0,0.0,0.0,0.0,0.0,0.0,0.0,0.0,0.0,0.0,0.0,0.0,0.0,0.0,0.0,0.0,0.0,0.0,0.0,0.0,0.0,0.0,0.0,0.0,0.0,0.0,0.0,0.0,0.0,0.0,0.0,0.0,0.0,0.0,0.0,0.0,0.0,0.0,0.0,0.0,0.0,0.0,0.0,0.0,0.0,0.0,0.0,0.0,0.0,0.0,0.0,0.0,0.0,0.0,0.0,0.0,0.0,0.0,0.0,0.0,0.0,0.0,0.0,0.0,1.0118,1.0479,1.0626,1.0589,1.0002,0.9701,0.0,0.0,0.0,0.0,0.0,0.0,0.0,0.0,0.0,0.0,0.0,0.0,0.0,0.0,0.0,0.0,0.0,0.0,0.0,0.0,0.0,0.0,0.0,0.0,0.0,0.0,0.0,0.0,0.0,0.0,0.0,0.0,0.0,0.0,0.0,0.0,0.0,0.0,0.0,0.0,0.0,0.0,0.0,0.0,0.0,0.0,0.0,0.0,0.0,0.0,0.0,0.0,0.0,0.0,0.0,0.0,0.0,0.0,0.0,0.0,0.0,0.0,0.0,0.0,0.0,0.0,0.0,0.0,0.0,0.0,0.0,0.0,0.0,0.0,0.0,0.0,0.0,0.0,0.0,0.0,0.0,0.0,0.0,0.0,0.0,0.0,0.0,0.0,0.0,0.0,0.0,0.0,0.0,0.0,0.0,0.0,0.0,0.0,0.0,0.0,0.0,0.0,0.0,0.0,0.0,0.0,0.0,0.0,0.0,1.0457,1.0935,1.1005,1.06,1.0023,0.9701,0.0,0.0,0.0,0.0,0.0,0.0,0.0,0.0,0.0,0.0,0.0,0.0,0.0,0.0,0.0,0.0,0.0,0.0,0.0,0.0,0.0,0.0,0.0,0.0,0.0,0.0,0.0,0.0,0.0,0.0,0.0,0.0,0.0,0.0,0.0,0.0,0.0,0.0,0.0,0.0,0.0,0.0,0.0,0.0,0.0,0.0,0.0,0.0,0.0,0.0,0.0,0.0,0.0,0.0,0.0,0.0,0.0,0.0,0.0,0.0,0.0,0.0,0.0,0.0,0.0,0.0,0.0,0.0,0.0,0.0,0.0,0.0,0.0,0.0,0.0,0.0,0.0,0.0,0.0,0.0,0.0,0.0,0.0,0.0,0.0,0.0,0.0,0.0,0.0,0.0,0.0,0.0,0.0,0.0,0.0,0.0,0.0,0.0,0.0,0.0,0.0,0.0,0.0,0.0,0.0,0.0,0.0,0.0,1.0508,1.0915,1.1249,1.1246,1.0945,1.049,1.0189,0.0,0.0,0.0,0.0,0.0,0.0,0.0,0.0,0.0,0.0,0.0,0.0,0.0,0.0,0.0,0.0,0.0,0.0,0.0,0.0,0.0,0.0,0.0,0.0,0.0,0.0,0.0,0.0,0.0,0.0,0.0,0.0,0.0,0.0,0.0,0.0,0.0,0.0,0.0,0.0,0.0,0.0,0.0,0.0,0.0,0.0,0.0,0.0,0.0,0.0,0.0,0.0,0.0,0.0,0.0,0.0,0.0,0.0,0.0,0.0,0.0,0.0,0.0,0.0,0.0,0.0,0.0,0.0,0.0,0.0,0.0,0.0,0.0,0.0,0.0,0.0,0.0,0.0,0.0,0.0,0.0,0.0,0.0,0.0,0.0,0.0,0.0,0.0,0.0,0.0,0.0,0.0,0.0,0.0,0.0,0.0,0.0,0.0,0.0,0.0,0.0,0.0,0.0,0.0,0.0,0.0,0.0,0.0,1.0921,1.1432,1.1469,1.1499,1.1486,1.1176,1.0871,0.0,0.0,0.0,0.0,0.0,0.0,0.0,0.0,0.0,0.0,0.0,0.0,0.0,0.0,0.0,0.0,0.0,0.0,0.0,0.0,0.0,0.0,0.0,0.0,0.0,0.0,0.0,0.0,0.0,0.0,0.0,0.0,0.0,0.0,0.0,0.0,0.0,0.0,0.0,0.0,0.0,0.0,0.0,0.0,0.0,0.0,0.0,0.0,0.0,0.0,0.0,0.0,0.0,0.0,0.0,0.0,0.0,0.0,0.0,0.0,0.0,0.0,0.0,0.0,0.0,0.0,0.0,0.0,0.0,0.0,0.0,0.0,0.0,0.0,0.0,0.0,0.0,0.0,0.0,0.0,0.0,0.0,0.0,0.0,0.0,0.0,0.0,0.0,0.0,0.0,0.0,0.0,0.0,0.0,0.0,0.0,0.0,0.0,0.0,0.0,0.0,0.0,0.0,0.0,0.0,0.0,0.0,0.0,1.1199,1.1781,1.1997,1.2111,1.2111,1.139,1.0878,0.0,0.0,0.0,0.0,0.0,0.0,0.0,0.0,0.0,0.0,0.0,0.0,0.0,0.0,0.0,0.0,0.0,0.0,0.0,0.0,0.0,0.0,0.0,0.0,0.0,0.0,0.0,0.0,0.0,0.0,0.0,0.0,0.0,0.0,0.0,0.0,0.0,0.0,0.0,0.0,0.0,0.0,0.0,0.0,0.0,0.0,0.0,0.0,1.333,0.0,0.0,0.0,0.0,0.0,0.0,0.0,0.0,0.0,0.0,0.0,0.0,0.0,0.0,0.0,0.0,0.0,0.0,0.0,0.0,0.0,0.0,0.0,0.0,0.0,0.0,0.0,0.0,0.0,0.0,0.0,0.0,0.0,0.0,0.0,0.0,0.0,0.0,0.0,0.0,0.0,0.0,0.0,0.0,0.0,0.0,0.0,0.0,0.0,0.0,0.0,0.0,0.0,0.0,0.0,0.0,0.0,0.0,0.0,1.1641,1.2076,1.2225,1.2305,1.2291,1.1868,1.1403,0.0,0.0,0.0,0.0,0.0,0.0,0.0,0.0,0.0,0.0,0.0,0.0,0.0,0.0,0.0,0.0,0.0,0.0,0.0,0.0,0.0,0.0,0.0,0.0,0.0,0.0,0.0,0.0,0.0,0.0,0.0,0.0,0.0,0.0,0.0,0.0,0.0,0.0,0.0,0.0,0.0,0.0,0.0,0.0,0.0,0.0,0.0,0.0,0.0,0.0,0.0,0.0,0.0,0.0,0.0,0.0,0.0,0.0,0.0,0.0,0.0,0.0,0.0,0.0,0.0,0.0,0.0,0.0,0.0,0.0,0.0,0.0,0.0,0.0,0.0,0.0,0.0,0.0,0.0,0.0,0.0,0.0,0.0,0.0,0.0,0.0,0.0,0.0,0.0,0.0,0.0,0.0,0.0,0.0,0.0,0.0,0.0,0.0,0.0,0.0,0.0,0.0,0.0,0.0,0.0,0.0,0.0,1.1677,1.1982,1.2291,1.2305,1.2305,1.2305,1.2305,1.2006,1.1432,0.0,0.0,0.0,0.0,0.0,0.0,0.0,0.0,0.0,0.0,0.0,0.0,0.0,0.0,0.0,0.0,0.0,0.0,0.0,0.0,0.0,0.0,0.0,0.0,0.0,0.0,0.0,0.0,0.0,0.0,0.0,0.0,0.0,0.0,0.0,0.0,0.0,0.0,1.3169,1.3525,0.0,0.0,0.0,0.0,0.0,0.0,0.0,0.0,1.3737,0.0,0.0,0.0,0.0,0.0,0.0,0.0,0.0,0.0,0.0,0.0,0.0,0.0,0.0,0.0,0.0,0.0,0.0,0.0,0.0,0.0,0.0,0.0,0.0,0.0,0.0,0.0,0.0,0.0,0.0,0.0,0.0,0.0,0.0,0.0,0.0,0.0,0.0,0.0,0.0,0.0,0.0,0.0,0.0,0.0,0.0,0.0,0.0,0.0,0.0,0.0,0.0,0.0,0.0,0.0,0.0,1.1399,1.1459,1.1764,1.2291,1.2305,1.2305,1.2305,1.2305,1.2006,1.1452,0.0,0.0,0.0,0.0,0.0,0.0,0.0,0.0,0.0,0.0,0.0,0.0,0.0,0.0,0.0,0.0,0.0,0.0,0.0,0.0,0.0,0.0,0.0,0.0,0.0,0.0,0.0,0.0,0.0,0.0,0.0,0.0,0.0,0.0,0.0,0.0,0.0,0.0,0.0,1.4834,1.5098,0.0,0.0,0.0,0.0,0.0,0.0,0.0,0.0,1.4697,0.0,0.0,0.0,0.0,0.0,0.0,0.0,0.0,0.0,0.0,0.0,0.0,0.0,0.0,0.0,0.0,0.0,0.0,0.0,0.0,0.0,0.0,0.0,0.0,0.0,0.0,0.0,0.0,0.0,0.0,0.0,0.0,0.0,0.0,0.0,0.0,0.0,0.0,0.0,0.0,0.0,0.0,0.0,0.0,0.0,0.0,0.0,0.0,0.0,0.0,0.0,0.0,0.0,0.0,0.0,1.0596,1.0929,1.1245,1.1533,1.2033,1.2305,1.2305,1.2305,1.2013,0.0,0.0,0.0,0.0,0.0,0.0,0.0,0.0,0.0,0.0,0.0,0.0,0.0,0.0,0.0,0.0,0.0,0.0,0.0,0.0,0.0,0.0,0.0,0.0,0.0,0.0,0.0,0.0,0.0,0.0,0.0,0.0,0.0,0.0,0.0,0.0,0.0,0.0,0.0,0.0,1.5293,1.5483,1.5737,0.0,0.0,0.0,0.0,0.0,0.0,1.4936,1.4858,0.0,0.0,0.0,0.0,0.0,0.0,0.0,0.0,0.0,0.0,0.0,0.0,0.0,0.0,0.0,0.0,0.0,0.0,0.0,0.0,0.0,0.0,0.0,0.0,0.0,0.0,0.0,0.0,0.0,0.0,0.0,0.0,0.0,0.0,0.0,0.0,0.0,0.0,0.0,0.0,0.0,0.0,0.0,0.0,0.0,0.0,0.0,0.0,0.0,0.0,0.0,0.0,0.0,0.0,0.0,0.9631,1.0145,1.0433,1.0522,1.1267,1.17,1.17,1.17,1.1505,0.0,0.0,0.0,0.0,0.0,0.0,0.0,0.0,0.0,0.0,0.0,0.0,0.0,0.0,0.0,0.0,0.0,0.0,0.0,0.0,0.0,0.0,0.0,0.0,0.0,0.0,0.0,0.0,0.0,0.0,0.0,0.0,0.0,0.0,0.0,0.0,0.0,0.0,0.0,0.0,0.0,1.5908,1.6177,1.5898,0.0,0.0,0.0,0.0,1.5003,1.5023,0.0,0.0,0.0,0.0,0.0,0.0,0.0,0.0,0.0,0.0,0.0,0.0,0.0,0.0,0.0,0.0,0.0,0.0,0.0,0.0,0.0,0.0,0.0,0.0,0.0,0.0,0.0,0.0,0.0,0.0,0.0,0.0,0.0,0.0,0.0,0.0,0.0,0.0,0.0,0.0,0.0,0.0,0.0,0.0,0.0,0.0,0.0,0.0,0.0,0.0,0.0,0.0,0.0,0.0,0.0,0.0,0.8747,0.8934,0.9171,0.9451,0.958,0.9631,0.9636,0.9655,0.9785,0.0,0.0,0.0,0.0,0.0,0.0,0.0,0.0,0.0,0.0,0.0,0.0,0.0,0.0,0.0,0.0,0.0,0.0,0.0,0.0,0.0,0.0,0.0,0.0,0.0,0.0,0.0,0.0,0.0,0.0,0.0,0.0,0.0,0.0,0.0,0.0,0.0,0.0,0.0,0.0,0.0,1.7041,1.6683,1.658,1.6531,0.0,0.0,1.5369,1.572,1.5774,0.0,0.0,0.0,0.0,0.0,0.0,0.0,0.0,0.0,0.0,0.0,0.0,0.0,0.0,0.0,0.0,0.0,0.0,0.0,0.0,0.0,0.0,0.0,0.0,0.0,0.0,0.0,0.0,0.0,0.0,0.0,0.0,0.0,0.0,0.0,0.0,0.0,0.0,0.0,0.0,0.0,0.0,0.0,0.0,0.0,0.0,0.0,0.0,0.0,0.0,0.0,0.0,0.0,0.0,0.0,0.7136,0.7739,0.807,0.8313,0.8461,0.9012,0.9315,0.9315,0.9315,0.9508,0.0,0.0,0.0,0.0,0.0,0.0,0.0,0.0,0.0,0.0,0.0,0.0,0.0,0.0,0.0,0.0,0.0,0.0,0.0,0.0,0.0,0.0,0.0,0.0,0.0,0.0,0.0,0.0,0.0,0.0,0.0,0.0,0.0,0.0,0.0,0.0,0.0,0.0,0.0,0.0,0.0,0.0,1.6641,1.6421,0.0,0.0,0.0,1.5445,1.4863,0.0,0.0,0.0,0.0,0.0,0.0,0.0,0.0,0.0,0.0,0.0,0.0,0.0,0.0,0.0,0.0,0.0,0.0,0.0,0.0,0.0,0.0,0.0,0.0,0.0,0.0,0.0,0.0,0.0,0.0,0.0,0.0,0.0,0.0,0.0,0.0,0.0,0.0,0.0,0.0,0.0,0.0,0.0,0.0,0.0,0.0,0.0,0.0,0.0,0.0,0.0,0.0,0.0,0.0,0.0,0.0,0.0,0.6766,0.72,0.7446,0.7437,0.8161,0.8542,0.8561,0.8542,0.0,0.0,0.0,0.0,0.0,0.0,0.0,0.0,0.0,0.0,0.0,0.0,0.0,0.0,0.0,0.0,0.0,0.0,0.0,0.0,0.0,0.0,0.0,0.0,0.0,0.0,0.0,1.2484,0.0,0.0,0.0,0.0,0.0,0.0,0.0,0.0,0.0,0.0,0.0,0.0,0.0,0.0,1.5682,1.6025,1.577,1.5342,0.0,0.0,1.4875,1.3999,1.4106,1.4195,0.0,0.0,0.0,0.0,0.0,0.0,0.0,0.0,0.0,0.0,0.0,0.0,0.0,0.0,0.0,0.0,0.0,0.0,0.0,0.0,0.0,0.0,0.0,0.0,0.0,0.0,0.0,0.0,0.0,0.0,0.0,0.0,0.0,0.0,0.0,0.0,0.0,0.0,0.0,0.0,0.0,0.0,0.0,0.0,0.0,0.0,0.0,0.0,0.0,0.0,0.0,0.0,0.0,0.0,0.5839,0.59,0.6233,0.6416,0.6396,0.647,0.6509,0.6509,0.6509,0.6776,0.0,0.0,0.0,0.0,0.0,0.0,0.0,0.0,0.0,0.0,0.0,0.0,0.0,0.0,0.0,0.0,0.0,0.0,0.0,0.0,0.0,0.0,0.0,0.0,0.0,0.0,0.0,0.0,0.0,0.0,0.0,0.0,0.0,0.0,0.0,0.0,0.0,0.0,0.0,0.0,0.0,1.4609,1.4626,1.4618,1.4717,0.0,1.4081,1.3392,1.3669,1.3729,1.3736,1.3714,0.0,0.0,0.0,0.0,0.0,0.0,0.0,0.0,0.0,0.0,0.0,0.0,0.0,0.0,0.0,0.0,0.0,0.0,0.0,0.0,0.0,0.0,0.0,0.0,0.0,0.0,0.0,0.0,0.0,0.0,0.0,0.0,0.0,0.0,0.0,0.0,0.0,0.0,0.0,0.0,0.0,0.0,0.0,0.0,0.0,0.0,0.0,0.0,0.0,0.0,0.0,0.0,0.0,0.58,0.5806,0.6124,0.6344,0.6426,0.6429,0.6477,0.6552,0.6556,0.6817,0.0,0.0,0.0,0.0,0.0,0.0,0.0,0.0,0.0,0.0,0.0,0.0,0.0,0.0,0.0,0.0,0.0,0.0,0.0,0.0,0.0,0.0,0.0,0.0,0.0,0.0,0.0,0.0,1.145,1.1636,1.1488,0.0,0.0,0.0,0.0,0.0,0.0,0.0,0.0,0.0,0.0,1.4006,1.4013,1.4006,0.0,0.0,1.3435,1.3316,1.2894,1.2842,1.2842,1.2824,1.3164,0.0,0.0,0.0,0.0,0.0,0.0,0.0,0.0,0.0,0.0,0.0,0.0,0.0,0.0,0.0,0.0,0.0,0.0,0.0,0.0,0.0,0.0,0.0,0.0,0.0,0.0,0.0,0.0,0.0,0.0,0.0,0.0,0.0,0.0,0.0,0.0,0.0,0.0,0.0,0.0,0.0,0.0,0.0,0.0,0.0,0.0,0.0,0.0,0.0,0.0,0.0,0.0,0.5957,0.5957,0.6276,0.646,0.6556,0.6563,0.659,0.6695,0.6722,0.6881,0.0,0.0,0.0,0.0,0.0,0.0,0.0,0.0,0.0,0.0,0.0,0.0,0.0,0.0,0.0,0.0,0.0,0.0,0.0,0.0,0.0,0.0,0.0,0.0,0.0,0.0,0.0,0.0,1.1296,1.1256,1.1136,0.0,0.0,0.0,0.0,0.0,0.0,0.0,0.0,0.0,0.0,1.3309,1.341,1.3436,1.3221,1.2653,1.3063,1.3204,1.2562,1.2358,1.2305,1.2305,0.0,0.0,0.0,0.0,0.0,0.0,0.0,0.0,0.0,0.0,0.0,0.0,0.0,0.0,0.0,0.0,0.0,0.0,0.0,0.0,0.0,0.0,0.0,0.0,0.0,0.0,0.0,0.0,0.0,0.0,0.2706,0.0,0.0,0.0,0.0,0.0,0.0,0.0,0.0,0.0,0.0,0.0,0.0,0.0,0.0,0.0,0.0,0.0,0.0,0.0,0.0,0.0,0.0,0.6225,0.627,0.6468,0.6667,0.6674,0.6678,0.6702,0.6709,0.6705,0.6651,0.6558,0.0,0.0,0.0,0.0,0.0,0.0,0.0,0.0,0.0,0.0,0.0,0.0,0.0,0.0,0.0,0.0,0.0,0.0,0.0,0.0,0.0,0.0,0.0,0.0,0.0,0.0,1.0949,1.0999,1.1056,0.0,0.0,0.0,0.0,0.0,0.0,0.0,0.0,0.0,0.0,1.2335,1.2461,1.2794,1.2815,1.2935,1.3133,1.2984,1.2815,1.2789,1.2524,1.2305,0.0,0.0,0.0,0.0,0.0,0.0,0.0,0.0,0.0,0.0,0.0,0.0,0.0,0.0,0.0,0.0,0.0,0.0,0.0,0.0,0.0,0.0,0.0,0.0,0.0,0.0,0.0,0.0908,0.0908,0.0,0.0,0.0,0.0,0.0,0.0,0.0,0.0,0.0,0.0,0.0,0.2995,0.234,0.0,0.0,0.0,0.0,0.0,0.0,0.0,0.0,0.0,0.0,0.0,0.0,0.4049,0.4075,0.5014,0.5548,0.5663,0.6417,0.6874,0.6947,0.6968,0.6901,0.6759,0.0,0.0,0.0,0.0,0.0,0.0,0.0,0.0,0.0,0.0,0.0,0.0,0.0,0.0,0.0,0.0,0.0,0.0,0.0,0.0,0.0,0.0,0.0,0.0,0.0,1.0276,0.0,0.0,0.0,0.0,0.0,0.0,0.0,0.0,0.0,0.0,0.0,1.1526,1.2502,1.263,1.2731,1.3032,1.3072,1.3113,0.0,0.0,0.0,0.0,0.0,0.0,0.0,0.0,0.0,0.0,0.0,0.0,0.0,0.0,1.1993,1.2004,1.1993,1.2011,1.1986,0.0,0.0,0.0,0.0,0.0,0.0,0.0,0.0,0.0,0.0,0.0,0.0,0.0,0.0,-0.1072,0.0,-0.1027,0.0,0.0,0.0,0.0,0.0,0.0,0.0,0.0,0.1301,0.1404,0.1985,0.1346,0.1376,0.0,0.2019,0.1933,0.0,0.0,0.0,0.0,0.0,0.0,0.0,0.0,0.3064,0.3069,0.3975,0.4505,0.4607,0.5752,0.6408,0.6514,0.6896,0.7073,0.696,0.6763,0.663,0.0,0.0,0.0,0.0,0.0,0.0,0.0,0.0,0.0,0.0,0.0,0.0,0.0,0.0,0.0,0.0,0.0,0.0,0.0,0.0,0.0,0.0,0.0,0.9524,0.0,0.0,0.0,0.0,0.0,0.0,0.0,0.0,0.0,1.127,1.0834,1.0678,1.1544,1.2067,1.2446,1.2714,0.0,0.0,0.0,0.0,0.0,0.0,0.0,1.3206,1.3206,1.3206,1.3146,1.2959,1.2765,1.2619,1.26,0.0,0.0,1.2338,1.2305,1.2305,1.2305,1.2305,1.2305,1.2305,1.2403,1.2477,0.0,0.0,0.0,0.0,0.0,0.0,0.0,0.0,-0.3076,-0.3058,0.0,-0.2908,0.0,0.0,0.0,0.0,0.0,-0.1625,0.0,0.0,-0.0145,-0.0105,-0.0126,-0.0148,-0.0127,-0.0127,-0.0127,-0.0084,0.0042,0.1808,0.0,0.0,0.0,0.0,0.0,0.0,0.327,0.3159,0.3397,0.3523,0.3568,0.473,0.5378,0.5447,0.6448,0.7048,0.7092,0.6982,0.6911,0.6901,0.6644,0.0,0.0,0.0,0.0,0.0,0.0,0.0,0.0,0.0,0.0,0.0,0.0,0.0,0.0,0.0,0.0,0.0,0.0,0.0,0.0,0.8762,0.0,0.0,0.0,0.0,0.0,0.0,0.0,0.0,0.0,0.0,1.0453,0.997,0.9463,0.9561,0.0,0.0,0.0,0.0,1.361,1.3887,1.371,1.349,1.347,1.3259,1.3108,1.3108,0.0,0.0,1.3141,1.3147,1.3107,1.3187,1.3173,1.3026,1.2452,1.2371,1.2365,1.2358,1.2353,1.2345,1.2358,1.2611,1.2797,-0.4965,0.0,0.0,0.0,0.0,-0.3408,-0.3423,-0.3444,-0.3465,-0.3465,-0.3463,-0.3419,0.0,0.0,0.0,0.0,0.0,0.0,-0.2873,-0.2572,-0.257,-0.2622,-0.2723,-0.2722,-0.2765,-0.2851,-0.2763,-0.2269,-0.1416,-0.0791,-0.0043,0.0764,0.0,0.0,0.0,0.0,0.0977,0.1001,0.186,0.2324,0.2303,0.3506,0.453,0.5383,0.5714,0.6273,0.7073,0.7055,0.7009,0.6889,0.6826,0.0,0.0,0.0,0.0,0.0,0.0,0.0,0.0,0.0,0.0,0.0,0.0,0.0,0.0,0.0,0.0,0.0,0.0,0.0,0.8255,0.7593,0.7153,0.0,0.0,0.0,0.0,0.0,0.0,0.0,0.0,0.0,0.8769,0.8714,0.8925,0.0,0.0,1.0663,1.0932,1.1246,1.1502,1.1579,1.153,0.0,1.1459,1.1382,1.1338,1.1338,1.1175,1.1333,1.2133,1.2124,1.2247,1.3035,1.3206,1.3127,1.2999,1.2953,1.2914,1.2953,1.2946,1.2946,1.2959,1.3007,1.3073,-0.7992,-0.6615,-0.5352,-0.4846,-0.4905,-0.4859,-0.4892,-0.4992,-0.4992,-0.4994,-0.4989,-0.4946,-0.4907,-0.491,-0.4887,0.0,0.0,0.0,-0.4172,-0.3763,-0.3764,-0.3794,-0.3885,-0.3868,-0.3915,-0.4009,-0.3916,-0.3497,-0.2801,-0.272,-0.2309,-0.1548,0.0,0.0,0.0,0.0,0.0,0.0,0.0699,0.107,0.1101,0.225,0.3467,0.4621,0.4665,0.4999,0.5664,0.5708,0.5676,0.5589,0.5974,0.6129,0.0,0.0,0.0,0.0,0.0,0.0,0.0,0.0,0.0,0.0,0.0,0.7567,0.7714,0.0,0.0,0.0,0.7867,0.7831,0.752,0.6941,0.0,0.0,0.0,0.0,0.0,0.0,0.0,0.7676,0.7229,0.7108,0.7786,0.7937,0.8202,0.8888,0.9439,0.9845,1.0051,0.0,1.0802,1.0802,1.078,1.0807,1.078,1.0807,1.0785,1.0807,1.0675,1.0763,1.1419,1.1454,1.1605,1.2166,1.2376,1.2376,1.2355,1.274,1.3151,1.318,1.3206,1.3206,1.3206,1.328,1.336,-1.1587,-1.1349,-0.8387,-0.7162,-0.7092,-0.6975,-0.699,-0.7151,-0.7129,-0.7129,-0.7125,-0.7016,-0.6962,-0.694,-0.6962,0.0,-0.557,-0.5704,-0.5241,-0.4273,-0.4297,-0.43,-0.4304,-0.433,-0.4284,-0.434,-0.4308,-0.4235,-0.4162,-0.4156,-0.4084,-0.3936,-0.1537,-0.0271,-0.0158,0.0,-0.0114,0.0,0.0,0.0,0.0,0.1075,0.2243,0.3403,0.3468,0.351,0.3614,0.3614,0.3592,0.3635,0.4487,0.5004,0.5023,0.0,0.0,0.0,0.0,0.0,0.0,0.0,0.0,0.0,0.0,0.0,0.0,0.0,0.0,0.6722,0.6722,0.0,0.6719,0.6719,0.0,0.0,0.0,0.6769,0.6911,0.6809,0.6858,0.7082,0.0,0.0,0.7396,0.7536,0.7502,0.7183,0.8211,0.9013,0.9159,1.0039,1.0813,1.0646,1.078,1.0785,1.054,1.0591,1.0568,1.0568,1.0813,1.0729,1.0884,1.0912,1.0954,1.1166,1.112,1.1151,1.112,1.2071,1.2882,1.2935,1.3206,1.3387,1.3447,1.3607,1.376,-1.2494,-1.2433,-1.1565,-1.0289,-0.8896,-0.8847,-0.8322,-0.7512,-0.7489,-0.7492,-0.7465,-0.7432,-0.7418,-0.7415,-0.7441,-0.7296,-0.7071,-0.713,-0.6995,-0.6764,-0.6764,-0.6792,-0.6882,-0.6906,-0.694,-0.7054,-0.6958,-0.6425,-0.555,-0.5422,-0.4909,-0.4009,-0.3365,-0.2531,-0.1573,-0.1526,-0.1036,0.0,0.0,0.0,0.0,0.0285,0.1006,0.2177,0.2243,0.2657,0.3551,0.3592,0.3592,0.3592,0.3818,0.3964,0.3984,0.4925,0.0,0.0,0.0,0.0,0.0,0.0,0.0,0.0,0.0,0.6556,0.6688,0.0,0.6722,0.0,0.6722,0.6746,0.684,0.685,0.0,0.0,0.7016,0.7004,0.7041,0.7163,0.7263,0.7305,0.7417,0.7502,0.7539,0.7577,0.759,0.7641,0.7818,0.7973,0.8013,0.82,0.843,0.8508,0.8535,0.843,0.8508,0.8426,0.8481,0.845,0.8454,0.873,0.9602,0.9714,1.0033,1.0877,1.1107,1.1107,1.1048,1.1382,1.1536,1.172,1.3153,1.4571,1.4571,1.4589,1.4636,-1.4521,-1.454,-1.447,-1.3349,-1.1583,-1.1092,-1.0453,-0.9743,-0.9743,-0.9653,-0.9479,-0.8855,-0.8559,-0.8547,-0.8027,-0.7797,-0.778,-0.7933,-0.8019,-0.7991,-0.7994,-0.8035,-0.8109,-0.8109,-0.8153,-0.8206,-0.815,-0.778,-0.7142,-0.7046,-0.6635,-0.5917,-0.592,-0.5207,-0.3825,-0.3189,-0.2506,-0.1783,-0.1192,-0.0608,0.0,0.0,0.0335,0.0984,0.1007,0.1327,0.1976,0.2003,0.1994,0.2017,0.2515,0.2793,0.2812,0.3818,0.4186,0.0,0.0,0.0,0.0,0.0,0.0,0.0,0.0,0.0,0.0,0.0,0.5317,0.532,0.532,0.5346,0.5434,0.5924,0.6286,0.6415,0.6902,0.7268,0.7313,0.7417,0.7495,0.7498,0.7627,0.7695,0.7695,0.7729,0.7797,0.7878,0.782,0.7773,0.777,0.7773,0.777,0.7773,0.777,0.777,0.777,0.7794,0.7773,0.777,0.7797,0.8007,0.8621,0.8717,0.8973,0.9561,0.9728,0.9704,0.9752,1.0247,1.0603,1.0863,1.2211,1.3587,1.4043,1.4591,1.4889,-1.682,-1.682,-1.6814,-1.6003,-1.4656,-1.3657,-1.2891,-1.2338,-1.2338,-1.2197,-1.1907,-1.0704,-1.0178,-1.0118,-0.9065,-0.8614,-0.8632,-0.8748,-0.8793,-0.8767,-0.8587,-0.8509,-0.8509,-0.8509,-0.8509,-0.8509,-0.8509,-0.8509,-0.8509,-0.8509,-0.8418,-0.8328,-0.8321,-0.7664,-0.6321,-0.5167,-0.4387,-0.3999,-0.2668,-0.1424,-0.0271,-0.0074,0.0,0.0,0.0,0.0,0.0,0.0,0.0,0.0,0.1003,0.1555,0.1595,0.2714,0.3291,0.0,0.3436,0.0,0.0,0.0,0.0,0.0,0.0,0.0,0.0,0.3592,0.3595,0.3606,0.3606,0.3611,0.3599,0.4544,0.5215,0.5351,0.6265,0.6983,0.7054,0.7254,0.7365,0.7365,0.763,0.7817,0.782,0.7932,0.7988,0.7978,0.7971,0.7986,0.8006,0.7971,0.7989,0.7988,0.7988,0.7951,0.7961,0.7971,0.7975,0.7978,0.7993,0.7988,0.8021,0.8049,0.8031,0.8053,0.8138,0.8099,0.7988,0.8987,0.9694,0.9727,1.0791,1.1937,1.2754,1.3674,1.4161,-1.7448,-1.7415,-1.7415,-1.7251,-1.6958,-1.6743,-1.4883,-1.1986,-1.1986,-1.2111,-1.2298,-1.2259,-1.2238,-1.2218,-1.2004,-1.1891,-1.1824,-1.0768,-1.0283,-1.0231,-0.9052,-0.8509,-0.8509,-0.8509,-0.8509,-0.8509,-0.8509,-0.8509,-0.8509,-0.8509,-0.8495,-0.8442,-0.8471,-0.832,-0.8027,0.0,0.0,0.0,-0.2685,-0.1884,-0.1603,-0.0552,0.0,0.0,0.0,0.0,0.0,0.0,0.0,0.0,0.0213,0.0,0.0,0.0,0.0,0.0,0.0,0.0,0.0,0.0,0.0,0.0,0.1791,0.2793,0.3525,0.3592,0.3595,0.3609,0.3593,0.3595,0.3607,0.38,0.3948,0.4009,0.4176,0.4322,0.4413,0.5413,0.6141,0.6144,0.7186,0.7944,0.7895,0.8,0.7988,0.7988,0.7988,0.7988,0.802,0.7992,0.7988,0.7988,0.7988,0.7988,0.7988,0.7988,0.7988,0.7988,0.7988,0.7988,0.7988,0.7988,0.7988,0.7988,0.7988,0.7988,0.7988,0.8237,0.8453,0.8382,0.946,1.0731,1.1863,1.2299,1.2424,-1.7615,0.0,-1.7615,-1.7521,0.0,-1.7394,-1.6221,-1.4278,-1.4426,-1.4535,-1.4496,-1.3982,-1.3778,-1.3753,-1.3007,-1.2705,-1.2648,-1.1878,-1.1624,-1.1696,-1.0967,-1.0703,-1.0875,-1.0871,-1.0506,-0.9793,-0.9793,-0.9425,-0.8733,-0.871,-0.8669,-0.8594,-0.8598,-0.8557,-0.8512,-0.8509,-0.7399,-0.5164,-0.4478,-0.3751,-0.2967,-0.1661,-0.0979,-0.097,-0.0348,0.0,0.0,0.0,0.0,0.0,0.0,0.0,0.0,0.0587,0.0,0.007,0.1131,0.1286,0.0183,0.1148,0.131,0.0114,0.0551,0.1172,0.1795,0.181,0.1829,0.1823,0.1826,0.1833,0.1827,0.2352,0.2742,0.2814,0.3346,0.372,0.3851,0.4453,0.4899,0.5051,0.6165,0.7008,0.7008,0.764,0.7963,0.7988,0.7988,0.8022,0.8104,0.806,0.7988,0.7988,0.7988,0.7988,0.7988,0.7988,0.7992,0.7988,0.7988,0.7988,0.7988,0.7988,0.7988,0.7988,0.7988,0.7988,0.7988,0.7988,0.7988,0.8038,0.8556,0.9167,0.9948,1.0999,1.1702,-1.8323,-1.8297,-1.8042,-1.7826,-1.7608,-1.7376,-1.7113,-1.6874,0.0,0.0,0.0,-1.5745,-1.5299,-1.5191,-1.4028,-1.3488,-1.3462,-1.3081,-1.3054,-1.3251,-1.2991,-1.3034,-1.3291,-1.3291,-1.2674,-1.1538,-1.1487,-1.0891,-0.9699,-0.9399,-0.9225,-0.9109,-0.8855,-0.8659,-0.857,-0.856,-0.7954,-0.6777,-0.6463,-0.5702,-0.4417,-0.308,-0.2371,-0.2364,-0.1285,-0.0605,-0.0353,-0.0571,-0.0493,-0.0025,-0.0218,-0.024,0.0,0.0,0.0,0.0,0.0,0.0,0.0,0.0,0.0,0.0,0.0,0.0,0.0,0.0,0.0,0.0,0.0,0.0,0.0,0.0866,0.1524,0.1645,0.2531,0.3165,0.3282,0.3553,0.3635,0.3786,0.4838,0.5659,0.5664,0.6505,0.7431,0.7613,0.7607,0.7901,0.8207,0.8211,0.8118,0.8121,0.8131,0.8111,0.8098,0.8111,0.8094,0.8118,0.8108,0.8091,0.8094,0.8094,0.8081,0.8067,0.8032,0.8047,0.7998,0.7988,0.7988,0.7988,0.7988,0.7988,0.8184,0.9678,1.0705,-2.1118,-2.1016,-1.9826,-1.9302,-1.918,-1.8039,-1.7521,-1.7468,-1.7293,-1.7153,-1.7127,-1.7192,-1.7213,-1.7187,-1.6977,-1.6892,-1.6806,-1.5576,-1.5005,-1.4959,-1.3783,-1.3261,-1.3291,-1.3291,-1.3183,-1.2999,-1.2994,-1.2886,-1.2566,-1.1401,-1.0792,-1.0612,-0.9504,-0.8893,-0.8848,-0.8845,-0.8689,-0.8351,-0.7105,-0.6331,-0.5965,-0.4601,-0.3827,-0.3718,-0.3516,-0.289,-0.1787,-0.2807,-0.2379,-0.0176,-0.1102,-0.1216,0.0,0.0,0.0,0.0,0.0,0.0,0.0,0.0,0.0,0.0,0.0,0.0,0.0,0.0,0.0,0.0,0.0,0.0,0.0,0.0,0.0,0.0,0.0,0.0,0.0,0.1661,0.2293,0.2318,0.3445,0.4283,0.4302,0.4542,0.527,0.6198,0.6498,0.6919,0.788,0.8461,0.8421,0.8421,0.8421,0.8421,0.8413,0.844,0.8394,0.8421,0.8427,0.841,0.841,0.8384,0.8376,0.8258,0.8238,0.8191,0.8064,0.7988,0.8015,0.8022,0.8019,0.803,0.803,0.8514,0.8627,-2.1917,-2.1532,-2.0179,-1.9602,-1.9498,-1.8173,-1.7615,-1.7595,-1.7468,-1.7414,-1.7421,-1.7555,-1.7615,-1.7595,-1.7441,-1.7374,-1.7341,-1.6491,-1.6212,-1.6325,-1.5717,-1.5499,-1.563,-1.5642,-1.523,-1.4508,-1.4449,-1.4046,-1.3291,-1.2593,-1.2295,-1.2186,-1.0809,-1.0107,-1.0053,-0.9292,-0.8875,-0.878,-0.8058,-0.7625,-0.7489,-0.6151,-0.5397,-0.5251,-0.4536,-0.3804,-0.3116,-0.3665,-0.344,-0.2213,-0.2764,-0.2804,-0.2211,-0.216,-0.1831,-0.1155,-0.108,-0.0758,-0.0048,0.0,0.0,0.0,0.0,0.0,0.0,0.0,0.0,0.0,0.0,0.0,0.0,0.0,0.0,0.0,0.0,0.0,0.0,0.0471,0.0894,0.1026,0.2088,0.2894,0.2921,0.3529,0.4187,0.4958,0.5098,0.5482,0.6129,0.6288,0.6902,0.8147,0.8509,0.8509,0.8486,0.8509,0.8509,0.8509,0.8509,0.8509,0.8509,0.8512,0.8481,0.8427,0.8413,0.8386,0.8279,0.8282,0.8253,0.8246,0.8208,0.8174,0.816,0.8081,0.8017,-2.3186,-2.2766,-2.1377,-2.0579,-2.0121,-1.9102,-1.8445,-1.8075,-1.8068,-1.7865,-1.7608,-1.7615,-1.7615,-1.7562,-1.74,-1.73,-1.724,-1.7033,-1.7027,-1.728,-1.73,-1.742,-1.7588,-1.7615,-1.6982,-1.5982,-1.5902,-1.531,-1.4347,-1.3938,-1.3583,-1.321,-1.2132,-1.1592,-1.1592,-1.0131,-0.9399,-0.9364,-0.8954,-0.8686,-0.8514,-0.7519,-0.6926,-0.6732,-0.5761,-0.4974,-0.4603,-0.4834,-0.4698,-0.4115,-0.4302,-0.4318,-0.4016,-0.3991,-0.354,-0.2565,-0.244,-0.2025,-0.1012,-0.0617,-0.0448,-0.0456,-0.0178,0.0,0.0,0.0,0.0,0.0,0.0,0.0,0.0,0.0,0.0,0.0,0.0,0.0,0.0,0.0,0.0,0.0,0.0914,0.1562,0.1748,0.2445,0.3146,0.3503,0.3966,0.4242,0.4279,0.4408,0.5454,0.688,0.7857,0.8006,0.8099,0.8435,0.8574,0.8584,0.8598,0.8615,0.8638,0.8624,0.859,0.858,0.8533,0.8506,0.8515,0.8498,0.8488,0.8471,0.84,0.8345,0.8335,0.8241,0.8108,-2.6497,-2.6305,-2.491,-2.3548,-2.2049,-2.1851,-2.087,-1.9543,-1.9428,-1.8708,-1.7832,-1.7615,-1.7635,-1.7608,-1.7549,-1.7555,-1.7555,-1.7535,-1.7502,-1.7548,-1.7568,-1.7582,-1.7608,-1.7615,-1.7529,-1.7364,-1.7338,-1.718,-1.6876,-1.5796,-1.4577,-1.3453,-1.3156,-1.3102,-1.2913,-1.1651,-1.0891,-1.0863,-0.9578,-0.8814,-0.8703,-0.8551,-0.8428,-0.8305,-0.8171,-0.7529,-0.6341,-0.7328,-0.6748,-0.4525,-0.5273,-0.5277,-0.4246,-0.4042,-0.3967,-0.3845,-0.3819,-0.3737,-0.3534,-0.2507,-0.1823,-0.1725,-0.0724,0.0,0.0,0.0,0.0,0.0,0.0,0.0,0.0,0.0,0.0,0.0,0.0,0.0,0.0,0.0,0.0,0.0,0.0,0.0,0.0,0.0,0.1056,0.2186,0.3214,0.389,0.3921,0.3984,0.4078,0.4917,0.5886,0.6711,0.6927,0.803,0.8383,0.8619,0.8776,0.8749,0.8736,0.8821,0.8828,0.871,0.8689,0.8648,0.8583,0.8512,0.8506,0.857,0.8532,0.8488,0.8488,0.8454,0.8393,-2.7246,-2.6849,-2.5557,-2.4088,-2.2745,-2.2666,-2.2233,-2.1562,-2.1294,-2.0877,-2.0247,-1.9256,-1.8349,-1.7615,-1.7615,-1.7615,-1.7615,-1.7615,-1.7615,-1.7615,-1.7615,-1.7615,-1.7615,-1.7615,-1.7615,-1.7615,-1.7615,-1.7615,-1.7503,-1.6982,-1.6387,-1.5796,-1.5011,-1.4529,-1.4422,-1.3129,-1.1996,-1.1137,-1.1378,-1.0635,-0.9044,-0.8818,-0.8743,-0.8635,-0.8618,-0.8355,-0.7799,-0.8183,-0.7894,-0.6862,-0.7211,-0.7236,-0.6684,-0.6661,-0.6298,-0.5547,-0.4721,-0.4281,-0.4307,-0.3789,-0.349,-0.3489,-0.213,-0.1294,-0.1251,-0.0511,0.0,0.0,0.0,0.0,0.0,0.0,0.0,0.0,0.0,0.0,0.0,0.0,0.0,0.0,0.0,0.0,0.0,0.0,0.0,0.084,0.0,0.0,0.0,0.1847,0.1847,0.2042,0.3073,0.4355,0.5194,0.5808,0.6644,0.7343,0.7595,0.7734,0.8629,0.8881,0.8882,0.8794,0.8808,0.8791,0.8754,0.8754,0.8727,0.8703,0.8648,0.8594,0.8529,0.8509,0.8502,-2.7656,-2.7227,-2.6302,-2.5266,-2.4236,-2.421,-2.3664,-2.2857,-2.2521,-2.1994,-2.1135,-1.985,-1.88,-1.7916,-1.7669,-1.7615,-1.7615,-1.7615,-1.7615,-1.7615,-1.7615,-1.7615,-1.7615,-1.7615,-1.7615,-1.7615,-1.7615,-1.7615,-1.7615,-1.7615,-1.7615,-1.7424,-1.6525,-1.6009,-1.5876,-1.4583,-1.3372,-1.2453,-1.3021,-1.205,-0.9911,-0.9888,-0.9694,-0.8866,-0.8747,-0.872,-0.8615,-0.8567,-0.8547,-0.857,-0.8536,-0.8509,-0.8509,-0.8509,-0.8056,-0.713,-0.615,-0.562,-0.5593,-0.525,-0.5051,-0.4938,-0.3663,-0.2816,-0.2644,-0.1856,-0.1073,0.0,-0.0599,0.0,0.0,0.0,0.0,0.0,0.0,0.0,0.0,0.0,0.0,0.0,0.0,0.0,0.0,0.0,0.0,0.0,0.0,0.0,0.0,0.0,0.0,0.0,0.0,0.2153,0.3576,0.4498,0.4999,0.5586,0.6116,0.645,0.7623,0.7848,0.8266,0.7867,0.845,0.8871,0.8855,0.8879,0.8899,0.8889,0.8814,0.8706,0.8672,0.8621,0.8655,-2.8252,-2.8213,-2.8143,-2.7757,-2.7444,-2.7365,-2.5648,-2.3108,-2.2873,-2.1348,-1.9346,-1.883,-1.8575,-1.8453,-1.7943,-1.7622,-1.7622,-1.7622,-1.7615,-1.7615,-1.7615,-1.7615,-1.7615,-1.7615,-1.7615,-1.7615,-1.7615,-1.7615,-1.7615,-1.7615,-1.7615,-1.7589,-1.7424,-1.7424,-1.7206,-1.5988,-1.5284,-1.485,-1.4073,-1.2647,-1.1406,-1.2349,-1.1697,-0.9326,-0.8923,-0.8965,-0.8862,-0.8747,-0.8699,-0.8699,-0.8604,-0.8522,-0.8519,-0.8519,-0.8447,-0.8338,-0.8282,-0.823,-0.8049,-0.7073,-0.6446,-0.6258,-0.5193,-0.4409,-0.4376,-0.406,-0.3369,-0.2231,-0.1975,-0.1448,0.0,0.0,0.0,0.0,0.0,0.0,0.0,0.0,0.0,0.0,0.0,0.0,0.0,0.0,0.0,0.0,0.0,0.0,0.0,0.0,0.0,0.0,0.0,0.0616,0.2069,0.2935,0.3913,0.4554,0.4608,0.4749,0.5168,0.5669,0.6339,0.7008,0.7623,0.818,0.8685,0.8909,0.8909,0.8902,0.8902,0.8835,0.8784,0.8858,0.8865,-2.8301,-2.8301,-2.8301,-2.8203,-2.8103,-2.8093,-2.7393,-2.63,-2.6014,-2.4792,-2.2938,-2.1708,-2.0668,-1.9715,-1.866,-1.8056,-1.7849,-1.7675,-1.7615,-1.7615,-1.7615,-1.7615,-1.7615,-1.7615,-1.7615,-1.7615,-1.7615,-1.7615,-1.7615,-1.7615,-1.7615,-1.7615,-1.7615,-1.7615,-1.7503,-1.7094,-1.6387,-1.5524,-1.5743,-1.4904,-1.2837,-1.3911,-1.3264,-1.0539,-1.0296,-0.986,-0.8937,-0.8858,-0.8831,-0.8828,-0.8774,-0.8747,-0.8747,-0.8774,-0.8747,-0.8747,-0.8747,-0.8747,-0.8693,-0.8333,-0.8053,-0.7932,-0.6724,-0.5904,-0.5744,-0.5057,-0.4246,-0.366,-0.2711,-0.1929,-0.1398,-0.0588,0.0,0.0,0.0,0.0,0.0,0.0,0.0,0.0,0.0,0.0,0.0,0.0,0.0,0.0,0.0,0.0,0.0,0.0,0.0,0.0,0.0,0.0168,0.0588,0.112,0.1791,0.2655,0.3129,0.3716,0.419,0.4609,0.5222,0.5333,0.6114,0.6785,0.7146,0.8042,0.8208,0.8688,0.8688,0.8629,0.8909,0.8909,0.8909,-2.8301,-2.8301,-2.8301,-2.8301,-2.8301,-2.8301,-2.804,-2.7617,-2.7296,-2.6319,-2.4823,-2.3574,-2.2227,-2.0871,-1.9771,-1.8933,-1.8303,-1.8016,-1.7903,-1.7869,-1.7776,-1.7736,-1.7716,-1.7629,-1.7615,-1.7615,-1.7615,-1.7615,-1.7615,-1.7615,-1.7615,-1.7615,-1.7615,-1.7615,-1.7615,-1.7615,-1.7067,-1.6466,-1.712,-1.6366,-1.4427,-1.5396,-1.4716,-1.2295,-1.181,-1.0863,-0.902,-0.8909,-0.8909,-0.8909,-0.8909,-0.8909,-0.8909,-0.8909,-0.8909,-0.8909,-0.8906,-0.8909,-0.8909,-0.8909,-0.8909,-0.8881,-0.8042,-0.7399,-0.7343,-0.6505,-0.5808,-0.5139,-0.4355,-0.3546,-0.2766,-0.1623,-0.0532,0.0,0.0,0.0,0.0,0.0,0.0,0.0,0.0,0.0,0.0,0.0,0.0,0.0,0.0,0.0,0.0,0.0,0.0,0.0,0.0,0.0,0.0,0.0,0.0,0.0,0.0,0.0,0.2935,0.3409,0.3772,0.3827,0.4273,0.4972,0.5808,0.6811,0.7509,0.8014,0.8072,0.7903,0.8377,0.8909,0.8909,-2.8301,-2.8301,-2.8301,-2.8301,-2.8301,-2.8301,-2.7511,-2.6563,-2.6354,-2.5646,-2.4376,-2.3903,-2.3122,-2.1777,-2.1121,-2.0243,-1.9191,-1.8709,-1.845,-1.8384,-1.8129,-1.8022,-1.8002,-1.7802,-1.7689,-1.7662,-1.7635,-1.7622,-1.7615,-1.7615,-1.7615,-1.7615,-1.7615,-1.7615,-1.7615,-1.7615,-1.7582,-1.7477,-1.7556,-1.6849,-1.5769,-1.6744,-1.6095,-1.3642,-1.3297,-1.2023,-0.9289,-0.8992,-0.8909,-0.8909,-0.8909,-0.8909,-0.8909,-0.8909,-0.8909,-0.8909,-0.8909,-0.8909,-0.8909,-0.8909,-0.8909,-0.8881,-0.883,-0.8657,-0.8574,-0.8519,-0.7986,-0.6952,-0.6394,-0.5919,-0.4498,-0.313,-0.1706,0.0,0.0,0.0,0.0,0.0,0.0,0.0,0.0,0.0,0.0,0.0,0.0,0.0,0.0,0.0,0.0,0.0,0.0,0.0,0.0,0.0,0.0,0.0,0.0,0.0,0.0,0.0,0.0,0.1623,0.2097,0.232,0.3353,0.4023,0.4273,0.522,0.5892,0.6366,0.6619,0.7232,0.7845,0.8377,0.8826,-2.8301,-2.8301,-2.8301,-2.8301,-2.8301,-2.8301,-2.8014,-2.7609,-2.7618,-2.6771,-2.5572,-2.538,-2.4544,-2.3107,-2.1994,-2.1203,-2.0679,-1.967,-1.8913,-1.8593,-1.8397,-1.835,-1.8337,-1.825,-1.8103,-1.7902,-1.7876,-1.7789,-1.7655,-1.7628,-1.7615,-1.7615,-1.7615,-1.7615,-1.7615,-1.7615,-1.7615,-1.7615,-1.7615,-1.7338,-1.6955,-1.7364,-1.6658,-1.5011,-1.4743,-1.3804,-1.1969,-0.9998,-0.8964,-0.8964,-0.8909,-0.8909,-0.8909,-0.8909,-0.8909,-0.8909,-0.8909,-0.8909,-0.8909,-0.8909,-0.8909,-0.8909,-0.8909,-0.8909,-0.8909,-0.8909,-0.8685,-0.8069,-0.7343,-0.6422,-0.5892,-0.4665,-0.3214,-0.165,0.0,0.0,0.0,0.0,0.0,0.0,0.0,0.0,0.0,0.0,0.0,0.0,0.0,0.0,0.0,0.0,0.0,0.0,0.0,0.0,0.0,0.0,0.0,0.0,0.0,0.0,0.0,0.0,0.0,0.1231,0.2237,0.2823,0.3074,0.3521,0.4162,0.5083,0.5753,0.645,0.7257,0.7817,0.8294,-2.8301,-2.8301,-2.8301,-2.8301,-2.8301,-2.8301,-2.8301,-2.8301,-2.8301,-2.7789,-2.7024,-2.6906,-2.6082,-2.471,-2.3674,-2.2955,-2.2315,-2.0895,-2.0025,-1.9528,-1.8845,-1.8651,-1.8631,-1.8531,-1.841,-1.8223,-1.8189,-1.8116,-1.7929,-1.7943,-1.7896,-1.7776,-1.7756,-1.7695,-1.7628,-1.7615,-1.7615,-1.7615,-1.7615,-1.7615,-1.7615,-1.7615,-1.7147,-1.628,-1.5689,-1.4957,-1.3938,-1.1751,-1.0268,-0.9726,-0.9237,-0.8937,-0.8909,-0.8909,-0.8909,-0.8909,-0.8909,-0.8909,-0.8909,-0.8909,-0.8909,-0.8909,-0.8909,-0.8909,-0.8909,-0.8909,-0.8909,-0.8712,-0.8125,-0.7512,-0.7315,-0.62,-0.4916,-0.3993,-0.2041,-0.07,0.0,0.0,0.0,0.0,0.0,0.0,0.0,0.0,0.0,0.0,0.0,0.0,0.0,0.0,0.0,0.0,0.0,0.0,0.0,0.0,0.0,0.0,0.0,0.0,0.0,0.0,0.0,0.0,0.1148,0.1288,0.1511,0.1903,0.2489,0.3576,0.4608,0.5359,0.6028,0.7174,0.7817,-2.8301,-2.8301,-2.8301,-2.8301,-2.8301,-2.8301,-2.8301,-2.8301,-2.8301,-2.8237,-2.8174,-2.8067,-2.733,-2.6236,-2.5398,-2.448,-2.3543,-2.1784,-2.0987,-2.0587,-1.9707,-1.8951,-1.8918,-1.8744,-1.8611,-1.8524,-1.8517,-1.8484,-1.8384,-1.839,-1.8323,-1.8069,-1.8029,-1.7916,-1.7762,-1.7675,-1.7649,-1.7682,-1.7635,-1.7615,-1.7615,-1.7615,-1.7556,-1.7424,-1.6333,-1.5636,-1.5337,-1.3992,-1.2539,-1.116,-0.9644,-0.8909,-0.8909,-0.8909,-0.8909,-0.8909,-0.8909,-0.8909,-0.8909,-0.8909,-0.8909,-0.8909,-0.8909,-0.8909,-0.8909,-0.8909,-0.8909,-0.8909,-0.8771,-0.8771,-0.8491,-0.7623,-0.6702,-0.6114,-0.3518,-0.1538,0.0,0.0,0.0,0.0,0.0,0.0,0.0,0.0,0.0,0.0,0.0,0.0,0.0,0.0,0.0,0.0,0.0,0.0,0.0,0.0,0.0,0.0,0.0,0.0,0.0,0.0,0.0,0.0,0.0,0.0,0.0,0.0,0.0,0.1958,0.2933,0.3854,0.5053,0.6308,0.7595,-2.8301,-2.8301,-2.8301,-2.8301,-2.8301,-2.8301,-2.8301,-2.8301,-2.8301,-2.8301,-2.8301,-2.8301,-2.7501,-2.61,-2.4931,-2.3599,-2.2371,-2.0788,-1.9975,-1.9917,-1.9581,-1.9281,-1.9281,-1.9201,-1.9011,-1.8838,-1.8804,-1.8698,-1.851,-1.8537,-1.847,-1.8384,-1.837,-1.833,-1.8237,-1.7996,-1.7902,-1.7856,-1.7689,-1.7628,-1.7622,-1.7628,-1.7615,-1.7556,-1.718,-1.6988,-1.6876,-1.561,-1.3615,-1.1214,-0.9699,-0.8909,-0.8992,-0.8937,-0.8909,-0.8909,-0.8909,-0.8909,-0.8909,-0.8909,-0.8909,-0.8909,-0.8909,-0.8909,-0.8909,-0.8909,-0.8909,-0.8909,-0.8909,-0.8909,-0.8826,-0.8519,-0.7426,-0.525,-0.3491,-0.1734,0.0,0.0,0.0,0.0,0.0,0.0,0.0,0.0,0.0,0.0,0.0,0.0,0.0,0.0,0.0,0.0,0.0,0.0,0.0,0.0,0.0,0.0,0.0,0.0,0.0,0.0,0.0,0.0,0.0,0.0,0.0,0.0,0.0,0.0,0.165,0.2794,0.4413,0.5836,0.7288,-2.8301,-2.8301,-2.8301,-2.8301,-2.8301,-2.8301,-2.8301,-2.8301,-2.8301,-2.8301,-2.8301,-2.8301,-2.7833,-2.6916,-2.5462,-2.4378,-2.3291,-2.1287,-2.0393,-2.0227,-1.9722,-1.941,-1.9388,-1.9388,-1.9301,-1.9132,-1.9105,-1.9025,-1.8898,-1.8858,-1.8791,-1.8691,-1.8671,-1.8611,-1.8457,-1.8343,-1.8209,-1.8176,-1.8043,-1.7916,-1.7789,-1.7776,-1.7682,-1.7655,-1.7615,-1.7615,-1.7397,-1.6174,-1.4309,-1.224,-1.0703,-0.9836,-0.9754,-0.9182,-0.8937,-0.8909,-0.8909,-0.8909,-0.8909,-0.8909,-0.8909,-0.8909,-0.8909,-0.8909,-0.8909,-0.8909,-0.8909,-0.8909,-0.8909,-0.8909,-0.8909,-0.8909,-0.7789,-0.5892,-0.4078,-0.232,-0.028,0.0,0.0,0.0,0.0,0.0,0.0,0.0,0.0,0.0,0.0,0.0,0.0,0.0,0.0,0.0,0.0,0.0,0.0,0.0,0.0,0.0,0.0,0.0,0.0,0.0,0.0,0.0,0.0,0.0,0.0,0.0,0.0,0.0,0.0,0.2125,0.3883,0.5111,0.6616,-2.8301,-2.8301,-2.8301,-2.8301,-2.8301,-2.8301,-2.8301,-2.8301,-2.8301,-2.8301,-2.8301,-2.8301,-2.8031,-2.7977,-2.5964,-2.5572,-2.516,-2.2096,-2.1316,-2.0673,-2.0004,-1.9424,-1.9395,-1.9395,-1.9374,-1.9348,-1.9388,-1.9361,-1.9294,-1.9334,-1.9234,-1.9025,-1.8943,-1.8816,-1.8704,-1.8577,-1.8531,-1.8524,-1.843,-1.8283,-1.8096,-1.8056,-1.7989,-1.7849,-1.7729,-1.7668,-1.7331,-1.6393,-1.5097,-1.3863,-1.2109,-1.1055,-1.084,-0.9671,-0.8992,-0.8909,-0.8909,-0.8909,-0.8909,-0.8909,-0.8909,-0.8909,-0.8909,-0.8909,-0.8909,-0.8909,-0.8909,-0.8909,-0.8909,-0.8909,-0.8909,-0.8909,-0.8128,-0.6591,-0.5222,-0.3186,-0.1036,0.0,0.0,0.0,0.0,0.0,0.0,0.0,0.0,0.0,0.0,0.0,0.0,0.0,0.0,0.0,0.0,0.0,0.0,0.0,0.0,0.0,0.0,0.0,0.0,0.0,0.0,0.0,0.0,0.0,0.0,0.0,0.0,0.0,0.0,0.0,0.3634,0.4414,0.5639,-2.8301,-2.8301,-2.8301,-2.8301,-2.8301,-2.8301,-2.8301,-2.8301,-2.8301,-2.8301,-2.8301,-2.8301,-2.7672,-2.6599,-2.5187,-2.371,-2.2822,-2.0988,-1.9866,-1.9815,-1.9649,-1.9395,-1.9395,-1.9395,-1.9395,-1.9395,-1.9395,-1.9395,-1.9395,-1.9395,-1.9374,-1.9301,-1.9254,-1.9261,-1.9167,-1.8918,-1.8831,-1.8763,-1.8631,-1.8504,-1.8424,-1.839,-1.835,-1.823,-1.8056,-1.7816,-1.7629,-1.7312,-1.6988,-1.5876,-1.3399,-1.146,-1.1027,-0.9836,-0.9047,-0.8909,-0.8909,-0.8909,-0.8909,-0.8909,-0.8909,-0.8909,-0.8909,-0.8909,-0.8909,-0.8909,-0.8909,-0.8909,-0.8909,-0.8909,-0.8909,-0.8909,-0.8239,-0.6982,-0.553,-0.3913,-0.2069,0.0,0.0,0.0,0.0,0.0,0.0,0.0,0.0,0.0,0.0,0.0,0.0,0.0,0.0,0.0,0.0,0.0,0.0,0.0,0.0,0.0,0.0,0.0,0.0,0.0,0.0,0.0,0.0,0.0,0.0,0.0,0.0,0.0,0.0,0.0,0.3243,0.3911,0.5306,-2.8301,-2.8301,-2.8301,-2.8301,-2.8301,-2.8301,-2.8301,-2.8301,-2.8301,-2.8301,-2.8301,-2.8301,-2.7843,-2.6933,-2.4856,-2.3319,-2.2258,-2.0378,-1.9424,-1.9453,-1.9395,-1.9395,-1.9395,-1.9395,-1.9395,-1.9395,-1.9395,-1.9395,-1.9395,-1.9395,-1.9395,-1.9395,-1.9395,-1.9374,-1.9395,-1.9205,-1.9174,-1.9112,-1.8991,-1.8844,-1.8718,-1.8691,-1.8591,-1.8504,-1.8323,-1.8083,-1.7816,-1.7782,-1.7689,-1.6888,-1.477,-1.2751,-1.1969,-1.0726,-0.9699,-0.902,-0.8909,-0.8909,-0.8909,-0.8909,-0.8909,-0.8909,-0.8909,-0.8909,-0.8909,-0.8909,-0.8909,-0.8909,-0.8909,-0.8909,-0.8909,-0.8909,-0.8349,-0.7765,-0.6394,-0.4914,-0.3325,0.0,0.0,0.0,0.0,0.0,0.0,0.0,0.0,0.0,0.0,0.0,0.0,0.0,0.0,0.0,0.0,0.0,0.0,0.0,0.0,0.0,0.0,0.0,0.0,0.0,0.0,0.0,0.0,0.0,0.0,0.0,0.0,0.0,0.0,0.0,0.3102,0.4078,0.5836,-2.8301,-2.8301,-2.8301,-2.8301,-2.8301,-2.8301,-2.8301,-2.8301,-2.8301,-2.8301,-2.8301,-2.8301,-2.8211,-2.7655,-2.5471,-2.41,-2.2681,-2.0852,-1.9395,-1.9395,-1.9395,-1.9395,-1.9395,-1.9395,-1.9395,-1.9395,-1.9395,-1.9395,-1.9395,-1.9395,-1.9395,-1.9395,-1.9395,-1.9395,-1.9395,-1.9395,-1.9361,-1.9334,-1.9314,-1.9227,-1.9032,-1.8985,-1.8851,-1.8631,-1.8564,-1.8376,-1.8149,-1.8063,-1.7949,-1.7603,-1.6455,-1.5104,-1.3615,-1.1941,-1.0429,-0.9047,-0.8909,-0.8909,-0.8909,-0.8909,-0.8909,-0.8909,-0.8909,-0.8909,-0.8909,-0.8909,-0.8909,-0.8909,-0.8909,-0.8909,-0.8909,-0.8909,-0.8909,-0.8519,-0.7537,-0.6116,-0.4442,-0.1986,0.0,0.0,0.0,0.0,0.0,0.0,0.0,0.0,0.0,0.0,0.0,0.0,0.0,0.0,0.0,0.0,0.0,0.0,0.0,0.0,0.0,0.0,0.0,0.0,0.0,0.0,0.0,0.0,0.0,0.0,0.0,0.0,0.0,0.0,0.2796,0.4247,0.6225,-2.8301,-2.8301,-2.8301,-2.8301,-2.8301,-2.8301,-2.8301,-2.8301,-2.8301,-2.8301,-2.8301,-2.8301,-2.8301,-2.7789,-2.6599,-2.4425,-2.2202,-2.0263,-1.9395,-1.9395,-1.9395,-1.9395,-1.9395,-1.9395,-1.9395,-1.9395,-1.9395,-1.9395,-1.9395,-1.9395,-1.9395,-1.9395,-1.9395,-1.9395,-1.9395,-1.9395,-1.9395,-1.9395,-1.9395,-1.9341,-1.9301,-1.9232,-1.9132,-1.8878,-1.8851,-1.8698,-1.8484,-1.8397,-1.8277,-1.7955,-1.7693,-1.663,-1.4898,-1.2627,-1.0688,-0.9427,-0.8964,-0.8909,-0.8909,-0.8909,-0.8909,-0.8909,-0.8909,-0.8909,-0.8909,-0.8909,-0.8909,-0.8909,-0.8909,-0.8909,-0.8909,-0.8909,-0.8909,-0.8574,-0.7734,-0.6283,-0.4721,-0.3046,-0.1343,0.0,0.0,0.0,0.0,0.0,0.0,0.0,0.0,0.0,0.0,0.0,0.0,0.0,0.0,0.0,0.0,0.0,0.0,0.0,0.0,0.0,0.0,0.0,0.0,0.0,0.0,0.0,0.0,0.0,0.0,0.0,0.0,0.0,0.2824,0.4609,0.6058,-2.8301,-2.8301,-2.8301,-2.8301,-2.8301,-2.8301,-2.8301,-2.8301,-2.8301,-2.8301,-2.8301,-2.8301,-2.8301,-2.7897,-2.6744,-2.4433,-2.1898,-2.009,-1.9453,-1.9395,-1.9395,-1.9395,-1.9395,-1.9395,-1.9395,-1.9395,-1.9395,-1.9395,-1.9395,-1.9395,-1.9395,-1.9395,-1.9395,-1.9395,-1.9395,-1.9395,-1.9395,-1.9395,-1.9395,-1.9395,-1.9395,-1.9395,-1.9294,-1.9227,-1.9125,-1.8998,-1.8778,-1.8718,-1.8571,-1.8343,-1.8249,-1.7372,-1.574,-1.3761,-1.1694,-1.0292,-0.9348,-0.8909,-0.8909,-0.8909,-0.8909,-0.8909,-0.8909,-0.8909,-0.8909,-0.8909,-0.8909,-0.8909,-0.8909,-0.8909,-0.8909,-0.8909,-0.8909,-0.8799,-0.8183,-0.7146,-0.575,-0.4246,-0.2683,-0.1176,0.0,0.0,0.0,0.0,0.0,0.0,0.0,0.0,0.0,0.0,0.0,0.0,0.0,0.0,0.0,0.0,0.0,0.0,0.0,0.0,0.0,0.0,0.0,0.0,0.0,0.0,0.0,0.0,0.0,0.0,0.0,0.0,0.0,0.4999,0.6225,-2.8301,-2.8301,-2.8301,-2.8301,-2.8301,-2.8301,-2.8301,-2.8301,-2.8301,-2.8301,-2.8301,-2.8301,-2.8301,-2.7816,-2.6327,-2.4239,-2.187,-2.0342,-1.9482,-1.9395,-1.9395,-1.9395,-1.9395,-1.9395,-1.9395,-1.9395,-1.9395,-1.9395,-1.9395,-1.9395,-1.9395,-1.9395,-1.9395,-1.9395,-1.9395,-1.9395,-1.9395,-1.9395,-1.9395,-1.9395,-1.9395,-1.9395,-1.9395,-1.9395,-1.9395,-1.9239,-1.9038,-1.9011,-1.8858,-1.8664,-1.848,-1.8017,-1.6684,-1.4849,-1.312,-1.1662,-0.9938,-0.9103,-0.8909,-0.8909,-0.8909,-0.8909,-0.8909,-0.8909,-0.8909,-0.8909,-0.8909,-0.8909,-0.8909,-0.8909,-0.8909,-0.8909,-0.8909,-0.8909,-0.8799,-0.8266,-0.6702,-0.5139,-0.3575,-0.2153,-0.0924,0.0,0.0,0.0,0.0,0.0,0.0,0.0,0.0,0.0,0.0,0.0,0.0,0.0,0.0,0.0,0.0,0.0,0.0,0.0,0.0,0.0,0.0,0.0,0.0,0.0,0.0,0.0,0.0,0.0,0.0,0.0,0.0,0.4301,0.5586,-2.8301,-2.8301,-2.8301,-2.8301,-2.8301,-2.8301,-2.8301,-2.8301,-2.8301,-2.8301,-2.8301,-2.8291,-2.8264,-2.7565,-2.5297,-2.3961,-2.2689,-2.0737,-1.9424,-1.9395,-1.9395,-1.9395,-1.9395,-1.9395,-1.9395,-1.9395,-1.9395,-1.9395,-1.9395,-1.9395,-1.9395,-1.9395,-1.9395,-1.9395,-1.9395,-1.9395,-1.9395,-1.9395,-1.9395,-1.9395,-1.9395,-1.9395,-1.9395,-1.9395,-1.9395,-1.9374,-1.9294,-1.9274,-1.9132,-1.8918,-1.8871,-1.866,-1.785,-1.5417,-1.4078,-1.2636,-1.0888,-0.8909,-0.8916,-0.8909,-0.8909,-0.8909,-0.8909,-0.8909,-0.8909,-0.8909,-0.8909,-0.8909,-0.8909,-0.8909,-0.8909,-0.8909,-0.8909,-0.8909,-0.8881,-0.8211,-0.701,-0.6005,-0.4441,-0.285,-0.151,-0.0588,0.0,0.0,0.0,0.0,0.0,0.0,0.0,0.0,0.0,0.0,0.0,0.0,0.0,0.0,0.0,0.0,0.0,0.0,0.0,0.0,0.0,0.0,0.0,0.0,0.0,0.0,0.0,0.0,0.0,0.0,0.0,0.3491,0.5083,-2.8301,-2.8301,-2.8301,-2.8301,-2.8301,-2.8301,-2.8301,-2.8301,-2.8301,-2.8301,-2.8301,-2.8301,-2.787,-2.6771,-2.4682,-2.3327,-2.2258,-2.0371,-1.9453,-1.9395,-1.9395,-1.9395,-1.9395,-1.9395,-1.9395,-1.9395,-1.9395,-1.9395,-1.9395,-1.9395,-1.9395,-1.9395,-1.9395,-1.9395,-1.9395,-1.9395,-1.9395,-1.9395,-1.9395,-1.9395,-1.9395,-1.9395,-1.9395,-1.9395,-1.9395,-1.9395,-1.9395,-1.9388,-1.9348,-1.9178,-1.9201,-1.916,-1.8297,-1.6201,-1.4115,-1.3821,-1.0968,-0.9233,-0.8946,-0.8923,-0.8929,-0.8916,-0.8916,-0.8909,-0.8909,-0.8909,-0.8909,-0.8909,-0.8909,-0.8912,-0.8916,-0.8909,-0.8909,-0.8916,-0.8956,-0.8649,-0.7779,-0.6591,-0.5306,-0.3714,-0.2153,-0.1119,0.0,0.0,0.0,0.0,0.0,0.0,0.0,0.0,0.0,0.0,0.0,0.0,0.0,0.0,0.0,0.0,0.0,0.0,0.0,0.0,0.0,0.0,0.0,0.0,0.0,0.0,0.0,0.0,0.0,0.0,0.1705,0.3437,0.514,-2.8301,-2.8301,-2.8301,-2.8301,-2.8301,-2.8301,-2.8301,-2.8301,-2.8301,-2.8301,-2.8184,-2.7897,-2.7051,-2.5827,-2.4175,-2.2597,-2.1557,-2.0061,-1.9533,-1.9395,-1.9395,-1.9395,-1.9395,-1.9395,-1.9395,-1.9395,-1.9395,-1.9395,-1.9395,-1.9395,-1.9395,-1.9395,-1.9395,-1.9395,-1.9395,-1.9395,-1.9395,-1.9395,-1.9395,-1.9395,-1.9395,-1.9395,-1.9395,-1.9395,-1.9395,-1.9395,-1.9395,-1.9395,-1.9388,-1.9381,-1.9368,-1.9334,-1.8841,-1.6855,-1.4964,-1.4089,-1.1607,-0.9885,-0.9359,-0.9061,-0.9024,-0.9011,-0.8963,-0.8994,-0.8909,-0.8909,-0.8909,-0.8909,-0.8998,-0.8994,-0.9001,-0.9028,-0.9089,-0.9096,-0.9086,-0.9011,-0.8719,-0.7399,-0.5916,-0.4218,-0.2683,-0.1343,0.0,0.0,0.0,0.0,0.0,0.0,0.0,0.0,0.0,0.0,0.0,0.0,0.0,0.0,0.0,0.0,0.0,0.0,0.0,0.0,0.0,0.0,0.0,0.0,0.0,0.0,0.0,0.0,0.0,0.0,0.1511,0.3243,0.5308,-2.8301,-2.8301,-2.8301,-2.8301,-2.8301,-2.8301,-2.8301,-2.8301,-2.8301,-2.8301,-2.8121,-2.6997,-2.6354,-2.5352,-2.3311,-2.1805,-2.1415,-2.0061,-1.9562,-1.9395,-1.9395,-1.9395,-1.9395,-1.9395,-1.9395,-1.9395,-1.9395,-1.9395,-1.9395,-1.9395,-1.9395,-1.9395,-1.9395,-1.9395,-1.9395,-1.9395,-1.9395,-1.9395,-1.9395,-1.9395,-1.9395,-1.9395,-1.9395,-1.9395,-1.9395,-1.9395,-1.9395,-1.9395,-1.9395,-1.9395,-1.9395,-1.9395,-1.9013,-1.7453,-1.5918,-1.4249,-1.2651,-1.0829,-0.9791,-0.9306,-0.9327,-0.9332,-0.9254,-0.91,-0.9004,-0.8943,-0.8923,-0.8967,-0.9093,-0.9162,-0.9209,-0.9271,-0.9294,-0.9262,-0.9225,-0.9198,-0.8867,-0.8019,-0.6512,-0.4767,-0.3353,-0.2153,0.0,0.0,0.0,0.0,0.0,0.0,0.0,0.0,0.0,0.0,0.0,0.0,0.0,0.0,0.0,0.0,0.0,0.0,0.0,0.0,0.0,0.0,0.0,0.0,0.0,0.0,0.0,0.0,0.0,0.0,0.1483,0.3103,0.5389,-2.8301,-2.8301,-2.8301,-2.8301,-2.8301,-2.8301,-2.8301,-2.8301,-2.8301,-2.8301,-2.8201,-2.6771,-2.5572,-2.4314,-2.273,-2.1059,-2.0285,-1.9758,-1.9453,-1.9395,-1.9395,-1.9395,-1.9395,-1.9395,-1.9395,-1.9395,-1.9395,-1.9395,-1.9395,-1.9395,-1.9395,-1.9395,-1.9395,-1.9395,-1.9395,-1.9395,-1.9395,-1.9395,-1.9395,-1.9395,-1.9395,-1.9395,-1.9395,-1.9395,-1.9395,-1.9395,-1.9395,-1.9395,-1.9395,-1.9395,-1.9395,-1.9395,-1.9243,-1.7893,-1.6411,-1.4727,-1.3149,-1.1543,-1.008,-0.9584,-0.9413,-0.9407,-0.9349,-0.9288,-0.9184,-0.9198,-0.9208,-0.9235,-0.9249,-0.9318,-0.9339,-0.9373,-0.939,-0.9403,-0.9407,-0.939,-0.9051,-0.8358,-0.7374,-0.5745,-0.4435,-0.3214,-0.1874,0.0,0.0,0.0,0.0,0.0,0.0,0.0,0.0,0.0,0.0,0.0,0.0,0.0,0.0,0.0,0.0,0.0,0.0,0.0,0.0,0.0,0.0,0.0,0.0,0.0,0.0,0.0,0.0,0.0,0.1679,0.3047,0.5192,-2.8301,-2.8301,-2.8301,-2.8301,-2.8301,-2.8301,-2.8301,-2.8301,-2.8301,-2.8301,-2.8174,-2.6744,-2.5233,-2.3738,-2.2258,-2.0809,-1.9873,-1.9424,-1.9424,-1.9395,-1.9395,-1.9395,-1.9395,-1.9395,-1.9395,-1.9395,-1.9395,-1.9395,-1.9395,-1.9395,-1.9395,-1.9395,-1.9395,-1.9395,-1.9395,-1.9395,-1.9395,-1.9395,-1.9395,-1.9395,-1.9395,-1.9395,-1.9395,-1.9395,-1.9395,-1.9395,-1.9395,-1.9395,-1.9395,-1.9395,-1.9395,-1.9395,-1.9033,-1.8256,-1.6915,-1.537,-1.3765,-1.2183,-1.0861,-0.9872,-0.9552,-0.9479,-0.9492,-0.9454,-0.9427,-0.9413,-0.9337,-0.9357,-0.943,-0.9478,-0.9456,-0.9507,-0.9551,-0.9588,-0.9581,-0.9561,-0.9473,-0.8958,-0.7987,-0.6801,-0.5612,-0.4443,-0.2264,-0.0896,0.0,0.0,0.0,0.0,0.0,0.0,0.0,0.0,0.0,0.0,0.0,0.0,0.0,0.0,0.0,0.0,0.0,0.0,0.0,0.0,0.0,0.0,0.0,0.0,0.0,0.0,0.0,0.0,0.1846,0.3242,0.4803,-2.8301,-2.8301,-2.8301,-2.8301,-2.8301,-2.8301,-2.8301,-2.8301,-2.8301,-2.8301,-2.8094,-2.6744,-2.527,-2.3738,-2.2258,-2.078,-1.9671,-1.9395,-1.9395,-1.9395,-1.9395,-1.9395,-1.9395,-1.9395,-1.9395,-1.9395,-1.9395,-1.9395,-1.9395,-1.9395,-1.9395,-1.9395,-1.9395,-1.9395,-1.9395,-1.9395,-1.9395,-1.9395,-1.9395,-1.9395,-1.9395,-1.9395,-1.9395,-1.9395,-1.9395,-1.9395,-1.9395,-1.9395,-1.9395,-1.9395,-1.9395,-1.9395,-1.9272,-1.9214,-1.8133,-1.6462,-1.5104,-1.3616,-1.2084,-1.0608,-0.9837,-0.9622,-0.9602,-0.9561,-0.9475,-0.9437,-0.9439,-0.9496,-0.9537,-0.9591,-0.9616,-0.9673,-0.9737,-0.9747,-0.9734,-0.971,-0.9618,-0.9491,-0.8535,-0.7766,-0.6927,-0.571,-0.3122,-0.1147,-0.042,0.0,0.0,0.0,0.0,0.0,0.0,0.0,0.0,0.0,0.0,0.0,0.0,0.0,0.0,0.0,0.0,0.0,0.0,0.0,0.0,0.0,0.0,0.0,0.0,0.0,0.0,0.0,0.0,0.3214,0.4441,-2.8301,-2.8301,-2.8301,-2.8301,-2.8301,-2.8301,-2.8301,-2.8301,-2.8301,-2.8301,-2.7987,-2.6744,-2.5242,-2.3738,-2.2315,-2.0866,-1.962,-1.9395,-1.9395,-1.9395,-1.9395,-1.9395,-1.9395,-1.9395,-1.9395,-1.9395,-1.9395,-1.9395,-1.9395,-1.9395,-1.9395,-1.9395,-1.9395,-1.9395,-1.9395,-1.9395,-1.9395,-1.9395,-1.9395,-1.9395,-1.9395,-1.9395,-1.9395,-1.9395,-1.9395,-1.9395,-1.9395,-1.9395,-1.9395,-1.9395,-1.9395,-1.9395,-1.9395,-1.9395,-1.8198,-1.6291,-1.4658,-1.3317,-1.1464,-0.9963,-0.9832,-0.9761,-0.97,-0.9707,-0.9673,-0.9673,-0.9643,-0.9656,-0.9683,-0.97,-0.9744,-0.9748,-0.9765,-0.9768,-0.9761,-0.9761,-0.9697,-0.9599,-0.9121,-0.8527,-0.7792,-0.571,-0.3311,-0.1874,-0.1035,-0.0336,0.0,0.0,0.0,0.0,0.0,0.0,0.0,0.0,0.0,0.0,0.0,0.0,0.0,0.0,0.0,0.0,0.0,0.0,0.0,0.0,0.0,0.0,0.0,0.0,0.0,0.0,0.0,0.2069,0.3268,-2.8301,-2.8301,-2.8301,-2.8301,-2.8301,-2.8301,-2.8301,-2.8301,-2.8301,-2.8301,-2.8067,-2.7222,-2.5681,-2.4044,-2.2758,-2.1066,-1.9591,-1.9395,-1.9395,-1.9395,-1.9395,-1.9395,-1.9395,-1.9395,-1.9395,-1.9395,-1.9395,-1.9395,-1.9395,-1.9395,-1.9395,-1.9395,-1.9395,-1.9395,-1.9395,-1.9395,-1.9395,-1.9395,-1.9395,-1.9395,-1.9395,-1.9395,-1.9395,-1.9395,-1.9395,-1.9395,-1.9395,-1.9395,-1.9395,-1.9395,-1.9395,-1.9395,-1.9395,-1.9068,-1.8292,-1.6774,-1.4842,-1.3168,-1.0781,-0.9879,-0.9785,-0.9778,-0.9788,-0.9788,-0.9788,-0.9758,-0.9765,-0.9768,-0.9788,-0.9788,-0.9788,-0.9788,-0.9788,-0.9788,-0.9788,-0.9785,-0.9758,-0.9656,-0.9518,-0.8952,-0.839,-0.6073,-0.4063,-0.2742,-0.1733,-0.1035,0.0,0.0,0.0,0.0,0.0,0.0,0.0,0.0,0.0,0.0,0.0,0.0,0.0,0.0,0.0,0.0,0.0,0.0,0.0,0.0,0.0,0.0,0.0,0.0,0.0,0.0,0.0,0.1064,0.2432,-2.8301,-2.8301,-2.8301,-2.8301,-2.8301,-2.8301,-2.8301,-2.8301,-2.8301,-2.8301,-2.8264,-2.8211,-2.6662,-2.435,-2.3794,-2.2181,-1.9982,-1.9591,-1.9395,-1.9395,-1.9395,-1.9395,-1.9395,-1.9395,-1.9395,-1.9395,-1.9395,-1.9395,-1.9395,-1.9395,-1.9395,-1.9395,-1.9395,-1.9395,-1.9395,-1.9395,-1.9395,-1.9395,-1.9395,-1.9395,-1.9395,-1.9395,-1.9395,-1.9395,-1.9395,-1.9395,-1.9395,-1.9395,-1.9395,-1.9395,-1.9395,-1.9395,-1.9395,-1.9395,-1.9366,-1.8233,-1.5795,-1.2873,-1.0479,-0.9849,-0.9788,-0.9788,-0.9788,-0.9788,-0.9788,-0.9788,-0.9788,-0.9788,-0.9788,-0.9788,-0.9788,-0.9788,-0.9788,-0.9788,-0.9788,-0.9781,-0.9765,-0.9663,-0.9547,-0.9272,-0.9097,-0.7624,-0.594,-0.4495,-0.2988,-0.1733,-0.1007,0.0,0.0,0.0,0.0,0.0,0.0,0.0,0.0,0.0,0.0,0.0,0.0,0.0,0.0,0.0,0.0,0.0,0.0,0.0,0.0,0.0,0.0,0.0,0.0,0.0,0.0,0.0,0.2013,-2.8301,-2.8301,-2.8301,-2.8301,-2.8301,-2.8301,-2.8301,-2.8301,-2.8301,-2.8301,-2.8301,-2.8301,-2.7114,-2.5462,-2.4294,-2.271,-2.1209,-2.0011,-1.954,-1.9395,-1.9395,-1.9395,-1.9395,-1.9395,-1.9395,-1.9395,-1.9395,-1.9395,-1.9395,-1.9395,-1.9395,-1.9395,-1.9395,-1.9395,-1.9395,-1.9395,-1.9395,-1.9395,-1.9395,-1.9395,-1.9395,-1.9395,-1.9395,-1.9395,-1.9395,-1.9395,-1.9395,-1.9395,-1.9395,-1.9395,-1.9395,-1.9395,-1.9395,-1.9278,-1.8858,-1.5972,-1.3885,-1.1916,-1.024,-0.9788,-0.9788,-0.9788,-0.9788,-0.9788,-0.9788,-0.9788,-0.9788,-0.9788,-0.9788,-0.9788,-0.9788,-0.9788,-0.9788,-0.9788,-0.9788,-0.9785,-0.9758,-0.9663,-0.9544,-0.9379,-0.9206,-0.8576,-0.6998,-0.6142,-0.4634,-0.296,-0.1733,-0.1035,0.0,0.0,0.0,0.0,0.0,0.0,0.0,0.0,0.0,0.0,0.0,0.0,0.0,0.0,0.0,0.0,0.0,0.0,0.0,0.0,0.0,0.0,0.0,0.0,0.0,0.0,0.0,-2.8301,-2.8301,-2.8301,-2.8301,-2.8301,-2.8301,-2.8301,-2.8301,-2.8301,-2.8301,-2.8301,-2.8301,-2.7474,-2.6073,-2.5049,-2.3627,-2.1557,-2.0809,-2.0148,-1.9395,-1.9395,-1.9395,-1.9395,-1.9395,-1.9395,-1.9395,-1.9395,-1.9395,-1.9395,-1.9395,-1.9395,-1.9395,-1.9395,-1.9395,-1.9395,-1.9395,-1.9395,-1.9395,-1.9395,-1.9395,-1.9395,-1.9395,-1.9395,-1.9395,-1.9395,-1.9395,-1.9395,-1.9395,-1.9395,-1.9395,-1.9395,-1.9395,-1.9395,-1.9307,-1.7308,-1.4777,-1.3795,-1.2006,-1.0391,-0.9819,-0.9788,-0.9788,-0.9788,-0.9788,-0.9788,-0.9788,-0.9788,-0.9788,-0.9788,-0.9788,-0.9788,-0.9788,-0.9788,-0.9788,-0.9788,-0.9788,-0.9724,-0.9653,-0.951,-0.9342,-0.8991,-0.8588,-0.785,-0.7215,-0.6311,-0.4717,-0.31,-0.1789,-0.1036,0.0,0.0,0.0,0.0,0.0,0.0,0.0,0.0,0.0,0.0,0.0,0.0,0.0,0.0,0.0,0.0,0.0,0.0,0.0,0.0,0.0,0.0,0.0,0.0,0.0,0.0,-2.8301,-2.8301,-2.8301,-2.8301,-2.8301,-2.8301,-2.8301,-2.8301,-2.8301,-2.8301,-2.8301,-2.8301,-2.7609,-2.6635,-2.5936,-2.4571,-2.2842,-2.1784,-2.0723,-1.9562,-1.9395,-1.9395,-1.9395,-1.9395,-1.9395,-1.9395,-1.9395,-1.9395,-1.9395,-1.9395,-1.9395,-1.9395,-1.9395,-1.9395,-1.9395,-1.9395,-1.9395,-1.9395,-1.9395,-1.9395,-1.9395,-1.9395,-1.9395,-1.9395,-1.9395,-1.9395,-1.9395,-1.9395,-1.9395,-1.9395,-1.9395,-1.9395,-1.9033,-1.8852,-1.6291,-1.4302,-1.3407,-1.2093,-1.057,-0.9819,-0.9788,-0.9788,-0.9788,-0.9788,-0.9788,-0.9788,-0.9788,-0.9788,-0.9788,-0.9788,-0.9788,-0.9788,-0.9788,-0.9788,-0.9788,-0.9788,-0.9758,-0.9656,-0.952,-0.9366,-0.9166,-0.8764,-0.8568,-0.7901,-0.7149,-0.6001,-0.4968,-0.3323,-0.1817,-0.1008,0.0,0.0,0.0,0.0,0.0,0.0,0.0,0.0,0.0,0.0,0.0,0.0,0.0,0.0,0.0,0.0,0.0,0.0,0.0,0.0,0.0,0.0,0.0,0.0,0.0,-2.8301,-2.8301,-2.8301,-2.8301,-2.8301,-2.8301,-2.8301,-2.8301,-2.8301,-2.8301,-2.8301,-2.8264,-2.813,-2.7592,-2.6635,-2.5489,-2.4737,-2.2898,-2.1607,-2.0644,-2.0061,-1.9562,-1.9424,-1.9395,-1.9395,-1.9395,-1.9395,-1.9395,-1.9395,-1.9395,-1.9395,-1.9395,-1.9395,-1.9395,-1.9395,-1.9395,-1.9395,-1.9395,-1.9395,-1.9395,-1.9395,-1.9395,-1.9395,-1.9395,-1.9395,-1.9395,-1.9395,-1.9395,-1.9395,-1.9395,-1.9395,-1.8765,-1.7683,-1.7653,-1.5749,-1.3133,-1.2633,-1.1645,-1.057,-0.9788,-0.9788,-0.9788,-0.9788,-0.9788,-0.9788,-0.9788,-0.9788,-0.9788,-0.9788,-0.9788,-0.9788,-0.9788,-0.9788,-0.9788,-0.9788,-0.9788,-0.9788,-0.9653,-0.9534,-0.9391,-0.9303,-0.9164,-0.899,-0.8547,-0.781,-0.7146,-0.6561,-0.522,-0.3128,-0.1901,-0.1036,0.0,0.0,0.0,0.0,0.0,0.0,0.0,0.0,0.0,0.0,0.0,0.0,0.0,0.0,0.0,0.0,0.0,0.0,0.0,0.0,0.0,0.0,0.0,0.0,-2.8301,-2.8301,-2.8301,-2.8301,-2.8301,-2.8301,-2.8301,-2.8301,-2.8301,-2.8301,-2.8301,-2.8301,-2.8301,-2.8301,-2.7394,-2.6527,-2.6018,-2.4488,-2.2814,-2.1643,-2.0809,-2.0033,-1.9729,-1.9395,-1.9395,-1.9395,-1.9395,-1.9395,-1.9395,-1.9395,-1.9395,-1.9395,-1.9395,-1.9395,-1.9395,-1.9395,-1.9395,-1.9395,-1.9395,-1.9395,-1.9395,-1.9395,-1.9395,-1.9395,-1.9395,-1.9395,-1.9395,-1.9395,-1.9395,-1.9395,-1.9395,-1.8525,-1.7566,-1.7173,-1.5394,-1.3253,-1.2093,-1.1495,-1.0331,-0.9788,-0.9788,-0.9788,-0.9788,-0.9788,-0.9788,-0.9788,-0.9788,-0.9788,-0.9788,-0.9788,-0.9788,-0.9788,-0.9788,-0.9788,-0.9788,-0.9788,-0.9788,-0.9731,-0.9635,-0.952,-0.9444,-0.9364,-0.9219,-0.9074,-0.8414,-0.8124,-0.7575,-0.6705,-0.4747,-0.2766,-0.1901,-0.1008,-0.0448,0.0,0.0,0.0,0.0,0.0,0.0,0.0,0.0,0.0,0.0,0.0,0.0,0.0,0.0,0.0,0.0,0.0,0.0,0.0,0.0,0.0,0.0,-2.8301,-2.8301,-2.8301,-2.8301,-2.8301,-2.8301,-2.8301,-2.8301,-2.8301,-2.8301,-2.8301,-2.8301,-2.8301,-2.8301,-2.8237,-2.7367,-2.6499,-2.5654,-2.4119,-2.2561,-2.1663,-2.0537,-1.9758,-1.9395,-1.9395,-1.9395,-1.9395,-1.9395,-1.9395,-1.9395,-1.9395,-1.9395,-1.9395,-1.9395,-1.9395,-1.9395,-1.9395,-1.9395,-1.9395,-1.9395,-1.9395,-1.9395,-1.9395,-1.9395,-1.9395,-1.9395,-1.9395,-1.9395,-1.9395,-1.9395,-1.9336,-1.8402,-1.7302,-1.6521,-1.4737,-1.2924,-1.1645,-1.0929,-1.0119,-0.9788,-0.9788,-0.9788,-0.9788,-0.9788,-0.9788,-0.9788,-0.9788,-0.9788,-0.9788,-0.9788,-0.9788,-0.9788,-0.9788,-0.9788,-0.9788,-0.9788,-0.9788,-0.9785,-0.9697,-0.9625,-0.9578,-0.953,-0.9425,-0.9305,-0.9099,-0.8829,-0.8314,-0.7421,-0.6174,-0.4218,-0.2739,-0.1622,-0.0672,0.0,0.0,0.0,0.0,0.0,0.0,0.0,0.0,0.0,0.0,0.0,0.0,0.0,0.0,0.0,0.0,0.0,0.0,0.0,0.0,0.0,0.0,-2.8301,-2.8301,-2.8301,-2.8301,-2.8301,-2.8301,-2.8301,-2.8301,-2.8301,-2.8301,-2.8301,-2.8301,-2.8301,-2.8301,-2.8301,-2.787,-2.7528,-2.6798,-2.5297,-2.3571,-2.2392,-2.0923,-1.9837,-1.9562,-1.9453,-1.9395,-1.9395,-1.9395,-1.9395,-1.9395,-1.9395,-1.9395,-1.9395,-1.9395,-1.9395,-1.9395,-1.9395,-1.9395,-1.9395,-1.9395,-1.9395,-1.9395,-1.9395,-1.9395,-1.9395,-1.9395,-1.9395,-1.9395,-1.9395,-1.9395,-1.9336,-1.8496,-1.739,-1.6079,-1.4297,-1.2868,-1.1589,-1.0479,-0.9879,-0.9788,-0.9788,-0.9788,-0.9788,-0.9788,-0.9788,-0.9788,-0.9788,-0.9788,-0.9788,-0.9788,-0.9788,-0.9788,-0.9788,-0.9788,-0.9788,-0.9788,-0.9788,-0.9788,-0.9751,-0.9717,-0.9666,-0.9629,-0.9581,-0.9435,-0.93,-0.9106,-0.9039,-0.816,-0.7105,-0.5362,-0.3499,-0.2354,-0.1151,0.0,0.0,0.0,0.0,0.0,0.0,0.0,0.0,0.0,0.0,0.0,0.0,0.0,0.0,0.0,0.0,0.0,0.0,0.0,0.0,0.0,0.0]},{"header":{"parameterUnit":"m.s-1","parameterCategory":1,"la1":31.0,"la2":29.5877,"lo1":-88.7671,"lo2":-86.6584,"dy":0.0162,"dx":0.0185,"nx":115,"ny":88,"refTime":"2023-09-01T06:00:00:Z","depth":0,"parameterNumber":3,"parameterNumberName":"V-component_of_WINDS"},"data":[0.0,0.0,0.0,0.0,0.0,0.0,0.0,0.0,0.0,0.0,0.0,0.0,0.0,0.0,0.0,0.0,0.0,0.0,0.0,0.0,0.0,0.0,0.0,0.0,0.0,0.0,0.0,0.0,0.0,0.0,0.0,0.0,0.0,0.0,0.0,0.0,0.0,0.0,0.0,0.0,0.0,0.0,0.0,0.0,0.0,0.0,0.0,0.0,0.0,0.0,0.0,0.0,0.0,0.0,0.0,0.0,0.0,0.0,0.0,0.0,0.0,0.0,0.0,0.0,0.0,0.0,0.0,0.0,0.0,0.0,0.0,0.0,0.0,0.0,0.0,0.0,0.0,0.0,0.0,0.0,0.0,0.0,0.0,0.0,0.0,0.0,0.0,0.0,0.0,0.0,0.0,0.0,0.0,0.0,0.0,0.0,0.0,0.0,0.0,0.0,0.0,0.0,0.0,0.0,0.0,0.0,0.0,0.0,0.0,0.0,0.0,0.0,0.0,0.0,0.0,0.0,0.0,0.0,0.0,0.0,0.0,0.0,0.0,0.0,0.0,0.0,0.0,0.0,0.0,0.0,0.0,0.0,0.0,0.0,0.0,0.0,0.0,0.0,0.0,0.0,0.0,0.0,0.0,0.0,0.0,0.0,0.0,0.0,0.0,0.0,0.0,0.0,0.0,0.0,0.0,0.0,0.0,0.0,0.0,0.0,0.0,0.0,0.0,0.0,0.0,0.0,0.0,0.0,0.0,0.0,0.0,0.0,0.0,0.0,0.0,0.0,0.0,0.0,0.0,0.0,0.0,0.0,0.0,0.0,0.0,0.0,0.0,0.0,0.0,0.0,0.0,0.0,0.0,0.0,0.0,0.0,0.0,0.0,0.0,0.0,0.0,0.0,0.0,0.0,0.0,0.0,0.0,0.0,0.0,0.0,0.0,0.0,0.0,0.0,0.0,0.0,0.0,0.0,0.0,0.0,0.0,0.0,0.0,0.0,0.0,0.0,0.0,0.0,0.0,0.0,0.0,0.0,0.0,0.0,0.0,0.0,0.0,0.0,0.0,0.0,0.0,0.0,0.0,0.0,0.0,0.0,0.0,0.0,0.0,0.0,0.0,0.0,0.0,0.0,0.0,0.0,0.0,0.0,0.0,0.0,0.0,0.0,0.0,0.0,0.0,0.0,0.0,0.0,0.0,0.0,0.0,0.0,0.0,0.0,0.0,0.0,0.0,0.0,0.0,0.0,0.0,0.0,0.0,0.0,0.0,0.0,0.0,0.0,0.0,0.0,0.0,0.0,0.0,0.0,0.0,0.0,0.0,0.0,0.0,0.0,0.0,0.0,0.0,0.0,0.0,0.0,0.0,0.0,0.0,0.0,0.0,0.0,0.0,0.0,0.0,0.0,0.0,0.0,0.0,0.0,0.0,0.0,0.0,0.0,0.0,0.0,0.0,0.0,0.0,0.0,0.0,0.0,0.0,0.0,0.0,0.0,0.0,0.0,0.0,0.0,0.0,0.0,0.0,0.0,0.0,0.0,0.0,0.0,0.0,0.0,0.0,0.0,0.0,0.0,0.0,0.0,0.0,0.0,0.0,0.0,0.0,0.0,0.0,0.0,0.0,0.0,0.0,0.0,0.0,0.0,0.0,0.0,0.0,0.0,0.0,0.0,0.0,0.0,0.0,0.0,0.0,0.0,0.0,0.0,0.0,0.0,0.0,0.0,0.0,0.0,0.0,0.0,0.0,0.0,0.0,0.0,0.0,0.0,0.0,0.0,0.0,0.0,0.0,0.0,0.0,0.0,0.0,0.0,0.0,0.0,0.0,0.0,0.0,0.0,0.0,0.0,0.0,0.0,0.0,0.0,0.0,0.0,0.0,0.0,0.0,0.0,0.0,0.0,0.0,0.0,0.0,0.0,0.0,0.0,0.0,0.0,0.0,0.0,0.0,0.0,0.0,0.0,0.0,0.0,0.0,0.0,0.0,0.0,0.0,0.0,0.0,0.0,0.0,0.0,0.0,0.0,0.0,0.0,0.0,0.0,0.0,0.0,0.0,0.0,0.0,0.0,0.0,0.0,0.0,0.0,0.0,0.0,0.0,0.0,0.0,0.0,0.0,0.0,0.0,0.0,0.0,0.0,0.0,0.0,0.0,0.0,0.0,0.0,0.0,0.0,0.0,0.0,0.0,0.0,0.0,0.0,0.0,0.0,0.0,0.0,0.0,0.0,0.0,0.0,0.0,0.0,0.0,0.0,0.0,0.0,0.0,0.0,0.0,0.0,0.0,0.0,0.0,0.0,0.0,0.0,0.0,0.0,0.0,0.0,0.0,0.0,0.0,0.0,0.0,0.0,0.0,0.0,0.0,0.0,0.0,0.0,0.0,0.0,0.0,0.0,0.0,0.0,0.0,0.0,0.0,0.0,0.0,0.0,0.0,0.0,0.0,0.0,0.0,0.0,0.0,0.0,0.0,0.0,0.0,0.0,0.0,0.0,0.0,0.0,0.0,0.0,0.0,0.0,0.0,0.0,0.0,0.0,0.0,0.0,0.0,0.0,0.0,0.0,0.0,0.0,0.0,0.0,0.0,0.0,0.0,0.0,0.0,0.0,0.0,0.0,0.0,0.0,0.0,0.0,0.0,0.0,0.0,0.0,0.0,0.0,0.0,0.0,0.0,0.0,0.0,0.0,0.0,0.0,0.0,0.0,0.0,0.0,0.0,0.0,0.0,0.0,0.0,0.0,0.0,0.0,0.0,0.0,0.0,0.0,0.0,0.0,0.0,0.0,0.0,0.0,0.0,0.0,0.0,0.0,0.0,0.0,0.0,0.0,0.0,0.0,0.0,0.0,0.0,0.0,0.0,0.0,0.0,0.0,0.0,0.0,0.0,0.0,0.0,0.0,0.0,0.0,0.0,0.0,0.0,0.0,0.0,0.0,0.0,0.0,0.0,0.0,0.0,0.0,0.0,0.0,0.0,0.0,0.0,0.0,0.0,0.0,0.0,0.0,0.0,0.0,0.0,0.0,0.0,0.0,0.0,0.0,0.0,0.0,0.0,0.0,0.0,0.0,0.0,0.0,0.0,0.0,0.0,0.0,0.0,0.0,0.0,0.0,0.0,0.0,0.0,0.0,0.0,0.0,0.0,0.0,0.0,0.0,0.0,0.0,0.0,0.0,0.0,0.0,0.0,0.0,0.0,0.0,0.0,0.0,0.0,0.0,0.0,0.0,0.0,0.0,0.0,0.0,0.0,0.0,0.0,0.0,0.0,0.0,0.0,0.0,0.0,0.0,0.0,0.0,0.0,0.0,0.0,0.0,0.0,0.0,0.0,0.0,0.0,0.0,0.0,0.0,0.0,0.0,0.0,0.0,0.0,0.0,0.0,0.0,0.0,0.0,0.0,0.0,0.0,0.0,0.0,0.0,0.0,0.0,0.0,0.0,0.0,0.0,0.0,0.0,0.0,0.0,0.0,0.0,0.0,0.0,0.0,0.0,0.0,0.0,0.0,0.0,0.0,0.0,0.0,0.0,0.0,0.0,0.0,0.0,0.0,0.0,0.0,0.0,0.0,0.0,0.0,0.0,0.0,0.0,0.0,0.0,0.0,0.0,0.0,0.0,0.0,0.0,0.0,0.0,0.0,0.0,0.0,0.0,0.0,0.0,0.0,0.0,0.0,0.0,0.0,0.0,0.0,0.0,0.0,0.0,0.0,0.0,0.0,0.0,0.0,0.0,0.0,0.0,0.0,0.0,0.0,0.0,0.0,0.0,0.0,0.0,0.0,0.0,0.0,0.0,0.0,0.0,0.0,0.0,0.0,0.0,0.0,0.0,0.0,0.0,0.0,0.0,0.0,0.0,0.0,0.0,0.0,0.0,0.0,0.0,0.0,0.0,0.0,0.0,0.0,0.0,0.0,0.0,0.0,0.0,0.0,0.0,0.0,0.0,0.0,0.0,0.0,0.0,0.0,0.0,0.0,0.0,0.0,0.0,0.0,0.0,0.0,0.0,0.0,0.0,0.0,0.0,0.0,0.0,0.0,0.0,0.0,0.0,0.0,0.0,0.0,0.0,0.0,0.0,0.0,0.0,0.0,0.0,0.0,0.0,0.0,0.0,0.0,0.0,0.0,0.0,0.0,0.0,0.0,0.0,0.0,0.0,0.0,0.0,0.0,0.0,0.0,0.0,0.0,0.0,0.0,0.0,0.0,0.0,0.0,0.0,0.0,0.0,0.0,0.0,0.0,0.0,0.0,0.0,0.0,0.0,0.0,0.0,0.0,0.0,1.6838,0.0,0.0,0.0,0.0,0.0,0.0,0.0,0.0,0.0,0.0,0.0,0.0,0.0,0.0,0.0,0.0,0.0,0.0,0.0,0.0,0.0,0.0,0.0,0.0,0.0,0.0,0.0,0.0,0.0,0.0,0.0,0.0,0.0,0.0,0.0,0.0,0.0,0.0,0.0,0.0,0.0,0.0,0.0,0.0,0.0,0.0,0.0,0.0,0.0,0.0,0.0,0.0,0.0,0.0,0.0,0.0,0.0,0.0,0.0,0.0,0.0,0.0,0.0,0.0,0.0,0.0,0.0,0.0,0.0,0.0,0.0,0.0,0.0,0.0,0.0,0.0,0.0,0.0,0.0,0.0,0.0,0.0,0.0,0.0,0.0,0.0,0.0,0.0,0.0,0.0,0.0,0.0,0.0,0.0,0.0,0.0,0.0,0.0,0.0,0.0,0.0,0.0,0.0,0.0,0.0,0.0,0.0,0.0,0.0,0.0,1.8144,1.6975,1.9326,1.9473,1.7033,0.0,0.0,0.0,0.0,0.0,0.0,0.0,0.0,0.0,0.0,0.0,0.0,0.0,0.0,0.0,0.0,0.0,0.0,0.0,0.0,0.0,0.0,0.0,0.0,0.0,0.0,0.0,0.0,0.0,0.0,0.0,0.0,0.0,0.0,0.0,0.0,0.0,0.0,0.0,0.0,0.0,0.0,0.0,0.0,0.0,0.0,0.0,0.0,0.0,0.0,0.0,0.0,0.0,0.0,0.0,0.0,0.0,0.0,0.0,0.0,0.0,0.0,0.0,0.0,0.0,0.0,0.0,0.0,0.0,0.0,0.0,0.0,0.0,0.0,0.0,0.0,0.0,0.0,0.0,0.0,0.0,0.0,0.0,0.0,0.0,0.0,0.0,0.0,0.0,0.0,0.0,0.0,0.0,0.0,0.0,0.0,0.0,0.0,0.0,0.0,0.0,0.0,0.0,0.0,0.0,0.0,0.0,0.0,0.0,0.0,0.0,0.0,2.017,2.0331,1.7858,0.0,0.0,0.0,0.0,0.0,0.0,0.0,0.0,0.0,0.0,0.0,0.0,0.0,0.0,0.0,0.0,0.0,0.0,0.0,0.0,0.0,0.0,0.0,0.0,0.0,0.0,0.0,0.0,0.0,0.0,0.0,0.0,0.0,0.0,0.0,0.0,0.0,0.0,0.0,0.0,0.0,0.0,0.0,0.0,0.0,0.0,0.0,0.0,0.0,0.0,0.0,0.0,0.0,0.0,0.0,0.0,0.0,0.0,0.0,0.0,0.0,0.0,0.0,0.0,0.0,0.0,0.0,0.0,0.0,0.0,0.0,0.0,0.0,0.0,0.0,0.0,0.0,0.0,0.0,0.0,0.0,0.0,0.0,0.0,0.0,0.0,0.0,0.0,0.0,0.0,0.0,0.0,0.0,0.0,0.0,0.0,0.0,0.0,0.0,0.0,0.0,0.0,0.0,0.0,0.0,0.0,0.0,0.0,0.0,0.0,1.9569,2.0158,2.0452,0.0,2.014,0.0,0.0,0.0,0.0,0.0,0.0,0.0,0.0,0.0,0.0,0.0,0.0,0.0,0.0,0.0,0.0,0.0,0.0,0.0,0.0,0.0,0.0,0.0,0.0,0.0,0.0,0.0,0.0,0.0,0.0,0.0,0.0,0.0,0.0,0.0,0.0,0.0,0.0,0.0,0.0,0.0,0.0,0.0,0.0,0.0,0.0,0.0,0.0,0.0,0.0,0.0,0.0,0.0,0.0,0.0,0.0,0.0,0.0,0.0,0.0,0.0,0.0,0.0,0.0,0.0,0.0,0.0,0.0,0.0,0.0,0.0,0.0,0.0,0.0,0.0,0.0,0.0,0.0,0.0,0.0,0.0,0.0,0.0,0.0,0.0,0.0,0.0,0.0,0.0,0.0,0.0,0.0,0.0,0.0,0.0,0.0,0.0,0.0,0.0,0.0,0.0,0.0,0.0,0.0,0.0,0.0,0.0,0.0,0.0,0.0,1.9675,2.0488,2.0507,2.0272,0.0,0.0,0.0,0.0,0.0,0.0,0.0,0.0,0.0,0.0,0.0,0.0,0.0,0.0,0.0,0.0,0.0,0.0,0.0,0.0,0.0,0.0,0.0,0.0,0.0,0.0,0.0,0.0,0.0,0.0,0.0,0.0,0.0,0.0,0.0,0.0,0.0,0.0,0.0,0.0,0.0,0.0,0.0,0.0,0.0,0.0,0.0,0.0,0.0,0.0,0.0,0.0,0.0,0.0,0.0,0.0,0.0,0.0,0.0,0.0,0.0,0.0,0.0,0.0,0.0,0.0,0.0,0.0,0.0,0.0,0.0,0.0,0.0,0.0,0.0,0.0,0.0,0.0,0.0,0.0,0.0,0.0,0.0,0.0,0.0,0.0,0.0,0.0,0.0,0.0,0.0,0.0,0.0,0.0,0.0,0.0,0.0,0.0,0.0,0.0,0.0,0.0,0.0,0.0,0.0,0.0,0.0,0.0,0.0,0.0,2.0105,2.0482,2.1428,2.0841,2.0346,2.0013,0.0,0.0,0.0,0.0,0.0,0.0,0.0,0.0,0.0,0.0,0.0,0.0,0.0,0.0,0.0,0.0,0.0,0.0,0.0,0.0,0.0,0.0,0.0,0.0,0.0,0.0,0.0,0.0,0.0,0.0,0.0,0.0,0.0,0.0,0.0,0.0,0.0,0.0,0.0,0.0,0.0,0.0,0.0,0.0,0.0,0.0,0.0,0.0,0.0,0.0,0.0,0.0,0.0,0.0,0.0,0.0,0.0,0.0,0.0,0.0,0.0,0.0,0.0,0.0,0.0,0.0,0.0,0.0,0.0,0.0,0.0,0.0,0.0,0.0,0.0,0.0,0.0,0.0,0.0,0.0,0.0,0.0,0.0,0.0,0.0,0.0,0.0,0.0,0.0,0.0,0.0,0.0,0.0,0.0,0.0,0.0,0.0,0.0,0.0,0.0,0.0,0.0,0.0,0.0,0.0,0.0,0.0,0.0,2.268,2.2065,2.2432,2.3864,2.1744,2.0882,0.0,0.0,0.0,0.0,0.0,0.0,0.0,0.0,0.0,0.0,0.0,0.0,0.0,0.0,0.0,0.0,0.0,0.0,0.0,0.0,0.0,0.0,0.0,0.0,0.0,0.0,0.0,0.0,0.0,0.0,0.0,0.0,0.0,0.0,0.0,0.0,0.0,0.0,0.0,0.0,0.0,0.0,0.0,0.0,0.0,0.0,0.0,0.0,0.0,0.0,0.0,0.0,0.0,0.0,0.0,0.0,0.0,0.0,0.0,0.0,0.0,0.0,0.0,0.0,0.0,0.0,0.0,0.0,0.0,0.0,0.0,0.0,0.0,0.0,0.0,0.0,0.0,0.0,0.0,0.0,0.0,0.0,0.0,0.0,0.0,0.0,0.0,0.0,0.0,0.0,0.0,0.0,0.0,0.0,0.0,0.0,0.0,0.0,0.0,0.0,0.0,0.0,0.0,0.0,0.0,0.0,0.0,0.0,0.0,2.2212,2.2951,2.3368,2.3414,2.3047,2.279,0.0,0.0,0.0,0.0,0.0,0.0,0.0,0.0,0.0,0.0,0.0,0.0,0.0,0.0,0.0,0.0,0.0,0.0,0.0,0.0,0.0,0.0,0.0,0.0,0.0,0.0,0.0,0.0,0.0,0.0,0.0,0.0,0.0,0.0,0.0,0.0,0.0,0.0,0.0,0.0,0.0,0.0,0.0,0.0,0.0,0.0,0.0,0.0,0.0,0.0,0.0,0.0,0.0,0.0,0.0,0.0,0.0,0.0,0.0,0.0,0.0,0.0,0.0,0.0,0.0,0.0,0.0,0.0,0.0,0.0,0.0,0.0,0.0,0.0,0.0,0.0,0.0,0.0,0.0,0.0,0.0,0.0,0.0,0.0,0.0,0.0,0.0,0.0,0.0,0.0,0.0,0.0,0.0,0.0,0.0,0.0,0.0,0.0,0.0,0.0,0.0,0.0,0.0,0.0,0.0,0.0,0.0,0.0,0.0,2.2974,0.0,2.5107,2.4593,2.4318,2.3951,0.0,0.0,0.0,0.0,0.0,0.0,0.0,0.0,0.0,0.0,0.0,0.0,0.0,0.0,0.0,0.0,0.0,0.0,0.0,0.0,0.0,0.0,0.0,0.0,0.0,0.0,0.0,0.0,0.0,0.0,0.0,0.0,0.0,0.0,0.0,0.0,0.0,0.0,0.0,0.0,0.0,0.0,0.0,0.0,0.0,0.0,0.0,0.0,0.0,0.0,0.0,0.0,0.0,0.0,0.0,0.0,0.0,0.0,0.0,0.0,0.0,0.0,0.0,0.0,0.0,0.0,0.0,0.0,0.0,0.0,0.0,0.0,0.0,0.0,0.0,0.0,0.0,0.0,0.0,0.0,0.0,0.0,0.0,0.0,0.0,0.0,0.0,0.0,0.0,0.0,0.0,0.0,0.0,0.0,0.0,0.0,0.0,0.0,0.0,0.0,0.0,0.0,0.0,0.0,0.0,0.0,0.0,0.0,2.3024,2.5283,2.688,2.7627,2.7714,2.5479,2.425,0.0,0.0,0.0,0.0,0.0,0.0,0.0,0.0,0.0,0.0,0.0,0.0,0.0,0.0,0.0,0.0,0.0,0.0,0.0,0.0,0.0,0.0,0.0,0.0,0.0,0.0,0.0,0.0,0.0,0.0,0.0,0.0,0.0,0.0,0.0,0.0,0.0,0.0,0.0,0.0,0.0,0.0,0.0,0.0,0.0,0.0,0.0,0.0,0.0,0.0,0.0,0.0,0.0,0.0,0.0,0.0,0.0,0.0,0.0,0.0,0.0,0.0,0.0,0.0,0.0,0.0,0.0,0.0,0.0,0.0,0.0,0.0,0.0,0.0,0.0,0.0,0.0,0.0,0.0,0.0,0.0,0.0,0.0,0.0,0.0,0.0,0.0,0.0,0.0,0.0,0.0,0.0,0.0,0.0,0.0,0.0,0.0,0.0,0.0,0.0,0.0,0.0,0.0,0.0,0.0,0.0,0.0,0.0,0.0,2.5411,2.6972,2.7811,2.7756,2.6539,2.5855,0.0,0.0,0.0,0.0,0.0,0.0,0.0,0.0,0.0,0.0,0.0,0.0,0.0,0.0,0.0,0.0,0.0,0.0,0.0,0.0,0.0,0.0,0.0,0.0,0.0,0.0,0.0,0.0,0.0,0.0,0.0,0.0,0.0,0.0,0.0,0.0,0.0,0.0,0.0,0.0,0.0,0.0,0.0,0.0,0.0,0.0,0.0,0.0,0.0,0.0,0.0,0.0,0.0,0.0,0.0,0.0,0.0,0.0,0.0,0.0,0.0,0.0,0.0,0.0,0.0,0.0,0.0,0.0,0.0,0.0,0.0,0.0,0.0,0.0,0.0,0.0,0.0,0.0,0.0,0.0,0.0,0.0,0.0,0.0,0.0,0.0,0.0,0.0,0.0,0.0,0.0,0.0,0.0,0.0,0.0,0.0,0.0,0.0,0.0,0.0,0.0,0.0,0.0,0.0,0.0,0.0,0.0,0.0,0.0,2.6347,2.7572,2.824,2.8246,2.7176,2.6607,2.657,0.0,0.0,0.0,0.0,0.0,0.0,0.0,0.0,0.0,0.0,0.0,0.0,0.0,0.0,0.0,0.0,0.0,0.0,0.0,0.0,0.0,0.0,0.0,0.0,0.0,0.0,0.0,0.0,0.0,0.0,0.0,0.0,0.0,0.0,0.0,0.0,0.0,0.0,0.0,0.0,0.0,0.0,0.0,0.0,0.0,0.0,0.0,0.0,0.0,0.0,0.0,0.0,0.0,0.0,0.0,0.0,0.0,0.0,0.0,0.0,0.0,0.0,0.0,0.0,0.0,0.0,0.0,0.0,0.0,0.0,0.0,0.0,0.0,0.0,0.0,0.0,0.0,0.0,0.0,0.0,0.0,0.0,0.0,0.0,0.0,0.0,0.0,0.0,0.0,0.0,0.0,0.0,0.0,0.0,0.0,0.0,0.0,0.0,0.0,0.0,0.0,0.0,0.0,0.0,0.0,0.0,0.0,0.0,2.7848,2.8693,2.9097,2.8944,2.7433,2.6607,0.0,0.0,0.0,0.0,0.0,0.0,0.0,0.0,0.0,0.0,0.0,0.0,0.0,0.0,0.0,0.0,0.0,0.0,0.0,0.0,0.0,0.0,0.0,0.0,0.0,0.0,0.0,0.0,0.0,0.0,0.0,0.0,0.0,0.0,0.0,0.0,0.0,0.0,0.0,0.0,0.0,0.0,0.0,0.0,0.0,0.0,0.0,0.0,0.0,0.0,0.0,0.0,0.0,0.0,0.0,0.0,0.0,0.0,0.0,0.0,0.0,0.0,0.0,0.0,0.0,0.0,0.0,0.0,0.0,0.0,0.0,0.0,0.0,0.0,0.0,0.0,0.0,0.0,0.0,0.0,0.0,0.0,0.0,0.0,0.0,0.0,0.0,0.0,0.0,0.0,0.0,0.0,0.0,0.0,0.0,0.0,0.0,0.0,0.0,0.0,0.0,0.0,0.0,0.0,0.0,0.0,0.0,0.0,0.0,2.8681,3.0044,3.0185,2.9023,2.7446,2.6607,0.0,0.0,0.0,0.0,0.0,0.0,0.0,0.0,0.0,0.0,0.0,0.0,0.0,0.0,0.0,0.0,0.0,0.0,0.0,0.0,0.0,0.0,0.0,0.0,0.0,0.0,0.0,0.0,0.0,0.0,0.0,0.0,0.0,0.0,0.0,0.0,0.0,0.0,0.0,0.0,0.0,0.0,0.0,0.0,0.0,0.0,0.0,0.0,0.0,0.0,0.0,0.0,0.0,0.0,0.0,0.0,0.0,0.0,0.0,0.0,0.0,0.0,0.0,0.0,0.0,0.0,0.0,0.0,0.0,0.0,0.0,0.0,0.0,0.0,0.0,0.0,0.0,0.0,0.0,0.0,0.0,0.0,0.0,0.0,0.0,0.0,0.0,0.0,0.0,0.0,0.0,0.0,0.0,0.0,0.0,0.0,0.0,0.0,0.0,0.0,0.0,0.0,0.0,0.0,0.0,0.0,0.0,0.0,2.887,2.9989,3.0907,3.095,3.002,2.8772,2.7947,0.0,0.0,0.0,0.0,0.0,0.0,0.0,0.0,0.0,0.0,0.0,0.0,0.0,0.0,0.0,0.0,0.0,0.0,0.0,0.0,0.0,0.0,0.0,0.0,0.0,0.0,0.0,0.0,0.0,0.0,0.0,0.0,0.0,0.0,0.0,0.0,0.0,0.0,0.0,0.0,0.0,0.0,0.0,0.0,0.0,0.0,0.0,0.0,0.0,0.0,0.0,0.0,0.0,0.0,0.0,0.0,0.0,0.0,0.0,0.0,0.0,0.0,0.0,0.0,0.0,0.0,0.0,0.0,0.0,0.0,0.0,0.0,0.0,0.0,0.0,0.0,0.0,0.0,0.0,0.0,0.0,0.0,0.0,0.0,0.0,0.0,0.0,0.0,0.0,0.0,0.0,0.0,0.0,0.0,0.0,0.0,0.0,0.0,0.0,0.0,0.0,0.0,0.0,0.0,0.0,0.0,0.0,0.0,2.9904,3.1464,3.1617,3.1647,3.1611,3.0705,2.9818,0.0,0.0,0.0,0.0,0.0,0.0,0.0,0.0,0.0,0.0,0.0,0.0,0.0,0.0,0.0,0.0,0.0,0.0,0.0,0.0,0.0,0.0,0.0,0.0,0.0,0.0,0.0,0.0,0.0,0.0,0.0,0.0,0.0,0.0,0.0,0.0,0.0,0.0,0.0,0.0,0.0,0.0,0.0,0.0,0.0,0.0,0.0,0.0,0.0,0.0,0.0,0.0,0.0,0.0,0.0,0.0,0.0,0.0,0.0,0.0,0.0,0.0,0.0,0.0,0.0,0.0,0.0,0.0,0.0,0.0,0.0,0.0,0.0,0.0,0.0,0.0,0.0,0.0,0.0,0.0,0.0,0.0,0.0,0.0,0.0,0.0,0.0,0.0,0.0,0.0,0.0,0.0,0.0,0.0,0.0,0.0,0.0,0.0,0.0,0.0,0.0,0.0,0.0,0.0,0.0,0.0,0.0,0.0,3.0717,3.2314,3.2963,3.3275,3.3275,3.1292,2.9837,0.0,0.0,0.0,0.0,0.0,0.0,0.0,0.0,0.0,0.0,0.0,0.0,0.0,0.0,0.0,0.0,0.0,0.0,0.0,0.0,0.0,0.0,0.0,0.0,0.0,0.0,0.0,0.0,0.0,0.0,0.0,0.0,0.0,0.0,0.0,0.0,0.0,0.0,0.0,0.0,0.0,0.0,0.0,0.0,0.0,0.0,0.0,0.0,2.3088,0.0,0.0,0.0,0.0,0.0,0.0,0.0,0.0,0.0,0.0,0.0,0.0,0.0,0.0,0.0,0.0,0.0,0.0,0.0,0.0,0.0,0.0,0.0,0.0,0.0,0.0,0.0,0.0,0.0,0.0,0.0,0.0,0.0,0.0,0.0,0.0,0.0,0.0,0.0,0.0,0.0,0.0,0.0,0.0,0.0,0.0,0.0,0.0,0.0,0.0,0.0,0.0,0.0,0.0,0.0,0.0,0.0,0.0,0.0,3.1928,3.3121,3.3587,3.3807,3.377,3.2552,3.1329,0.0,0.0,0.0,0.0,0.0,0.0,0.0,0.0,0.0,0.0,0.0,0.0,0.0,0.0,0.0,0.0,0.0,0.0,0.0,0.0,0.0,0.0,0.0,0.0,0.0,0.0,0.0,0.0,0.0,0.0,0.0,0.0,0.0,0.0,0.0,0.0,0.0,0.0,0.0,0.0,0.0,0.0,0.0,0.0,0.0,0.0,0.0,0.0,0.0,0.0,0.0,0.0,0.0,0.0,0.0,0.0,0.0,0.0,0.0,0.0,0.0,0.0,0.0,0.0,0.0,0.0,0.0,0.0,0.0,0.0,0.0,0.0,0.0,0.0,0.0,0.0,0.0,0.0,0.0,0.0,0.0,0.0,0.0,0.0,0.0,0.0,0.0,0.0,0.0,0.0,0.0,0.0,0.0,0.0,0.0,0.0,0.0,0.0,0.0,0.0,0.0,0.0,0.0,0.0,0.0,0.0,0.0,3.2082,3.2864,3.377,3.3807,3.3807,3.3807,3.3807,3.3043,3.1464,0.0,0.0,0.0,0.0,0.0,0.0,0.0,0.0,0.0,0.0,0.0,0.0,0.0,0.0,0.0,0.0,0.0,0.0,0.0,0.0,0.0,0.0,0.0,0.0,0.0,0.0,0.0,0.0,0.0,0.0,0.0,0.0,0.0,0.0,0.0,0.0,0.0,0.0,2.2753,2.3427,0.0,0.0,0.0,0.0,0.0,0.0,0.0,0.0,2.3823,0.0,0.0,0.0,0.0,0.0,0.0,0.0,0.0,0.0,0.0,0.0,0.0,0.0,0.0,0.0,0.0,0.0,0.0,0.0,0.0,0.0,0.0,0.0,0.0,0.0,0.0,0.0,0.0,0.0,0.0,0.0,0.0,0.0,0.0,0.0,0.0,0.0,0.0,0.0,0.0,0.0,0.0,0.0,0.0,0.0,0.0,0.0,0.0,0.0,0.0,0.0,0.0,0.0,0.0,0.0,0.0,3.1372,3.1537,3.232,3.377,3.3807,3.3807,3.3807,3.3807,3.3043,3.1519,0.0,0.0,0.0,0.0,0.0,0.0,0.0,0.0,0.0,0.0,0.0,0.0,0.0,0.0,0.0,0.0,0.0,0.0,0.0,0.0,0.0,0.0,0.0,0.0,0.0,0.0,0.0,0.0,0.0,0.0,0.0,0.0,0.0,0.0,0.0,0.0,0.0,0.0,0.0,2.5693,2.615,0.0,0.0,0.0,0.0,0.0,0.0,0.0,0.0,2.5456,0.0,0.0,0.0,0.0,0.0,0.0,0.0,0.0,0.0,0.0,0.0,0.0,0.0,0.0,0.0,0.0,0.0,0.0,0.0,0.0,0.0,0.0,0.0,0.0,0.0,0.0,0.0,0.0,0.0,0.0,0.0,0.0,0.0,0.0,0.0,0.0,0.0,0.0,0.0,0.0,0.0,0.0,0.0,0.0,0.0,0.0,0.0,0.0,0.0,0.0,0.0,0.0,0.0,0.0,0.0,3.1611,3.2427,3.3247,3.3975,3.3863,3.3807,3.3807,3.3807,3.3061,0.0,0.0,0.0,0.0,0.0,0.0,0.0,0.0,0.0,0.0,0.0,0.0,0.0,0.0,0.0,0.0,0.0,0.0,0.0,0.0,0.0,0.0,0.0,0.0,0.0,0.0,0.0,0.0,0.0,0.0,0.0,0.0,0.0,0.0,0.0,0.0,0.0,0.0,0.0,0.0,2.6488,2.6852,2.7224,0.0,0.0,0.0,0.0,0.0,0.0,2.5837,2.5702,0.0,0.0,0.0,0.0,0.0,0.0,0.0,0.0,0.0,0.0,0.0,0.0,0.0,0.0,0.0,0.0,0.0,0.0,0.0,0.0,0.0,0.0,0.0,0.0,0.0,0.0,0.0,0.0,0.0,0.0,0.0,0.0,0.0,0.0,0.0,0.0,0.0,0.0,0.0,0.0,0.0,0.0,0.0,0.0,0.0,0.0,0.0,0.0,0.0,0.0,0.0,0.0,0.0,0.0,0.0,3.1939,3.3314,3.4124,3.4281,3.4105,3.3979,3.3979,3.3979,3.3179,0.0,0.0,0.0,0.0,0.0,0.0,0.0,0.0,0.0,0.0,0.0,0.0,0.0,0.0,0.0,0.0,0.0,0.0,0.0,0.0,0.0,0.0,0.0,0.0,0.0,0.0,0.0,0.0,0.0,0.0,0.0,0.0,0.0,0.0,0.0,0.0,0.0,0.0,0.0,0.0,0.0,2.7554,2.7985,2.7537,0.0,0.0,0.0,0.0,2.6586,2.662,0.0,0.0,0.0,0.0,0.0,0.0,0.0,0.0,0.0,0.0,0.0,0.0,0.0,0.0,0.0,0.0,0.0,0.0,0.0,0.0,0.0,0.0,0.0,0.0,0.0,0.0,0.0,0.0,0.0,0.0,0.0,0.0,0.0,0.0,0.0,0.0,0.0,0.0,0.0,0.0,0.0,0.0,0.0,0.0,0.0,0.0,0.0,0.0,0.0,0.0,0.0,0.0,0.0,0.0,0.0,0.0,3.2152,3.3052,3.3858,3.4591,3.4617,3.4582,3.4601,3.4596,3.3706,0.0,0.0,0.0,0.0,0.0,0.0,0.0,0.0,0.0,0.0,0.0,0.0,0.0,0.0,0.0,0.0,0.0,0.0,0.0,0.0,0.0,0.0,0.0,0.0,0.0,0.0,0.0,0.0,0.0,0.0,0.0,0.0,0.0,0.0,0.0,0.0,0.0,0.0,0.0,0.0,0.0,2.9516,2.8933,2.879,2.8705,0.0,0.0,2.9366,2.9998,3.0102,0.0,0.0,0.0,0.0,0.0,0.0,0.0,0.0,0.0,0.0,0.0,0.0,0.0,0.0,0.0,0.0,0.0,0.0,0.0,0.0,0.0,0.0,0.0,0.0,0.0,0.0,0.0,0.0,0.0,0.0,0.0,0.0,0.0,0.0,0.0,0.0,0.0,0.0,0.0,0.0,0.0,0.0,0.0,0.0,0.0,0.0,0.0,0.0,0.0,0.0,0.0,0.0,0.0,0.0,0.0,3.2187,3.2469,3.3695,3.4541,3.4907,3.4769,3.4689,3.4689,3.4689,3.3785,0.0,0.0,0.0,0.0,0.0,0.0,0.0,0.0,0.0,0.0,0.0,0.0,0.0,0.0,0.0,0.0,0.0,0.0,0.0,0.0,0.0,0.0,0.0,0.0,0.0,0.0,0.0,0.0,0.0,0.0,0.0,0.0,0.0,0.0,0.0,0.0,0.0,0.0,0.0,0.0,0.0,0.0,3.0569,3.0244,0.0,0.0,0.0,3.0272,3.0431,0.0,0.0,0.0,0.0,0.0,0.0,0.0,0.0,0.0,0.0,0.0,0.0,0.0,0.0,0.0,0.0,0.0,0.0,0.0,0.0,0.0,0.0,0.0,0.0,0.0,0.0,0.0,0.0,0.0,0.0,0.0,0.0,0.0,0.0,0.0,0.0,0.0,0.0,0.0,0.0,0.0,0.0,0.0,0.0,0.0,0.0,0.0,0.0,0.0,0.0,0.0,0.0,0.0,0.0,0.0,0.0,0.0,3.2706,3.4331,3.5218,3.5179,3.4999,3.4908,3.4903,3.4908,0.0,0.0,0.0,0.0,0.0,0.0,0.0,0.0,0.0,0.0,0.0,0.0,0.0,0.0,0.0,0.0,0.0,0.0,0.0,0.0,0.0,0.0,0.0,0.0,0.0,0.0,0.0,2.8414,0.0,0.0,0.0,0.0,0.0,0.0,0.0,0.0,0.0,0.0,0.0,0.0,0.0,0.0,3.1071,3.162,3.1246,3.1067,0.0,0.0,3.1055,3.1031,3.1497,3.165,0.0,0.0,0.0,0.0,0.0,0.0,0.0,0.0,0.0,0.0,0.0,0.0,0.0,0.0,0.0,0.0,0.0,0.0,0.0,0.0,0.0,0.0,0.0,0.0,0.0,0.0,0.0,0.0,0.0,0.0,0.0,0.0,0.0,0.0,0.0,0.0,0.0,0.0,0.0,0.0,0.0,0.0,0.0,0.0,0.0,0.0,0.0,0.0,0.0,0.0,0.0,0.0,0.0,0.0,3.2904,3.2933,3.4579,3.5479,3.5483,3.5449,3.5442,3.5442,3.5442,3.4557,0.0,0.0,0.0,0.0,0.0,0.0,0.0,0.0,0.0,0.0,0.0,0.0,0.0,0.0,0.0,0.0,0.0,0.0,0.0,0.0,0.0,0.0,0.0,0.0,0.0,0.0,0.0,0.0,0.0,0.0,0.0,0.0,0.0,0.0,0.0,0.0,0.0,0.0,0.0,0.0,0.0,3.1375,3.141,3.1392,3.1605,0.0,3.2192,3.2231,3.2898,3.3043,3.3061,3.3006,0.0,0.0,0.0,0.0,0.0,0.0,0.0,0.0,0.0,0.0,0.0,0.0,0.0,0.0,0.0,0.0,0.0,0.0,0.0,0.0,0.0,0.0,0.0,0.0,0.0,0.0,0.0,0.0,0.0,0.0,0.0,0.0,0.0,0.0,0.0,0.0,0.0,0.0,0.0,0.0,0.0,0.0,0.0,0.0,0.0,0.0,0.0,0.0,0.0,0.0,0.0,0.0,0.0,3.2891,3.2929,3.4619,3.575,3.6212,3.6231,3.65,3.7042,3.7061,3.612,0.0,0.0,0.0,0.0,0.0,0.0,0.0,0.0,0.0,0.0,0.0,0.0,0.0,0.0,0.0,0.0,0.0,0.0,0.0,0.0,0.0,0.0,0.0,0.0,0.0,0.0,0.0,0.0,3.0625,3.0513,3.0026,0.0,0.0,0.0,0.0,0.0,0.0,0.0,0.0,0.0,0.0,3.2501,3.2519,3.2501,0.0,0.0,3.2994,3.2958,3.3482,3.3564,3.3564,3.3571,3.3419,0.0,0.0,0.0,0.0,0.0,0.0,0.0,0.0,0.0,0.0,0.0,0.0,0.0,0.0,0.0,0.0,0.0,0.0,0.0,0.0,0.0,0.0,0.0,0.0,0.0,0.0,0.0,0.0,0.0,0.0,0.0,0.0,0.0,0.0,0.0,0.0,0.0,0.0,0.0,0.0,0.0,0.0,0.0,0.0,0.0,0.0,0.0,0.0,0.0,0.0,0.0,0.0,3.3676,3.3676,3.5365,3.6523,3.7061,3.71,3.7373,3.7969,3.8004,3.7241,0.0,0.0,0.0,0.0,0.0,0.0,0.0,0.0,0.0,0.0,0.0,0.0,0.0,0.0,0.0,0.0,0.0,0.0,0.0,0.0,0.0,0.0,0.0,0.0,0.0,0.0,0.0,0.0,3.1035,3.0925,3.0595,0.0,0.0,0.0,0.0,0.0,0.0,0.0,0.0,0.0,0.0,3.3466,3.372,3.3731,3.3942,3.447,3.4086,3.3844,3.4108,3.3954,3.3807,3.3807,0.0,0.0,0.0,0.0,0.0,0.0,0.0,0.0,0.0,0.0,0.0,0.0,0.0,0.0,0.0,0.0,0.0,0.0,0.0,0.0,0.0,0.0,0.0,0.0,0.0,0.0,0.0,0.0,0.0,0.0,3.0544,0.0,0.0,0.0,0.0,0.0,0.0,0.0,0.0,0.0,0.0,0.0,0.0,0.0,0.0,0.0,0.0,0.0,0.0,0.0,0.0,0.0,0.0,3.5414,3.5446,3.7037,3.7934,3.7973,3.7992,3.8007,3.8046,3.8027,3.76,3.6724,0.0,0.0,0.0,0.0,0.0,0.0,0.0,0.0,0.0,0.0,0.0,0.0,0.0,0.0,0.0,0.0,0.0,0.0,0.0,0.0,0.0,0.0,0.0,0.0,0.0,0.0,3.0289,3.0271,3.0582,0.0,0.0,0.0,0.0,0.0,0.0,0.0,0.0,0.0,0.0,3.3775,3.4062,3.4855,3.4972,3.524,3.6083,3.5492,3.4972,3.4961,3.4351,3.3807,0.0,0.0,0.0,0.0,0.0,0.0,0.0,0.0,0.0,0.0,0.0,0.0,0.0,0.0,0.0,0.0,0.0,0.0,0.0,0.0,0.0,0.0,0.0,0.0,0.0,0.0,0.0,3.0807,3.0807,0.0,0.0,0.0,0.0,0.0,0.0,0.0,0.0,0.0,0.0,0.0,3.5342,3.5998,0.0,0.0,0.0,0.0,0.0,0.0,0.0,0.0,0.0,0.0,0.0,0.0,3.5709,3.5765,3.7301,3.841,3.8906,3.8868,3.9107,3.965,3.9646,3.9261,3.8453,0.0,0.0,0.0,0.0,0.0,0.0,0.0,0.0,0.0,0.0,0.0,0.0,0.0,0.0,0.0,0.0,0.0,0.0,0.0,0.0,0.0,0.0,0.0,0.0,0.0,3.1922,0.0,0.0,0.0,0.0,0.0,0.0,0.0,0.0,0.0,0.0,0.0,3.3894,3.4525,3.4582,3.4919,3.5745,3.5855,3.5965,0.0,0.0,0.0,0.0,0.0,0.0,0.0,0.0,0.0,0.0,0.0,0.0,0.0,0.0,3.3006,3.2981,3.3006,3.2999,3.2987,0.0,0.0,0.0,0.0,0.0,0.0,0.0,0.0,0.0,0.0,0.0,0.0,0.0,0.0,3.1701,0.0,3.137,0.0,0.0,0.0,0.0,0.0,0.0,0.0,0.0,3.5582,3.6242,3.6724,3.7378,3.7631,0.0,3.813,3.7274,0.0,0.0,0.0,0.0,0.0,0.0,0.0,0.0,3.712,3.7178,3.8428,3.9352,3.9852,3.9821,4.0037,4.0554,4.0531,4.0242,3.9727,3.8354,3.7603,0.0,0.0,0.0,0.0,0.0,0.0,0.0,0.0,0.0,0.0,0.0,0.0,0.0,0.0,0.0,0.0,0.0,0.0,0.0,0.0,0.0,0.0,0.0,3.3009,0.0,0.0,0.0,0.0,0.0,0.0,0.0,0.0,0.0,3.326,3.4102,3.4927,3.5268,3.5485,3.5891,3.6729,0.0,0.0,0.0,0.0,0.0,0.0,0.0,3.6285,3.6285,3.6285,3.6119,3.5543,3.5011,3.4669,3.4676,0.0,0.0,3.3899,3.3807,3.3807,3.3807,3.3807,3.3807,3.3807,3.402,3.4222,0.0,0.0,0.0,0.0,0.0,0.0,0.0,0.0,3.3276,3.3278,0.0,3.2428,0.0,0.0,0.0,0.0,0.0,3.5451,0.0,0.0,3.8066,3.8574,3.8613,3.8652,3.8691,3.8711,3.875,3.873,3.8633,3.7632,0.0,0.0,0.0,0.0,0.0,0.0,3.9611,3.9581,4.0345,4.0785,4.0782,4.0722,4.0681,4.0692,4.0565,4.0485,4.0477,3.9723,3.9319,3.9261,3.768,0.0,0.0,0.0,0.0,0.0,0.0,0.0,0.0,0.0,0.0,0.0,0.0,0.0,0.0,0.0,0.0,0.0,0.0,0.0,0.0,3.3502,0.0,0.0,0.0,0.0,0.0,0.0,0.0,0.0,0.0,0.0,3.4527,3.5278,3.5943,3.5998,0.0,0.0,0.0,0.0,3.7842,3.8614,3.8055,3.7573,3.7581,3.693,3.6445,3.6445,0.0,0.0,3.635,3.6306,3.6258,3.6292,3.6193,3.5789,3.4211,3.399,3.3972,3.3954,3.3997,3.3917,3.3954,3.4589,3.5041,3.6933,0.0,0.0,0.0,0.0,3.4598,3.4754,3.4967,3.4985,3.4985,3.4966,3.4715,0.0,0.0,0.0,0.0,0.0,0.0,3.6253,3.7079,3.7333,3.8093,3.9242,3.9868,4.0492,4.1093,4.1118,4.1148,4.1206,4.0305,3.916,3.7863,0.0,0.0,0.0,0.0,3.9812,3.987,4.0563,4.093,4.0951,4.0846,4.0745,4.072,4.0655,4.0612,4.05,4.0265,3.9877,3.9323,3.8838,0.0,0.0,0.0,0.0,0.0,0.0,0.0,0.0,0.0,0.0,0.0,0.0,0.0,0.0,0.0,0.0,0.0,0.0,0.0,3.5317,3.5626,3.5756,0.0,0.0,0.0,0.0,0.0,0.0,0.0,0.0,0.0,3.6701,3.6915,3.7266,0.0,0.0,3.8208,3.9005,3.9058,3.9064,3.9327,3.9158,0.0,3.8996,3.8815,3.8665,3.8665,3.8183,3.7729,3.748,3.6969,3.6537,3.6367,3.6285,3.6127,3.5716,3.5587,3.5601,3.5587,3.5569,3.5569,3.5605,3.5796,3.5917,3.9951,3.8122,3.7057,3.6811,3.7099,3.675,3.7002,3.76,3.76,3.7619,3.758,3.7251,3.7118,3.7138,3.7121,0.0,0.0,0.0,3.8682,3.9528,3.9548,4.0094,4.1047,4.1598,4.2103,4.2605,4.2613,4.265,4.274,4.2198,4.1459,4.0517,0.0,0.0,3.9668,4.0156,4.0586,4.0898,4.1342,4.1724,4.2056,4.1638,4.1182,4.0754,4.0749,4.071,4.0623,4.0616,4.0384,3.9923,3.9532,3.9112,0.0,0.0,0.0,0.0,0.0,0.0,0.0,0.0,0.0,0.0,0.0,3.3612,3.444,0.0,0.0,0.0,3.4946,3.5694,3.6858,3.711,0.0,0.0,0.0,0.0,0.0,0.0,0.0,3.8699,3.8884,3.9066,3.9255,3.9563,3.9649,3.928,3.9413,3.9857,4.0691,0.0,4.0579,4.0579,4.0585,4.0598,4.0585,4.0598,4.0604,4.0598,4.0188,3.9821,3.9577,3.9139,3.8789,3.8658,3.8591,3.8591,3.8598,3.8493,3.7859,3.6585,3.6285,3.6285,3.6285,3.6549,3.6769,4.241,4.2171,3.967,3.8996,3.9465,3.8693,3.9265,4.0685,4.0689,4.0689,4.0669,3.9915,3.9608,3.9611,3.9608,0.0,4.0931,4.1741,4.249,4.3384,4.3381,4.342,4.3459,4.3476,4.35,4.3573,4.3498,4.3486,4.3473,4.3415,4.3402,4.3357,4.2042,4.1386,4.1386,4.1387,4.1758,4.248,4.25,4.2891,4.3652,4.2858,4.1932,4.0953,4.0927,4.0885,4.0797,4.0797,4.0799,4.0776,3.9964,3.9508,3.9486,0.0,0.0,0.0,0.0,0.0,0.0,0.0,0.0,0.0,0.0,0.0,0.0,0.0,0.0,3.8004,3.8004,0.0,3.8104,3.8104,0.0,0.0,0.0,3.8511,3.9319,3.8742,3.8892,4.0419,0.0,0.0,4.1812,4.26,4.2547,4.0997,4.1162,4.1733,4.2521,4.2322,4.2191,4.2113,4.2159,4.2178,4.2079,4.2086,4.2092,4.2092,4.2191,4.2051,4.1991,4.2004,4.2074,4.1856,4.2051,4.1982,4.2051,4.1584,4.0624,3.75,3.6845,3.678,3.6945,3.7448,3.7933,4.5827,4.5702,4.4417,4.3065,4.1738,4.1509,4.1837,4.2466,4.247,4.2489,4.2474,4.2281,4.2205,4.2185,4.22,4.2325,4.2541,4.2749,4.295,4.3165,4.3165,4.3496,4.4075,4.4071,4.4442,4.5017,4.4399,4.4144,4.4204,4.357,4.3297,4.337,4.3052,4.2914,4.3038,4.3039,4.3152,4.3398,4.3398,4.3496,4.3691,4.3476,4.2898,4.1975,4.1932,4.1575,4.0842,4.0799,4.0799,4.0799,4.0582,4.047,4.0449,3.9577,0.0,0.0,0.0,0.0,0.0,0.0,0.0,0.0,0.0,3.7061,3.793,0.0,3.8004,0.0,3.8004,3.8257,3.8915,3.8973,0.0,0.0,3.9915,3.9977,4.0189,4.0623,4.1062,4.1431,4.2066,4.2547,4.2758,4.297,4.3186,4.3335,4.2966,4.2759,4.297,4.2935,4.287,4.2895,4.2909,4.287,4.2895,4.2851,4.288,4.2847,4.2866,4.279,4.2543,4.2498,4.2403,4.2154,4.2094,4.2094,4.215,4.2021,4.1776,4.0872,4.0331,3.9966,3.9966,4.0084,4.0212,4.6496,4.647,4.598,4.4975,4.3706,4.3874,4.407,4.4292,4.4292,4.4112,4.3771,4.3522,4.3402,4.3464,4.398,4.422,4.4263,4.4989,4.5331,4.5316,4.5336,4.5566,4.599,4.599,4.624,4.6687,4.622,4.6027,4.6071,4.5611,4.5239,4.4944,4.4963,4.4835,4.4563,4.3888,4.3717,4.4144,4.4574,4.4605,4.4297,4.4277,4.3846,4.2957,4.2918,4.2655,4.2102,4.171,4.1515,4.1513,4.1114,4.0901,4.086,4.0347,4.0252,0.0,0.0,0.0,0.0,0.0,0.0,0.0,0.0,0.0,0.0,0.0,3.9231,3.925,3.925,3.9444,3.9925,3.9934,4.0254,4.1084,4.1104,4.1219,4.1608,4.2066,4.2369,4.2389,4.312,4.3643,4.3643,4.3974,4.4359,4.4821,4.4494,4.4224,4.4205,4.4224,4.4205,4.4224,4.4205,4.4205,4.4205,4.4201,4.4224,4.4205,4.422,4.4143,4.3967,4.3948,4.3857,4.3693,4.3656,4.3661,4.365,4.3517,4.3432,4.3367,4.3027,4.2367,4.1517,4.1204,4.1118,4.6214,4.6214,4.6195,4.5986,4.5613,4.5922,4.59,4.5647,4.5647,4.5321,4.4731,4.4372,4.4195,4.4268,4.5313,4.5779,4.5875,4.7343,4.803,4.8034,4.8087,4.8101,4.8101,4.8101,4.8101,4.8101,4.8101,4.8101,4.8101,4.8101,4.774,4.7081,4.7043,4.6739,4.6072,4.4702,4.4295,4.4861,4.5664,4.5779,4.5155,4.5156,4.4746,4.3906,4.3867,4.3808,4.3691,4.2969,4.2558,4.2558,4.1804,4.1299,4.118,4.1063,4.0962,0.0,4.0813,0.0,0.0,0.0,0.0,0.0,0.0,0.0,0.0,4.0799,4.0838,4.0955,4.0955,4.1013,4.1132,4.1077,4.1352,4.2063,4.2075,4.2298,4.3019,4.3204,4.3284,4.3284,4.3972,4.4474,4.4494,4.5128,4.5594,4.5537,4.5498,4.5436,4.5552,4.5498,4.5455,4.5594,4.5594,4.5383,4.5441,4.5498,4.5518,4.5537,4.5475,4.5594,4.549,4.5504,4.5547,4.5524,4.5429,4.5496,4.5594,4.5309,4.5123,4.5036,4.4732,4.3975,4.2543,4.1928,4.1642,4.7856,4.7847,4.7847,4.7803,4.7721,4.7776,4.6669,4.4831,4.4831,4.5101,4.5597,4.6153,4.6381,4.6407,4.6624,4.6713,4.6771,4.7346,4.7613,4.7624,4.7962,4.8101,4.8101,4.8101,4.8101,4.8101,4.8101,4.8101,4.8101,4.8101,4.8024,4.7875,4.7889,4.7797,4.7649,0.0,0.0,0.0,4.5957,4.6036,4.5909,4.5993,4.5644,4.4805,4.4746,0.0,4.373,4.3535,4.3437,4.3457,4.33,0.0,0.0,0.0,0.0,0.0,0.0,0.0,0.0,0.0,0.0,0.0,4.1016,4.0901,4.0805,4.0799,4.1093,4.1778,4.1858,4.2152,4.2837,4.2898,4.2963,4.3115,4.3119,4.3163,4.335,4.3886,4.4224,4.4243,4.4897,4.5344,4.5353,4.5513,4.5594,4.5594,4.5594,4.5594,4.5629,4.5614,4.5594,4.5594,4.5594,4.5594,4.5594,4.5594,4.5594,4.5594,4.5594,4.5594,4.5594,4.5594,4.5594,4.5594,4.5594,4.5594,4.5594,4.555,4.5471,4.5504,4.5232,4.4807,4.4177,4.3976,4.3962,4.8315,0.0,4.8315,4.8058,0.0,4.7709,4.6779,4.5283,4.5666,4.5837,4.589,4.6457,4.6701,4.6709,4.6902,4.7005,4.7,4.72,4.7505,4.7909,4.8101,4.8401,4.8803,4.8784,4.8904,4.9091,4.9091,4.9203,4.937,4.9394,4.9163,4.874,4.8759,4.8529,4.812,4.8101,4.7553,4.6452,4.6504,4.6372,4.6037,4.6122,4.6005,4.5576,4.5604,0.0,0.0,0.0,0.0,0.0,0.0,0.0,0.0,4.3023,0.0,4.248,4.2309,4.209,4.1835,4.2074,4.2108,4.1816,4.2125,4.2132,4.1641,4.1992,4.2421,4.2832,4.2891,4.3066,4.3477,4.3511,4.3664,4.4031,4.4053,4.418,4.458,4.4956,4.5184,4.5207,4.5482,4.5696,4.5696,4.5654,4.5599,4.5594,4.5594,4.5787,4.6109,4.5859,4.5594,4.5594,4.5594,4.5594,4.5594,4.5594,4.5614,4.5594,4.5594,4.5594,4.5594,4.5594,4.5594,4.5594,4.5594,4.5594,4.5594,4.5594,4.5594,4.5586,4.5471,4.5312,4.5107,4.4843,4.4644,4.7967,4.7977,4.8094,4.7758,4.7172,4.7258,4.6938,4.6361,0.0,0.0,0.0,4.655,4.6739,4.6754,4.7075,4.7233,4.724,4.7368,4.778,4.8394,4.8485,4.8858,4.9496,4.9496,4.9678,4.9974,5.0006,5.0159,5.0483,5.0559,5.0234,4.96,4.9587,4.9264,4.8606,4.8548,4.8176,4.7468,4.7295,4.6861,4.6137,4.6225,4.6209,4.6072,4.6173,4.6246,4.6268,4.5543,4.5173,4.5215,4.4511,4.4062,4.3945,4.3926,4.3848,4.3711,4.3711,4.3379,4.2695,4.3281,4.3398,4.2676,4.3418,4.3555,4.2695,4.3281,4.3769,4.3906,4.3945,4.3984,4.4141,4.4112,4.4349,4.4989,4.5007,4.526,4.5859,4.6113,4.6185,4.6173,4.6271,4.6296,4.6335,4.6283,4.6104,4.6114,4.6234,4.6283,4.6845,4.6567,4.6186,4.6206,4.6263,4.6148,4.6071,4.6148,4.6052,4.6186,4.6129,4.6033,4.6052,4.6052,4.5975,4.5898,4.5845,4.5782,4.5652,4.5594,4.5594,4.5594,4.5594,4.5594,4.554,4.5166,4.4914,4.6675,4.6721,4.7281,4.7476,4.7399,4.7929,4.8058,4.7911,4.7351,4.7049,4.6975,4.772,4.8024,4.8033,4.8108,4.8117,4.8126,4.8477,4.8698,4.8834,4.9179,4.9383,4.9496,4.9496,4.9525,4.9594,4.9575,4.9603,4.9706,5.0006,5.0101,5.0059,5.0361,5.0433,5.0341,5.0322,4.9913,4.908,4.8446,4.7687,4.6888,4.6982,4.6679,4.5963,4.5959,4.6022,4.6118,4.5891,4.5876,4.6093,4.5905,4.5472,4.4863,4.4824,4.4492,4.3789,4.3711,4.3633,4.3516,4.3633,4.3652,4.3594,4.4316,4.4453,4.3613,4.3633,4.4004,4.4726,4.4805,4.5137,4.5801,4.5898,4.5937,4.6094,4.6094,4.6152,4.6328,4.6845,4.719,4.7189,4.7766,4.8052,4.7971,4.7989,4.7875,4.7882,4.7743,4.7901,4.7891,4.7832,4.7759,4.7759,4.7759,4.7759,4.7562,4.7716,4.7605,4.7759,4.7639,4.7543,4.7543,4.7548,4.7351,4.6836,4.6721,4.6451,4.5879,4.5594,4.5748,4.5787,4.5768,4.5686,4.5686,4.5519,4.5438,4.6802,4.6507,4.711,4.7396,4.7438,4.8045,4.8315,4.826,4.7911,4.7764,4.7783,4.815,4.8315,4.826,4.7838,4.7654,4.7645,4.7388,4.7505,4.792,4.8103,4.842,4.8829,4.8866,4.8955,4.9174,4.9171,4.9288,4.9496,4.9699,4.9773,4.98,5.0177,5.0383,5.0394,5.0599,5.0495,5.0115,4.9307,4.8486,4.7618,4.773,4.7369,4.6541,4.6576,4.6387,4.6008,4.5928,4.5946,4.608,4.6011,4.5852,4.5513,4.5476,4.5354,4.5044,4.5006,4.4818,4.4414,4.4414,4.4609,4.5078,4.5469,4.5566,4.5156,4.5117,4.5293,4.5664,4.5703,4.6055,4.6894,4.7012,4.7187,4.7676,4.7715,4.7695,4.7734,4.7986,4.8195,4.8231,4.8431,4.8625,4.8623,4.8563,4.8472,4.8438,4.8758,4.907,4.9032,4.9426,4.9304,4.8361,4.8101,4.8101,4.8125,4.8101,4.8101,4.8101,4.8101,4.8101,4.8101,4.812,4.7947,4.7639,4.7562,4.7408,4.6951,4.6971,4.6956,4.6917,4.6547,4.6355,4.6278,4.5975,4.5609,4.7081,4.6547,4.718,4.7469,4.7474,4.7956,4.8129,4.8103,4.8085,4.8181,4.8296,4.8315,4.8315,4.8251,4.7645,4.7369,4.7287,4.6718,4.6783,4.7314,4.7369,4.77,4.8241,4.8315,4.8458,4.8735,4.8761,4.893,4.9221,4.9318,4.9397,4.9518,4.9813,4.9962,4.9962,5.0358,5.0559,5.0526,4.9985,4.926,4.8437,4.8503,4.8137,4.7336,4.7346,4.7082,4.6472,4.6232,4.6148,4.6165,4.5991,4.5891,4.5899,4.5901,4.5938,4.6061,4.6068,4.5815,4.5262,4.523,4.5623,4.6482,4.6582,4.668,4.6855,4.6875,4.6797,4.6641,4.6797,4.7207,4.7773,4.7891,4.8164,4.8808,4.8887,4.8789,4.8887,4.9062,4.918,4.918,4.9269,4.935,4.9285,4.9217,4.9235,4.9329,4.9705,5.0055,5.0169,5.0707,5.0311,4.9347,4.8746,4.8821,4.8726,4.8768,4.8783,4.8682,4.8759,4.8856,4.8832,4.8755,4.8562,4.8505,4.8394,4.824,4.8139,4.8043,4.7985,4.7889,4.7485,4.7178,4.712,4.674,4.6129,4.6833,4.6851,4.7409,4.7621,4.7624,4.7672,4.7641,4.7547,4.7488,4.7797,4.8256,4.8315,4.8287,4.8296,4.8214,4.815,4.815,4.8095,4.8086,4.8131,4.8186,4.8223,4.8296,4.8315,4.8325,4.8364,4.8373,4.843,4.8495,4.8796,4.9113,4.9453,4.9532,4.9547,4.9596,4.9968,5.0159,5.0165,5.0446,5.0149,4.9356,4.9283,4.8888,4.8017,4.8021,4.8046,4.7961,4.7267,4.69,4.699,4.6282,4.5869,4.5937,4.5916,4.5923,4.5972,4.5955,4.5883,4.586,4.5928,4.6409,4.7195,4.7416,4.7773,4.8496,4.8613,4.8301,4.7812,4.8203,4.8574,4.8789,4.8789,4.8867,4.9082,4.9062,4.8887,4.9082,4.9609,5.0078,5.0078,5.0586,5.1152,5.0937,5.0898,5.0926,5.0695,5.0738,5.0847,5.0884,5.0977,5.1107,5.0778,5.0675,5.0552,5.0484,5.0518,5.0263,5.0322,5.0414,5.026,5.0183,5.0188,5.0226,4.9394,4.9279,4.9048,4.8524,4.812,4.824,4.8447,4.8235,4.7985,4.7985,4.7793,4.7447,4.7192,4.6857,4.744,4.7919,4.8226,4.8263,4.8227,4.8146,4.7688,4.7659,4.7845,4.7811,4.7957,4.8315,4.8315,4.8315,4.8315,4.8315,4.8315,4.8315,4.8315,4.8315,4.8315,4.8315,4.8315,4.8315,4.8315,4.8315,4.8335,4.8458,4.8621,4.8796,4.9002,4.9147,4.9179,4.954,4.9846,5.0105,5.0031,5.0034,5.0168,5.0168,4.9745,4.8971,4.8875,4.8623,4.8221,4.7781,4.7651,4.7692,4.7364,4.7183,4.7185,4.7208,4.7238,4.7312,4.7402,4.7444,4.7441,4.7486,4.7665,4.8018,4.8175,4.842,4.8773,4.9314,4.9492,4.9199,4.9004,4.9082,4.957,4.9687,4.9863,5.0254,5.0371,5.0351,5.0391,5.0664,5.0918,5.0937,5.1191,5.1387,5.1387,5.1387,5.1367,5.1321,5.1269,5.1269,5.1269,5.1275,5.1275,5.1268,5.1158,5.1064,5.1025,5.0979,5.0896,5.084,5.0822,5.0801,5.0716,5.0693,5.0534,5.0192,5.0111,5.0014,4.9803,4.9644,4.9649,4.9514,4.9048,4.874,4.8216,4.8101,4.8062,4.7902,4.7518,4.788,4.8214,4.8478,4.8491,4.8586,4.8669,4.8158,4.8122,4.8463,4.837,4.8579,4.8891,4.8545,4.8315,4.8315,4.8315,4.8315,4.8315,4.8315,4.8315,4.8315,4.8315,4.8315,4.8315,4.8315,4.8315,4.8315,4.8315,4.8315,4.8363,4.8595,4.8727,4.877,4.9131,4.9475,4.9714,4.9568,4.9833,5.0402,5.0426,5.0166,4.9803,4.9764,4.9452,4.8856,4.8586,4.8471,4.8447,4.8255,4.8101,4.8101,4.8101,4.8139,4.8245,4.8341,4.8386,4.8389,4.8427,4.8566,4.8774,4.8925,4.9118,4.9421,5.0024,5.0418,5.041,4.9899,4.9883,5.0391,5.0527,5.0801,5.1328,5.1387,5.1387,5.1348,5.1387,5.1367,5.1387,5.1367,5.1387,5.1387,5.1387,5.1387,5.1387,5.1387,5.1387,5.1387,5.1387,5.1387,5.1387,5.1308,5.1224,5.1145,5.1091,5.1045,5.1004,5.0962,5.0921,5.0818,5.0804,5.0757,5.0563,5.0667,5.0635,5.038,5.0515,5.063,5.0572,5.0149,4.9534,4.9183,4.8894,4.9086,4.8934,4.8866,4.8929,4.8565,4.7956,4.8001,4.83,4.8789,4.8705,4.9392,5.0315,5.0448,5.0605,5.0442,4.9048,4.8333,4.8333,4.8333,4.8315,4.8315,4.8315,4.8315,4.8315,4.8315,4.8315,4.8315,4.8315,4.8315,4.8315,4.8315,4.8315,4.8324,4.8363,4.8363,4.842,4.8754,4.8938,4.9051,4.928,4.9685,5.0025,4.976,4.9917,5.0474,5.0606,5.0519,5.0418,4.9764,4.9336,4.9336,4.8639,4.8178,4.8159,4.8159,4.8211,4.821,4.82,4.8209,4.8259,4.8412,4.8755,4.941,4.9671,5.008,5.0651,5.0873,5.0982,5.1104,5.0977,5.1054,5.1191,5.1191,5.125,5.1367,5.1387,5.1387,5.1387,5.1387,5.1387,5.1387,5.1387,5.1387,5.1387,5.1387,5.1387,5.1387,5.1387,5.1387,5.1387,5.1387,5.1387,5.1387,5.1387,5.1344,5.1228,5.1185,5.1139,5.1086,5.1062,5.1069,5.1048,5.0994,5.0935,5.0867,5.0818,5.0751,5.0707,5.0688,5.0688,5.0649,5.0649,5.0265,4.9976,5.0399,5.0438,4.9018,4.9018,4.9018,4.8849,4.8614,4.8597,4.8726,4.8882,4.8414,4.8723,4.9472,4.9555,4.9744,5.013,4.999,4.9609,4.9123,4.8563,4.8315,4.8315,4.8315,4.8315,4.8315,4.8315,4.8315,4.8315,4.8315,4.8315,4.8315,4.8315,4.8315,4.8315,4.8315,4.8315,4.8335,4.8439,4.8621,4.8863,4.8813,4.9035,4.9636,4.9326,4.9504,5.0254,5.0325,5.0432,5.0683,5.0399,5.0245,5.0226,4.9918,4.9764,4.9764,4.976,4.9764,4.9764,4.9764,4.9764,4.9774,4.9796,4.9961,5.0257,5.0433,5.0594,5.0907,5.1059,5.1093,5.1139,5.1198,5.1233,5.125,5.1344,5.1387,5.1387,5.1387,5.1387,5.1387,5.1387,5.1387,5.1387,5.1387,5.1387,5.1387,5.1387,5.1387,5.1387,5.1387,5.1387,5.1387,5.1387,5.1387,5.1387,5.1387,5.1386,5.1364,5.1316,5.1277,5.1201,5.1154,5.1135,5.1098,5.1081,5.1022,5.1011,5.0943,5.0897,5.0848,5.0773,5.0747,5.0726,5.0726,5.0716,5.0688,5.0688,5.0688,4.9018,4.9018,4.9018,4.9018,4.9018,4.9018,4.9123,4.925,4.8803,4.8982,4.9517,4.9562,4.9924,5.0464,5.0758,5.0722,5.0288,4.9499,4.9104,4.9095,4.8838,4.8728,4.8673,4.8434,4.8315,4.8315,4.8315,4.8315,4.8315,4.8315,4.8315,4.8315,4.8315,4.8315,4.8315,4.8315,4.8449,4.8595,4.843,4.8649,4.9198,4.8924,4.9092,4.9773,4.9911,5.0165,5.0668,5.0688,5.0688,5.0688,5.0688,5.0688,5.0688,5.0688,5.0688,5.0688,5.0668,5.0688,5.0688,5.0688,5.0688,5.0693,5.0773,5.0831,5.084,5.0914,5.0979,5.1031,5.1064,5.1107,5.1175,5.1283,5.1364,5.1387,5.1387,5.1387,5.1387,5.1387,5.1387,5.1387,5.1387,5.1387,5.1387,5.1387,5.1387,5.1387,5.1387,5.1387,5.1387,5.1387,5.1387,5.1387,5.1387,5.1387,5.1387,5.1367,5.1367,5.1289,5.125,5.1211,5.1185,5.1156,5.113,5.1126,5.1091,5.1047,5.0979,5.0874,5.0815,5.0778,5.0788,5.0795,5.0739,5.0688,5.0688,4.9018,4.9018,4.9018,4.9018,4.9018,4.9018,4.9376,4.976,4.9827,5.0063,5.0607,5.0897,5.1106,5.1694,5.1227,5.1307,5.1585,5.1055,5.0692,5.0508,4.9894,4.9601,4.9545,4.8912,4.8517,4.8443,4.837,4.8333,4.8315,4.8315,4.8315,4.8315,4.8315,4.8315,4.8315,4.8315,4.8306,4.8344,4.8316,4.8504,4.8805,4.8541,4.8719,4.9401,4.9515,4.984,5.058,5.0673,5.0688,5.0688,5.0688,5.0688,5.0688,5.0688,5.0688,5.0688,5.0688,5.0688,5.0688,5.0688,5.0688,5.0693,5.0721,5.0712,5.0726,5.0735,5.0782,5.0875,5.0928,5.0966,5.1091,5.1174,5.1261,5.1367,5.1387,5.1387,5.1387,5.1387,5.1387,5.1387,5.1387,5.1387,5.1387,5.1387,5.1387,5.1387,5.1387,5.1387,5.1387,5.1387,5.1387,5.1387,5.1387,5.1387,5.1387,5.1387,5.1387,5.1387,5.1367,5.1348,5.1308,5.1283,5.1246,5.1217,5.116,5.1111,5.1091,5.1003,5.0969,5.0932,5.0919,5.0855,5.0784,5.0739,5.0702,4.9018,4.9018,4.9018,4.9018,4.9018,4.9018,4.9138,4.9299,4.9316,4.9693,5.0255,5.0352,5.0743,5.137,5.1581,5.1827,5.208,5.2261,5.1875,5.091,5.0545,5.0417,5.038,5.0141,4.9738,4.927,4.9197,4.8875,4.8425,4.8351,4.8315,4.8315,4.8315,4.8315,4.8315,4.8315,4.8315,4.8315,4.8315,4.8373,4.8467,4.8364,4.855,4.9002,4.9083,4.9356,4.9853,5.0405,5.0678,5.0678,5.0688,5.0688,5.0688,5.0688,5.0688,5.0688,5.0688,5.0688,5.0688,5.0688,5.0688,5.0688,5.0688,5.0688,5.0688,5.0688,5.0707,5.0769,5.084,5.0925,5.0969,5.1076,5.1169,5.1243,5.1348,5.1387,5.1387,5.1387,5.1387,5.1387,5.1387,5.1387,5.1387,5.1387,5.1387,5.1387,5.1387,5.1387,5.1387,5.1387,5.1387,5.1387,5.1387,5.1387,5.1387,5.1387,5.1387,5.1387,5.1387,5.1387,5.1387,5.1367,5.1328,5.1294,5.124,5.1192,5.1177,5.1148,5.11,5.1036,5.0985,5.0921,5.0832,5.0789,5.0752,4.9018,4.9018,4.9018,4.9018,4.9018,4.9018,4.9018,4.9018,4.9018,4.9243,4.9578,4.962,5.0036,5.0662,5.1133,5.1481,5.1783,5.2456,5.2251,5.1375,5.1255,5.1242,5.1187,5.0912,5.0582,5.0151,5.0059,4.9774,4.926,4.9214,4.9085,4.8838,4.8783,4.8618,4.8351,4.8315,4.8315,4.8315,4.8315,4.8315,4.8315,4.8315,4.8421,4.8657,4.883,4.9019,4.9318,4.9905,5.033,5.0478,5.0609,5.0683,5.0688,5.0688,5.0688,5.0688,5.0688,5.0688,5.0688,5.0688,5.0688,5.0688,5.0688,5.0688,5.0688,5.0688,5.0688,5.0702,5.076,5.0835,5.0844,5.0952,5.1053,5.1094,5.1229,5.1343,5.1367,5.1387,5.1387,5.1387,5.1387,5.1387,5.1387,5.1387,5.1387,5.1387,5.1387,5.1387,5.1387,5.1387,5.1387,5.1387,5.1387,5.1387,5.1387,5.1387,5.1387,5.1387,5.1387,5.1387,5.1387,5.1387,5.1367,5.1367,5.1315,5.1312,5.1286,5.1273,5.1229,5.1145,5.1062,5.0989,5.0933,5.0844,5.0789,4.9018,4.9018,4.9018,4.9018,4.9018,4.9018,4.9018,4.9018,4.9018,4.9032,4.9046,4.9107,4.9432,4.9933,5.0321,5.0752,5.1215,5.203,5.2356,5.2179,5.2101,5.2068,5.1977,5.1499,5.1132,5.0894,5.0875,5.0784,5.0508,5.0527,5.0427,4.9729,4.9619,4.9307,4.8802,4.848,4.8489,4.8498,4.837,4.8315,4.8315,4.8315,4.8316,4.8363,4.8639,4.8847,4.8922,4.9303,4.9712,5.008,5.0493,5.0688,5.0688,5.0688,5.0688,5.0688,5.0688,5.0688,5.0688,5.0688,5.0688,5.0688,5.0688,5.0688,5.0688,5.0688,5.0688,5.0688,5.0712,5.0712,5.074,5.0818,5.0908,5.0943,5.1109,5.1266,5.1367,5.1387,5.1387,5.1387,5.1387,5.1387,5.1387,5.1387,5.1387,5.1387,5.1387,5.1387,5.1387,5.1387,5.1387,5.1387,5.1387,5.1387,5.1387,5.1387,5.1387,5.1387,5.1387,5.1387,5.1387,5.1387,5.1387,5.1387,5.1387,5.1387,5.1387,5.1348,5.1308,5.1252,5.1166,5.1105,5.102,5.0919,5.0822,4.9018,4.9018,4.9018,4.9018,4.9018,4.9018,4.9018,4.9018,4.9018,4.9018,4.9018,4.9018,4.9359,5.0004,5.0554,5.1189,5.1759,5.252,5.2897,5.2919,5.2898,5.2884,5.2884,5.2664,5.2234,5.1756,5.1665,5.1371,5.0857,5.093,5.0747,5.0508,5.0472,5.0362,5.0105,4.9527,4.927,4.9142,4.86,4.8351,4.8333,4.8351,4.8315,4.8316,4.843,4.8477,4.8495,4.8856,4.9408,5.0068,5.0483,5.0688,5.0673,5.0683,5.0688,5.0688,5.0688,5.0688,5.0688,5.0688,5.0688,5.0688,5.0688,5.0688,5.0688,5.0688,5.0688,5.0688,5.0688,5.0688,5.0702,5.0735,5.0827,5.102,5.1131,5.126,5.1348,5.1387,5.1387,5.1387,5.1387,5.1387,5.1387,5.1387,5.1387,5.1387,5.1387,5.1387,5.1387,5.1387,5.1387,5.1387,5.1387,5.1387,5.1387,5.1387,5.1387,5.1387,5.1387,5.1387,5.1387,5.1387,5.1387,5.1387,5.1387,5.1387,5.1387,5.1367,5.1348,5.1308,5.1262,5.1174,5.1079,5.0975,5.0847,4.9018,4.9018,4.9018,4.9018,4.9018,4.9018,4.9018,4.9018,4.9018,4.9018,4.9018,4.9018,4.9195,4.9637,5.031,5.0823,5.133,5.2277,5.2695,5.278,5.3013,5.3148,5.3177,5.3177,5.2939,5.2564,5.2491,5.227,5.1922,5.1811,5.1628,5.1353,5.1298,5.1132,5.071,5.0398,5.0115,5.0023,4.9572,4.9224,4.8875,4.8838,4.8581,4.8425,4.8315,4.8315,4.8373,4.8692,4.9192,4.9787,5.022,5.0456,5.0472,5.0619,5.0683,5.0688,5.0688,5.0688,5.0688,5.0688,5.0688,5.0688,5.0688,5.0688,5.0688,5.0688,5.0688,5.0688,5.0688,5.0688,5.0688,5.0688,5.0793,5.0969,5.1107,5.1217,5.1386,5.1387,5.1387,5.1387,5.1387,5.1387,5.1387,5.1387,5.1387,5.1387,5.1387,5.1387,5.1387,5.1387,5.1387,5.1387,5.1387,5.1387,5.1387,5.1387,5.1387,5.1387,5.1387,5.1387,5.1387,5.1387,5.1387,5.1387,5.1387,5.1387,5.1387,5.1387,5.1387,5.1348,5.1308,5.1225,5.1122,5.1034,5.09,4.9018,4.9018,4.9018,4.9018,4.9018,4.9018,4.9018,4.9018,4.9018,4.9018,4.9018,4.9018,4.9106,4.9136,5.0075,5.0255,5.0462,5.1898,5.2266,5.2565,5.2886,5.3185,5.3196,5.3196,5.3141,5.3067,5.3177,5.3104,5.292,5.3031,5.2755,5.227,5.2134,5.1785,5.1389,5.1041,5.0912,5.0894,5.0637,5.0233,4.9802,4.9692,4.9426,4.8957,4.8627,4.8462,4.8438,4.864,4.8996,4.936,4.9839,5.0123,5.019,5.0488,5.0673,5.0688,5.0688,5.0688,5.0688,5.0688,5.0688,5.0688,5.0688,5.0688,5.0688,5.0688,5.0688,5.0688,5.0688,5.0688,5.0688,5.0688,5.0779,5.0923,5.1022,5.117,5.1337,5.1387,5.1387,5.1387,5.1387,5.1387,5.1387,5.1387,5.1387,5.1387,5.1387,5.1387,5.1387,5.1387,5.1387,5.1387,5.1387,5.1387,5.1387,5.1387,5.1387,5.1387,5.1387,5.1387,5.1387,5.1387,5.1387,5.1387,5.1387,5.1387,5.1387,5.1387,5.1387,5.1387,5.1348,5.1269,5.116,5.1099,5.0978,4.9018,4.9018,4.9018,4.9018,4.9018,4.9018,4.9018,4.9018,4.9018,4.9018,4.9018,4.9018,4.9286,4.9763,5.0449,5.1138,5.1562,5.244,5.2959,5.2999,5.3082,5.3196,5.3196,5.3196,5.3196,5.3196,5.3196,5.3196,5.3196,5.3196,5.3141,5.2939,5.281,5.2829,5.2572,5.1977,5.1738,5.1638,5.1187,5.0839,5.0618,5.0527,5.0417,5.0086,4.9609,4.8948,4.8434,4.8383,4.8477,4.877,4.9467,5.0012,5.0129,5.0456,5.0663,5.0688,5.0688,5.0688,5.0688,5.0688,5.0688,5.0688,5.0688,5.0688,5.0688,5.0688,5.0688,5.0688,5.0688,5.0688,5.0688,5.0688,5.0761,5.089,5.101,5.1139,5.1228,5.1328,5.1387,5.1387,5.1387,5.1387,5.1387,5.1387,5.1387,5.1387,5.1387,5.1387,5.1387,5.1387,5.1387,5.1387,5.1387,5.1387,5.1387,5.1387,5.1387,5.1387,5.1387,5.1387,5.1387,5.1387,5.1387,5.1387,5.1387,5.1387,5.1387,5.1387,5.1387,5.1387,5.1387,5.1269,5.1186,5.112,5.1014,4.9018,4.9018,4.9018,4.9018,4.9018,4.9018,4.9018,4.9018,4.9018,4.9018,4.9018,4.9018,4.9212,4.9605,5.0612,5.1317,5.1808,5.2743,5.3185,5.3175,5.3196,5.3196,5.3196,5.3196,5.3196,5.3196,5.3196,5.3196,5.3196,5.3196,5.3196,5.3196,5.3196,5.3141,5.3196,5.2766,5.259,5.2509,5.2179,5.1775,5.1426,5.1353,5.1077,5.0839,5.0343,4.9766,4.9031,4.894,4.8683,4.8615,4.9075,4.9638,4.9853,5.0195,5.0483,5.0668,5.0688,5.0688,5.0688,5.0688,5.0688,5.0688,5.0688,5.0688,5.0688,5.0688,5.0688,5.0688,5.0688,5.0688,5.0688,5.0688,5.0743,5.0816,5.0928,5.1033,5.1161,5.1289,5.1387,5.1387,5.1387,5.1387,5.1387,5.1387,5.1387,5.1387,5.1387,5.1387,5.1387,5.1387,5.1387,5.1387,5.1387,5.1387,5.1387,5.1387,5.1387,5.1387,5.1387,5.1387,5.1387,5.1387,5.1387,5.1387,5.1387,5.1387,5.1387,5.1387,5.1387,5.1387,5.1348,5.1269,5.1175,5.1107,5.0975,4.9018,4.9018,4.9018,4.9018,4.9018,4.9018,4.9018,4.9018,4.9018,4.9018,4.9018,4.9018,4.9048,4.9318,5.0328,5.0955,5.1624,5.2515,5.3196,5.3196,5.3196,5.3196,5.3196,5.3196,5.3196,5.3196,5.3196,5.3196,5.3196,5.3196,5.3196,5.3196,5.3196,5.3196,5.3196,5.3196,5.3104,5.3031,5.2976,5.2737,5.2289,5.216,5.1793,5.1187,5.1004,5.0573,4.9949,4.9711,4.9399,4.861,4.8825,4.9117,4.9408,4.9859,5.0277,5.0663,5.0688,5.0688,5.0688,5.0688,5.0688,5.0688,5.0688,5.0688,5.0688,5.0688,5.0688,5.0688,5.0688,5.0688,5.0688,5.0688,5.0688,5.0735,5.0811,5.0962,5.1096,5.125,5.1348,5.1387,5.1387,5.1387,5.1387,5.1387,5.1387,5.1387,5.1387,5.1387,5.1387,5.1387,5.1387,5.1387,5.1387,5.1387,5.1387,5.1387,5.1387,5.1387,5.1387,5.1387,5.1387,5.1387,5.1387,5.1387,5.1387,5.1387,5.1387,5.1387,5.1387,5.1387,5.1367,5.1289,5.1213,5.1113,5.0929,4.9018,4.9018,4.9018,4.9018,4.9018,4.9018,4.9018,4.9018,4.9018,4.9018,4.9018,4.9018,4.9018,4.9243,4.9763,5.0779,5.1832,5.2787,5.3196,5.3196,5.3196,5.3196,5.3196,5.3196,5.3196,5.3196,5.3196,5.3196,5.3196,5.3196,5.3196,5.3196,5.3196,5.3196,5.3196,5.3196,5.3196,5.3196,5.3196,5.3049,5.2939,5.2839,5.2564,5.1867,5.1793,5.1371,5.0784,5.0545,5.0215,4.95,4.9449,4.9343,4.9404,4.9831,5.0283,5.0554,5.0678,5.0688,5.0688,5.0688,5.0688,5.0688,5.0688,5.0688,5.0688,5.0688,5.0688,5.0688,5.0688,5.0688,5.0688,5.0688,5.0688,5.0726,5.0801,5.0942,5.1071,5.1179,5.1291,5.1348,5.1367,5.1387,5.1387,5.1387,5.1387,5.1387,5.1387,5.1387,5.1387,5.1387,5.1387,5.1387,5.1387,5.1387,5.1387,5.1387,5.1387,5.1387,5.1387,5.1387,5.1387,5.1387,5.1387,5.1387,5.1387,5.1387,5.1387,5.1387,5.1387,5.1387,5.1367,5.1328,5.1211,5.1081,5.095,4.9018,4.9018,4.9018,4.9018,4.9018,4.9018,4.9018,4.9018,4.9018,4.9018,4.9018,4.9018,4.9018,4.9182,4.9707,5.0796,5.1982,5.2853,5.3175,5.3196,5.3196,5.3196,5.3196,5.3196,5.3196,5.3196,5.3196,5.3196,5.3196,5.3196,5.3196,5.3196,5.3196,5.3196,5.3196,5.3196,5.3196,5.3196,5.3196,5.3196,5.3196,5.3196,5.292,5.2737,5.2546,5.2197,5.1591,5.1426,5.1022,5.0398,5.0225,5.0184,5.0208,5.0259,5.0399,5.0445,5.0589,5.0688,5.0688,5.0688,5.0688,5.0688,5.0688,5.0688,5.0688,5.0688,5.0688,5.0688,5.0688,5.0688,5.0688,5.0688,5.0688,5.0707,5.077,5.0848,5.0966,5.1093,5.1199,5.1315,5.1367,5.1387,5.1387,5.1387,5.1387,5.1387,5.1387,5.1387,5.1387,5.1387,5.1387,5.1387,5.1387,5.1387,5.1387,5.1387,5.1387,5.1387,5.1387,5.1387,5.1387,5.1387,5.1387,5.1387,5.1387,5.1387,5.1387,5.1387,5.1387,5.1387,5.1387,5.1328,5.1172,5.1045,5.0929,4.9018,4.9018,4.9018,4.9018,4.9018,4.9018,4.9018,4.9018,4.9018,4.9018,4.9018,4.9018,4.9018,4.9228,4.9907,5.0889,5.1994,5.2736,5.3164,5.3196,5.3196,5.3196,5.3196,5.3196,5.3196,5.3196,5.3196,5.3196,5.3196,5.3196,5.3196,5.3196,5.3196,5.3196,5.3196,5.3196,5.3196,5.3196,5.3196,5.3196,5.3196,5.3196,5.3196,5.3196,5.3196,5.2858,5.2307,5.2234,5.1811,5.1279,5.1034,5.1055,5.1157,5.1048,5.0733,5.0387,5.0536,5.0653,5.0688,5.0688,5.0688,5.0688,5.0688,5.0688,5.0688,5.0688,5.0688,5.0688,5.0688,5.0688,5.0688,5.0688,5.0688,5.0688,5.0707,5.0757,5.0908,5.1031,5.1125,5.1244,5.132,5.1367,5.1387,5.1387,5.1387,5.1387,5.1387,5.1387,5.1387,5.1387,5.1387,5.1387,5.1387,5.1387,5.1387,5.1387,5.1387,5.1387,5.1387,5.1387,5.1387,5.1387,5.1387,5.1387,5.1387,5.1387,5.1387,5.1387,5.1387,5.1387,5.1387,5.1328,5.1191,5.1089,5.1004,4.9018,4.9018,4.9018,4.9018,4.9018,4.9018,4.9018,4.9018,4.9018,4.9018,4.9018,4.9001,4.9017,4.9346,5.0393,5.1021,5.1642,5.2561,5.3185,5.3196,5.3196,5.3196,5.3196,5.3196,5.3196,5.3196,5.3196,5.3196,5.3196,5.3196,5.3196,5.3196,5.3196,5.3196,5.3196,5.3196,5.3196,5.3196,5.3196,5.3196,5.3196,5.3196,5.3196,5.3196,5.3196,5.3141,5.292,5.2865,5.2564,5.1977,5.1848,5.153,5.1113,5.1532,5.1307,5.0916,5.0679,5.0688,5.0726,5.0688,5.0688,5.0688,5.0688,5.0688,5.0688,5.0688,5.0688,5.0688,5.0688,5.0688,5.0688,5.0688,5.0688,5.0688,5.0693,5.0766,5.0886,5.0976,5.1077,5.1171,5.1267,5.1344,5.1387,5.1387,5.1387,5.1387,5.1387,5.1387,5.1387,5.1387,5.1387,5.1387,5.1387,5.1387,5.1387,5.1387,5.1387,5.1387,5.1387,5.1387,5.1387,5.1387,5.1387,5.1387,5.1387,5.1387,5.1387,5.1387,5.1387,5.1387,5.1387,5.1328,5.1211,5.1131,5.1036,4.9018,4.9018,4.9018,4.9018,4.9018,4.9018,4.9018,4.9018,4.9018,4.9018,4.9018,4.9018,4.9197,4.9693,5.0676,5.1335,5.1808,5.2725,5.3175,5.3196,5.3196,5.3196,5.3196,5.3196,5.3196,5.3196,5.3196,5.3196,5.3196,5.3196,5.3196,5.3196,5.3196,5.3196,5.3196,5.3196,5.3196,5.3196,5.3196,5.3196,5.3196,5.3196,5.3196,5.3196,5.3196,5.3196,5.3196,5.3177,5.3067,5.2692,5.2664,5.2553,5.2302,5.2478,5.245,5.2266,5.216,5.1702,5.0899,5.0765,5.0803,5.0726,5.0726,5.0688,5.0688,5.0688,5.0688,5.0688,5.0688,5.0707,5.0726,5.0688,5.0688,5.0726,5.0957,5.0832,5.0913,5.0923,5.1014,5.1115,5.1224,5.1296,5.1367,5.1387,5.1387,5.1387,5.1387,5.1387,5.1387,5.1387,5.1387,5.1387,5.1387,5.1387,5.1387,5.1387,5.1387,5.1387,5.1387,5.1387,5.1387,5.1387,5.1387,5.1387,5.1387,5.1387,5.1387,5.1387,5.1387,5.1387,5.1387,5.1328,5.1241,5.1154,5.105,4.9018,4.9018,4.9018,4.9018,4.9018,4.9018,4.9018,4.9018,4.9018,4.9018,4.9063,4.9182,4.9563,5.0146,5.0898,5.1661,5.2124,5.2864,5.3124,5.3196,5.3196,5.3196,5.3196,5.3196,5.3196,5.3196,5.3196,5.3196,5.3196,5.3196,5.3196,5.3196,5.3196,5.3196,5.3196,5.3196,5.3196,5.3196,5.3196,5.3196,5.3196,5.3196,5.3196,5.3196,5.3196,5.3196,5.3196,5.3196,5.3177,5.3159,5.3122,5.3031,5.3021,5.3153,5.3169,5.3043,5.3042,5.2694,5.1917,5.1553,5.1342,5.1265,5.0996,5.101,5.0688,5.0688,5.0688,5.0688,5.1029,5.101,5.1048,5.1202,5.1548,5.1587,5.1529,5.1265,5.1077,5.1226,5.1183,5.1096,5.1199,5.1271,5.1348,5.1387,5.1387,5.1387,5.1387,5.1387,5.1387,5.1387,5.1387,5.1387,5.1387,5.1387,5.1387,5.1387,5.1387,5.1387,5.1387,5.1387,5.1387,5.1387,5.1387,5.1387,5.1387,5.1387,5.1387,5.1387,5.1387,5.1387,5.1387,5.1348,5.1286,5.1186,5.1033,4.9018,4.9018,4.9018,4.9018,4.9018,4.9018,4.9018,4.9018,4.9018,4.9018,4.9077,4.9593,4.9893,5.0366,5.13,5.2,5.2183,5.2864,5.3114,5.3196,5.3196,5.3196,5.3196,5.3196,5.3196,5.3196,5.3196,5.3196,5.3196,5.3196,5.3196,5.3196,5.3196,5.3196,5.3196,5.3196,5.3196,5.3196,5.3196,5.3196,5.3196,5.3196,5.3196,5.3196,5.3196,5.3196,5.3196,5.3196,5.3196,5.3196,5.3196,5.3196,5.323,5.3515,5.3523,5.3527,5.3726,5.3525,5.3149,5.2779,5.2895,5.2755,5.2313,5.1606,5.1226,5.088,5.0765,5.1015,5.1568,5.1793,5.2063,5.2409,5.2544,5.2529,5.2318,5.2164,5.1944,5.1726,5.1642,5.1263,5.116,5.1224,5.1308,5.1348,5.1387,5.1387,5.1387,5.1387,5.1387,5.1387,5.1387,5.1387,5.1387,5.1387,5.1387,5.1387,5.1387,5.1387,5.1387,5.1387,5.1387,5.1387,5.1387,5.1387,5.1387,5.1387,5.1387,5.1387,5.1387,5.1387,5.1387,5.1348,5.1287,5.1195,5.1005,4.9018,4.9018,4.9018,4.9018,4.9018,4.9018,4.9018,4.9018,4.9018,4.9018,4.9031,4.9693,5.0255,5.0832,5.1581,5.237,5.2758,5.302,5.3175,5.3196,5.3196,5.3196,5.3196,5.3196,5.3196,5.3196,5.3196,5.3196,5.3196,5.3196,5.3196,5.3196,5.3196,5.3196,5.3196,5.3196,5.3196,5.3196,5.3196,5.3196,5.3196,5.3196,5.3196,5.3196,5.3196,5.3196,5.3196,5.3196,5.3196,5.3196,5.3196,5.3196,5.323,5.3575,5.3782,5.3903,5.4249,5.4454,5.4386,5.3841,5.3217,5.3178,5.2851,5.2505,5.2087,5.2164,5.2222,5.2375,5.2452,5.2678,5.2794,5.2986,5.3082,5.3159,5.3178,5.3082,5.2844,5.2582,5.2058,5.1674,5.1332,5.1169,5.1255,5.1328,5.1367,5.1387,5.1387,5.1387,5.1387,5.1387,5.1387,5.1387,5.1387,5.1387,5.1387,5.1387,5.1387,5.1387,5.1387,5.1387,5.1387,5.1387,5.1387,5.1387,5.1387,5.1387,5.1387,5.1387,5.1387,5.1387,5.1387,5.1367,5.1281,5.1198,5.1006,4.9018,4.9018,4.9018,4.9018,4.9018,4.9018,4.9018,4.9018,4.9018,4.9018,4.9046,4.9707,5.0404,5.1125,5.1808,5.249,5.2977,5.3185,5.3185,5.3196,5.3196,5.3196,5.3196,5.3196,5.3196,5.3196,5.3196,5.3196,5.3196,5.3196,5.3196,5.3196,5.3196,5.3196,5.3196,5.3196,5.3196,5.3196,5.3196,5.3196,5.3196,5.3196,5.3196,5.3196,5.3196,5.3196,5.3196,5.3196,5.3196,5.3196,5.3196,5.3196,5.3285,5.3494,5.3851,5.4272,5.4701,5.5095,5.5072,5.4762,5.3827,5.376,5.3659,5.3447,5.3294,5.3217,5.2953,5.3068,5.3313,5.3582,5.3626,5.3914,5.4164,5.4376,5.4337,5.4222,5.3722,5.3355,5.2659,5.2097,5.1767,5.1429,5.1219,5.132,5.1367,5.1387,5.1387,5.1387,5.1387,5.1387,5.1387,5.1387,5.1387,5.1387,5.1387,5.1387,5.1387,5.1387,5.1387,5.1387,5.1387,5.1387,5.1387,5.1387,5.1387,5.1387,5.1387,5.1387,5.1387,5.1387,5.1387,5.1367,5.1256,5.1167,5.1044,4.9018,4.9018,4.9018,4.9018,4.9018,4.9018,4.9018,4.9018,4.9018,4.9018,4.9092,4.9707,5.0407,5.1125,5.1808,5.2502,5.3053,5.3196,5.3196,5.3196,5.3196,5.3196,5.3196,5.3196,5.3196,5.3196,5.3196,5.3196,5.3196,5.3196,5.3196,5.3196,5.3196,5.3196,5.3196,5.3196,5.3196,5.3196,5.3196,5.3196,5.3196,5.3196,5.3196,5.3196,5.3196,5.3196,5.3196,5.3196,5.3196,5.3196,5.3196,5.3196,5.322,5.3241,5.3515,5.395,5.4346,5.4738,5.5076,5.538,5.5085,5.4568,5.4453,5.4222,5.3563,5.3351,5.353,5.3857,5.4087,5.4395,5.4708,5.5035,5.5222,5.528,5.5203,5.5068,5.4549,5.3996,5.3325,5.2554,5.2179,5.1874,5.1507,5.1296,5.1365,5.1387,5.1387,5.1387,5.1387,5.1387,5.1387,5.1387,5.1387,5.1387,5.1387,5.1387,5.1387,5.1387,5.1387,5.1387,5.1387,5.1387,5.1387,5.1387,5.1387,5.1387,5.1387,5.1387,5.1387,5.1387,5.1387,5.1367,5.125,5.1169,5.1077,4.9018,4.9018,4.9018,4.9018,4.9018,4.9018,4.9018,4.9018,4.9018,4.9018,4.9153,4.9707,5.0421,5.1125,5.1783,5.2468,5.3092,5.3196,5.3196,5.3196,5.3196,5.3196,5.3196,5.3196,5.3196,5.3196,5.3196,5.3196,5.3196,5.3196,5.3196,5.3196,5.3196,5.3196,5.3196,5.3196,5.3196,5.3196,5.3196,5.3196,5.3196,5.3196,5.3196,5.3196,5.3196,5.3196,5.3196,5.3196,5.3196,5.3196,5.3196,5.3196,5.3196,5.3196,5.3514,5.4023,5.4468,5.4812,5.5269,5.5618,5.5582,5.5357,5.5189,5.5049,5.4857,5.4857,5.4862,5.4761,5.4914,5.5189,5.5439,5.5458,5.5555,5.5574,5.5535,5.5535,5.517,5.4612,5.3961,5.3089,5.2531,5.1874,5.1378,5.1255,5.1298,5.1366,5.1387,5.1387,5.1387,5.1387,5.1387,5.1387,5.1387,5.1387,5.1387,5.1387,5.1387,5.1387,5.1387,5.1387,5.1387,5.1387,5.1387,5.1387,5.1387,5.1387,5.1387,5.1387,5.1387,5.1387,5.1387,5.1387,5.1328,5.1247,5.1146,4.9018,4.9018,4.9018,4.9018,4.9018,4.9018,4.9018,4.9018,4.9018,4.9018,4.9107,4.9492,5.0199,5.0981,5.1569,5.2388,5.3103,5.3196,5.3196,5.3196,5.3196,5.3196,5.3196,5.3196,5.3196,5.3196,5.3196,5.3196,5.3196,5.3196,5.3196,5.3196,5.3196,5.3196,5.3196,5.3196,5.3196,5.3196,5.3196,5.3196,5.3196,5.3196,5.3196,5.3196,5.3196,5.3196,5.3196,5.3196,5.3196,5.3196,5.3196,5.3196,5.3196,5.3293,5.3502,5.3916,5.4439,5.4848,5.5466,5.5673,5.567,5.5631,5.5689,5.5689,5.5689,5.5516,5.5555,5.5574,5.5689,5.5689,5.5689,5.5689,5.5689,5.5689,5.5689,5.567,5.5516,5.4939,5.415,5.3316,5.2419,5.1794,5.1265,5.1255,5.124,5.1298,5.1367,5.1387,5.1387,5.1387,5.1387,5.1387,5.1387,5.1387,5.1387,5.1387,5.1387,5.1387,5.1387,5.1387,5.1387,5.1387,5.1387,5.1387,5.1387,5.1387,5.1387,5.1387,5.1387,5.1387,5.1387,5.1387,5.1387,5.1317,5.1212,4.9018,4.9018,4.9018,4.9018,4.9018,4.9018,4.9018,4.9018,4.9018,4.9018,4.9017,4.9048,4.9751,5.0836,5.1099,5.1862,5.2915,5.3103,5.3196,5.3196,5.3196,5.3196,5.3196,5.3196,5.3196,5.3196,5.3196,5.3196,5.3196,5.3196,5.3196,5.3196,5.3196,5.3196,5.3196,5.3196,5.3196,5.3196,5.3196,5.3196,5.3196,5.3196,5.3196,5.3196,5.3196,5.3196,5.3196,5.3196,5.3196,5.3196,5.3196,5.3196,5.3196,5.3196,5.3206,5.3522,5.419,5.4938,5.5524,5.5678,5.5689,5.5689,5.5689,5.5689,5.5689,5.5689,5.5689,5.5689,5.5689,5.5689,5.5689,5.5689,5.5689,5.5689,5.5689,5.5651,5.5555,5.4977,5.4145,5.3261,5.2261,5.1588,5.114,5.1052,5.1143,5.124,5.1299,5.1367,5.1387,5.1387,5.1387,5.1387,5.1387,5.1387,5.1387,5.1387,5.1387,5.1387,5.1387,5.1387,5.1387,5.1387,5.1387,5.1387,5.1387,5.1387,5.1387,5.1387,5.1387,5.1387,5.1387,5.1387,5.1387,5.1328,5.123,4.9018,4.9018,4.9018,4.9018,4.9018,4.9018,4.9018,4.9018,4.9018,4.9018,4.9018,4.9018,4.9551,5.031,5.0863,5.1611,5.233,5.2904,5.3143,5.3196,5.3196,5.3196,5.3196,5.3196,5.3196,5.3196,5.3196,5.3196,5.3196,5.3196,5.3196,5.3196,5.3196,5.3196,5.3196,5.3196,5.3196,5.3196,5.3196,5.3196,5.3196,5.3196,5.3196,5.3196,5.3196,5.3196,5.3196,5.3196,5.3196,5.3196,5.3196,5.3196,5.3196,5.3238,5.3347,5.4138,5.4671,5.5173,5.5588,5.5689,5.5689,5.5689,5.5689,5.5689,5.5689,5.5689,5.5689,5.5689,5.5689,5.5689,5.5689,5.5689,5.5689,5.5689,5.5689,5.567,5.5516,5.4977,5.4126,5.3024,5.2043,5.1419,5.1006,5.094,5.104,5.1145,5.124,5.1298,5.1367,5.1387,5.1387,5.1387,5.1387,5.1387,5.1387,5.1387,5.1387,5.1387,5.1387,5.1387,5.1387,5.1387,5.1387,5.1387,5.1387,5.1387,5.1387,5.1387,5.1387,5.1387,5.1387,5.1387,5.1387,5.1328,5.1269,4.9018,4.9018,4.9018,4.9018,4.9018,4.9018,4.9018,4.9018,4.9018,4.9018,4.9018,4.9018,4.9374,5.0019,5.0517,5.1176,5.2124,5.249,5.2831,5.3196,5.3196,5.3196,5.3196,5.3196,5.3196,5.3196,5.3196,5.3196,5.3196,5.3196,5.3196,5.3196,5.3196,5.3196,5.3196,5.3196,5.3196,5.3196,5.3196,5.3196,5.3196,5.3196,5.3196,5.3196,5.3196,5.3196,5.3196,5.3196,5.3196,5.3196,5.3196,5.3196,5.3196,5.3227,5.3767,5.4436,5.4693,5.5153,5.556,5.5684,5.5689,5.5689,5.5689,5.5689,5.5689,5.5689,5.5689,5.5689,5.5689,5.5689,5.5689,5.5689,5.5689,5.5689,5.5689,5.5689,5.5324,5.492,5.3933,5.2813,5.1982,5.1318,5.1001,5.0937,5.0939,5.1032,5.1136,5.1238,5.1318,5.1367,5.1387,5.1387,5.1387,5.1387,5.1387,5.1387,5.1387,5.1387,5.1387,5.1387,5.1387,5.1387,5.1387,5.1387,5.1387,5.1387,5.1387,5.1387,5.1387,5.1387,5.1387,5.1387,5.1387,5.1387,5.1308,4.9018,4.9018,4.9018,4.9018,4.9018,4.9018,4.9018,4.9018,4.9018,4.9018,4.9018,4.9018,4.9299,4.9766,5.009,5.073,5.1531,5.203,5.2524,5.3114,5.3196,5.3196,5.3196,5.3196,5.3196,5.3196,5.3196,5.3196,5.3196,5.3196,5.3196,5.3196,5.3196,5.3196,5.3196,5.3196,5.3196,5.3196,5.3196,5.3196,5.3196,5.3196,5.3196,5.3196,5.3196,5.3196,5.3196,5.3196,5.3196,5.3196,5.3196,5.3196,5.3285,5.3328,5.4023,5.4563,5.479,5.5115,5.5506,5.5684,5.5689,5.5689,5.5689,5.5689,5.5689,5.5689,5.5689,5.5689,5.5689,5.5689,5.5689,5.5689,5.5689,5.5689,5.5689,5.5689,5.5516,5.4939,5.3991,5.2947,5.215,5.1506,5.1202,5.1151,5.0867,5.0937,5.1009,5.1122,5.1237,5.1318,5.1367,5.1387,5.1387,5.1387,5.1387,5.1387,5.1387,5.1387,5.1387,5.1387,5.1387,5.1387,5.1387,5.1387,5.1387,5.1387,5.1387,5.1406,5.1406,5.1387,5.1387,5.1387,5.1406,5.1484,5.1367,4.9018,4.9018,4.9018,4.9018,4.9018,4.9018,4.9018,4.9018,4.9018,4.9018,4.9018,4.9017,4.9094,4.9331,4.9766,5.0297,5.0649,5.1506,5.2083,5.2576,5.2864,5.3114,5.3185,5.3196,5.3196,5.3196,5.3196,5.3196,5.3196,5.3196,5.3196,5.3196,5.3196,5.3196,5.3196,5.3196,5.3196,5.3196,5.3196,5.3196,5.3196,5.3196,5.3196,5.3196,5.3196,5.3196,5.3196,5.3196,5.3196,5.3196,5.3196,5.3359,5.3624,5.3634,5.4143,5.4836,5.4993,5.5231,5.5506,5.5689,5.5689,5.5689,5.5689,5.5689,5.5689,5.5689,5.5689,5.5689,5.5689,5.5689,5.5689,5.5689,5.5689,5.5689,5.5689,5.5689,5.5689,5.492,5.4068,5.326,5.2423,5.1972,5.1645,5.1245,5.0928,5.0848,5.0907,5.1003,5.1135,5.1234,5.1318,5.1348,5.1387,5.1387,5.1387,5.1387,5.1387,5.1387,5.1387,5.1387,5.1387,5.1387,5.1387,5.1387,5.1387,5.1465,5.1504,5.1426,5.1426,5.1699,5.1816,5.1992,5.1816,5.1816,5.1582,4.9018,4.9018,4.9018,4.9018,4.9018,4.9018,4.9018,4.9018,4.9018,4.9018,4.9018,4.9018,4.9018,4.9018,4.9419,4.9824,5.0047,5.077,5.1544,5.2089,5.249,5.2875,5.3031,5.3196,5.3196,5.3196,5.3196,5.3196,5.3196,5.3196,5.3196,5.3196,5.3196,5.3196,5.3196,5.3196,5.3196,5.3196,5.3196,5.3196,5.3196,5.3196,5.3196,5.3196,5.3196,5.3196,5.3196,5.3196,5.3196,5.3196,5.3196,5.3422,5.3663,5.3749,5.4244,5.4807,5.5115,5.5262,5.5571,5.5689,5.5689,5.5689,5.5689,5.5689,5.5689,5.5689,5.5689,5.5689,5.5689,5.5689,5.5689,5.5689,5.5689,5.5689,5.5689,5.5689,5.5689,5.5362,5.4645,5.3991,5.339,5.3106,5.2616,5.1789,5.1485,5.1294,5.126,5.0928,5.1049,5.1175,5.1234,5.1318,5.1365,5.1387,5.1387,5.1387,5.1387,5.1387,5.1387,5.1387,5.1387,5.1387,5.1387,5.1523,5.1621,5.1719,5.1719,5.1894,5.2363,5.2832,5.2812,5.2734,5.248,5.2344,5.2422,4.9018,4.9018,4.9018,4.9018,4.9018,4.9018,4.9018,4.9018,4.9018,4.9018,4.9018,4.9018,4.9018,4.9018,4.9032,4.9434,4.9838,5.0213,5.0924,5.1655,5.2059,5.264,5.302,5.3196,5.3196,5.3196,5.3196,5.3196,5.3196,5.3196,5.3196,5.3196,5.3196,5.3196,5.3196,5.3196,5.3196,5.3196,5.3196,5.3196,5.3196,5.3196,5.3196,5.3196,5.3196,5.3196,5.3196,5.3196,5.3196,5.3196,5.3217,5.3444,5.3749,5.3932,5.4406,5.4886,5.5231,5.5417,5.561,5.5689,5.5689,5.5689,5.5689,5.5689,5.5689,5.5689,5.5689,5.5689,5.5689,5.5689,5.5689,5.5689,5.5689,5.5689,5.5689,5.5689,5.5689,5.567,5.517,5.4587,5.4318,5.4049,5.3453,5.2601,5.2102,5.1891,5.158,5.1183,5.0975,5.1096,5.1196,5.1263,5.1343,5.1367,5.1387,5.1387,5.1387,5.1387,5.1387,5.1387,5.1465,5.168,5.1816,5.1797,5.1894,5.2344,5.2598,5.2812,5.334,5.3789,5.3535,5.332,5.3398,5.332,5.3594,4.9018,4.9018,4.9018,4.9018,4.9018,4.9018,4.9018,4.9018,4.9018,4.9018,4.9018,4.9018,4.9018,4.9018,4.9018,4.9197,4.9344,4.9678,5.0393,5.1202,5.1729,5.2445,5.297,5.3114,5.3175,5.3196,5.3196,5.3196,5.3196,5.3196,5.3196,5.3196,5.3196,5.3196,5.3196,5.3196,5.3196,5.3196,5.3196,5.3196,5.3196,5.3196,5.3196,5.3196,5.3196,5.3196,5.3196,5.3196,5.3196,5.3196,5.3217,5.3432,5.372,5.4066,5.4544,5.4919,5.5263,5.5524,5.5673,5.5689,5.5689,5.5689,5.5689,5.5689,5.5689,5.5689,5.5689,5.5689,5.5689,5.5689,5.5689,5.5689,5.5689,5.5689,5.5689,5.5689,5.5689,5.5689,5.5478,5.5107,5.4818,5.4607,5.4337,5.351,5.2741,5.2477,5.2093,5.1704,5.1366,5.1283,5.1248,5.1352,5.1471,5.1367,5.1387,5.1387,5.1387,5.1387,5.1484,5.1641,5.1875,5.2207,5.2324,5.2461,5.293,5.3457,5.3672,5.375,5.3965,5.4277,5.4023,5.3887,5.4062,5.4297,5.457]}]]